[[{"header":{"parameterUnit":"m.s-1","parameterCategory":1,"la1":30.6,"la2":28.766,"lo1":-90.7593,"lo2":-88.6598,"dy":0.0162,"dx":0.0183,"nx":116,"ny":114,"refTime":"2023-05-13T12:00:00:Z","depth":0,"parameterNumber":2,"parameterNumberName":"U-component_of_WINDS"},"data":[0.0,0.0,0.0,0.0,0.0,0.0,0.0,0.0,0.0,0.0,0.0,0.0,0.0,0.0,0.0,0.0,0.0,0.0,0.0,0.0,0.0,0.0,0.0,0.0,0.0,0.0,0.0,0.0,0.0,0.0,0.0,0.0,0.0,0.0,0.0,0.0,0.0,0.0,0.0,0.0,0.0,0.0,0.0,0.0,0.0,0.0,0.0,0.0,0.0,0.0,0.0,0.0,0.0,0.0,0.0,0.0,0.0,0.0,0.0,0.0,0.0,0.0,0.0,0.0,0.0,0.0,0.0,0.0,0.0,0.0,0.0,0.0,0.0,0.0,0.0,0.0,0.0,0.0,0.0,0.0,0.0,0.0,0.0,0.0,0.0,0.0,0.0,0.0,0.0,0.0,0.0,0.0,0.0,0.0,0.0,0.0,0.0,0.0,0.0,0.0,0.0,0.0,0.0,0.0,0.0,0.0,0.0,0.0,0.0,0.0,0.0,0.0,0.0,0.0,0.0,0.0,0.0,0.0,0.0,0.0,0.0,0.0,0.0,0.0,0.0,0.0,0.0,0.0,0.0,0.0,0.0,0.0,0.0,0.0,0.0,0.0,0.0,0.0,0.0,0.0,0.0,0.0,0.0,0.0,0.0,0.0,0.0,0.0,0.0,0.0,0.0,0.0,0.0,0.0,0.0,0.0,0.0,0.0,0.0,0.0,0.0,0.0,0.0,0.0,0.0,0.0,0.0,0.0,0.0,0.0,0.0,0.0,0.0,0.0,0.0,0.0,0.0,0.0,0.0,0.0,0.0,0.0,0.0,0.0,0.0,0.0,0.0,0.0,0.0,0.0,0.0,0.0,0.0,0.0,0.0,0.0,0.0,0.0,0.0,0.0,0.0,0.0,0.0,0.0,0.0,0.0,0.0,0.0,0.0,0.0,0.0,0.0,0.0,0.0,0.0,0.0,0.0,0.0,0.0,0.0,0.0,0.0,0.0,0.0,0.0,0.0,0.0,0.0,0.0,0.0,0.0,0.0,0.0,0.0,0.0,0.0,0.0,0.0,0.0,0.0,0.0,0.0,0.0,0.0,0.0,0.0,0.0,0.0,0.0,0.0,0.0,0.0,0.0,0.0,0.0,0.0,0.0,0.0,0.0,0.0,0.0,0.0,0.0,0.0,0.0,0.0,0.0,0.0,0.0,0.0,0.0,0.0,0.0,0.0,0.0,0.0,0.0,0.0,0.0,0.0,0.0,0.0,0.0,0.0,0.0,0.0,0.0,0.0,0.0,0.0,0.0,0.0,0.0,0.0,0.0,0.0,0.0,0.0,0.0,0.0,0.0,0.0,0.0,0.0,0.0,0.0,0.0,0.0,0.0,0.0,0.0,0.0,0.0,0.0,0.0,0.0,0.0,0.0,0.0,0.0,0.0,0.0,0.0,0.0,0.0,0.0,0.0,0.0,0.0,0.0,0.0,0.0,0.0,0.0,0.0,0.0,0.0,0.0,0.0,0.0,0.0,0.0,0.0,0.0,0.0,0.0,0.0,0.0,0.0,0.0,0.0,0.0,0.0,0.0,0.0,0.0,0.0,0.0,0.0,0.0,0.0,0.0,0.0,0.0,0.0,0.0,0.0,0.0,0.0,0.0,0.0,0.0,0.0,0.0,0.0,0.0,0.0,0.0,0.0,0.0,0.0,0.0,0.0,0.0,0.0,0.0,0.0,0.0,0.0,0.0,0.0,0.0,0.0,0.0,0.0,0.0,0.0,0.0,0.0,0.0,0.0,0.0,0.0,0.0,0.0,0.0,0.0,0.0,0.0,0.0,0.0,0.0,0.0,0.0,0.0,0.0,0.0,0.0,0.0,0.0,0.0,0.0,0.0,0.0,0.0,0.0,0.0,0.0,0.0,0.0,0.0,0.0,0.0,0.0,0.0,0.0,0.0,0.0,0.0,0.0,0.0,0.0,0.0,0.0,0.0,0.0,0.0,0.0,0.0,0.0,0.0,0.0,0.0,0.0,0.0,0.0,0.0,0.0,0.0,0.0,0.0,0.0,0.0,0.0,0.0,0.0,0.0,0.0,0.0,0.0,0.0,0.0,0.0,0.0,0.0,0.0,0.0,0.0,0.0,0.0,0.0,0.0,0.0,0.0,0.0,0.0,0.0,0.0,0.0,0.0,0.0,0.0,0.0,0.0,0.0,0.0,0.0,0.0,0.0,0.0,0.0,0.0,0.0,0.0,0.0,0.0,0.0,0.0,0.0,0.0,0.0,0.0,0.0,0.0,0.0,0.0,0.0,0.0,0.0,0.0,0.0,0.0,0.0,0.0,0.0,0.0,0.0,0.0,0.0,0.0,0.0,0.0,0.0,0.0,0.0,0.0,0.0,0.0,0.0,0.0,0.0,0.0,0.0,0.0,0.0,0.0,0.0,0.0,0.0,0.0,0.0,0.0,0.0,0.0,0.0,0.0,0.0,0.0,0.0,0.0,0.0,0.0,0.0,0.0,0.0,0.0,0.0,0.0,0.0,0.0,0.0,0.0,0.0,0.0,0.0,0.0,0.0,0.0,0.0,0.0,0.0,0.0,0.0,0.0,0.0,0.0,0.0,0.0,0.0,0.0,0.0,0.0,0.0,0.0,0.0,0.0,0.0,0.0,0.0,0.0,0.0,0.0,0.0,0.0,0.0,0.0,0.0,0.0,0.0,0.0,0.0,0.0,0.0,0.0,0.0,0.0,0.0,0.0,0.0,0.0,0.0,0.0,0.0,0.0,0.0,0.0,0.0,0.0,0.0,0.0,0.0,0.0,0.0,0.0,0.0,0.0,0.0,0.0,0.0,0.0,0.0,0.0,0.0,0.0,0.0,0.0,0.0,0.0,0.0,0.0,0.0,0.0,0.0,0.0,0.0,0.0,0.0,0.0,0.0,0.0,0.0,0.0,0.0,0.0,0.0,0.0,0.0,0.0,0.0,0.0,0.0,0.0,0.0,0.0,0.0,0.0,0.0,0.0,0.0,0.0,0.0,0.0,0.0,0.0,0.0,0.0,0.0,0.0,0.0,0.0,0.0,0.0,0.0,0.0,0.0,0.0,0.0,0.0,0.0,0.0,0.0,0.0,0.0,0.0,0.0,0.0,0.0,0.0,0.0,0.0,0.0,0.0,0.0,0.0,0.0,0.0,0.0,0.0,0.0,0.0,0.0,0.0,0.0,0.0,0.0,0.0,0.0,0.0,0.0,0.0,0.0,0.0,0.0,0.0,0.0,0.0,0.0,0.0,0.0,0.0,0.0,0.0,0.0,0.0,0.0,0.0,0.0,0.0,0.0,0.0,0.0,0.0,0.0,0.0,0.0,0.0,0.0,0.0,0.0,0.0,0.0,0.0,0.0,0.0,0.0,0.0,0.0,0.0,0.0,0.0,0.0,0.0,0.0,0.0,0.0,0.0,0.0,0.0,0.0,0.0,0.0,0.0,0.0,0.0,0.0,0.0,0.0,0.0,0.0,0.0,0.0,0.0,0.0,0.0,0.0,0.0,0.0,0.0,0.0,0.0,0.0,0.0,0.0,0.0,0.0,0.0,0.0,0.0,0.0,0.0,0.0,0.0,0.0,0.0,0.0,0.0,0.0,0.0,0.0,0.0,0.0,0.0,0.0,0.0,0.0,0.0,0.0,0.0,0.0,0.0,0.0,0.0,0.0,0.0,0.0,0.0,0.0,0.0,0.0,0.0,0.0,0.0,0.0,0.0,0.0,0.0,0.0,0.0,0.0,0.0,0.0,0.0,0.0,0.0,0.0,0.0,0.0,0.0,0.0,0.0,0.0,0.0,0.0,0.0,0.0,0.0,0.0,0.0,0.0,0.0,0.0,0.0,0.0,0.0,0.0,0.0,0.0,0.0,0.0,0.0,0.0,0.0,0.0,0.0,0.0,0.0,0.0,0.0,0.0,0.0,0.0,0.0,0.0,0.0,0.0,0.0,0.0,0.0,0.0,0.0,0.0,0.0,0.0,0.0,0.0,0.0,0.0,0.0,0.0,0.0,0.0,0.0,0.0,0.0,0.0,0.0,0.0,0.0,0.0,0.0,0.0,0.0,0.0,0.0,0.0,0.0,0.0,0.0,0.0,0.0,0.0,0.0,0.0,0.0,0.0,0.0,0.0,0.0,0.0,0.0,0.0,0.0,0.0,0.0,0.0,0.0,0.0,0.0,0.0,0.0,0.0,0.0,0.0,0.0,0.0,0.0,0.0,0.0,0.0,0.0,0.0,0.0,0.0,0.0,0.0,0.0,0.0,0.0,0.0,0.0,0.0,0.0,0.0,0.0,0.0,0.0,0.0,0.0,0.0,0.0,0.0,0.0,0.0,0.0,0.0,0.0,0.0,0.0,0.0,0.0,0.0,0.0,0.0,0.0,0.0,0.0,0.0,0.0,0.0,0.0,0.0,0.0,0.0,0.0,0.0,0.0,0.0,0.0,0.0,0.0,0.0,0.0,0.0,0.0,0.0,0.0,0.0,0.0,0.0,0.0,0.0,0.0,0.0,0.0,0.0,0.0,0.0,0.0,0.0,0.0,0.0,0.0,0.0,0.0,0.0,0.0,0.0,0.0,0.0,0.0,0.0,0.0,0.0,0.0,0.0,0.0,0.0,0.0,0.0,0.0,0.0,0.0,0.0,0.0,0.0,0.0,0.0,0.0,0.0,0.0,0.0,0.0,0.0,0.0,0.0,0.0,0.0,0.0,0.0,0.0,0.0,0.0,0.0,0.0,0.0,0.0,0.0,0.0,0.0,0.0,0.0,0.0,0.0,0.0,0.0,0.0,0.0,0.0,0.0,0.0,0.0,0.0,0.0,0.0,0.0,0.0,0.0,0.0,0.0,0.0,0.0,0.0,0.0,0.0,0.0,0.0,0.0,0.0,0.0,0.0,0.0,0.0,0.0,0.0,0.0,0.0,0.0,0.0,0.0,0.0,0.0,0.0,0.0,0.0,0.0,0.0,0.0,0.0,0.0,0.0,0.0,0.0,0.0,0.0,0.0,0.0,0.0,0.0,0.0,0.0,0.0,0.0,0.0,0.0,0.0,0.0,0.0,0.0,0.0,0.0,0.0,0.0,0.0,0.0,0.0,0.0,0.0,0.0,0.0,0.0,0.0,0.0,0.0,0.0,0.0,0.0,0.0,0.0,0.0,0.0,0.0,0.0,0.0,0.0,0.0,0.0,0.0,0.0,0.0,0.0,0.0,0.0,0.0,0.0,0.0,0.0,0.0,0.0,0.0,0.0,0.0,0.0,0.0,0.0,0.0,0.0,0.0,0.0,0.0,0.0,0.0,0.0,0.0,0.0,0.0,0.0,0.0,0.0,0.0,0.0,0.0,0.0,0.0,0.0,0.0,0.0,0.0,0.0,0.0,0.0,0.0,0.0,0.0,0.0,0.0,0.0,0.0,0.0,0.0,0.0,0.0,0.0,0.0,0.0,0.0,0.0,0.0,0.0,0.0,0.0,0.0,0.0,0.0,0.0,0.0,0.0,0.0,0.0,0.0,0.0,0.0,0.0,0.0,0.0,0.0,0.0,0.0,0.0,0.0,0.0,0.0,0.0,0.0,0.0,0.0,0.0,0.0,0.0,0.0,0.0,0.0,0.0,0.0,0.0,0.0,0.0,0.0,0.0,0.0,0.0,0.0,0.0,0.0,0.0,0.0,0.0,0.0,0.0,0.0,0.0,0.0,0.0,0.0,0.0,0.0,0.0,0.0,0.0,0.0,0.0,0.0,0.0,0.0,0.0,0.0,0.0,0.0,0.0,0.0,0.0,0.0,0.0,0.0,0.0,0.0,0.0,0.0,0.0,0.0,0.0,0.0,0.0,0.0,0.0,0.0,0.0,0.0,0.0,0.0,0.0,0.0,0.0,0.0,0.0,0.0,0.0,0.0,0.0,0.0,0.0,0.0,0.0,0.0,0.0,0.0,0.0,0.0,0.0,0.0,0.0,0.0,0.0,0.0,0.0,0.0,0.0,0.0,0.0,0.0,0.0,0.0,0.0,0.0,0.0,0.0,0.0,0.0,0.0,0.0,0.0,0.0,0.0,0.0,0.0,0.0,0.0,0.0,0.0,0.0,0.0,2.8424,0.0,0.0,0.0,0.0,0.0,0.0,0.0,0.0,0.0,0.0,0.0,0.0,0.0,0.0,0.0,0.0,0.0,0.0,0.0,0.0,0.0,0.0,0.0,0.0,0.0,0.0,0.0,0.0,0.0,0.0,0.0,0.0,0.0,0.0,0.0,0.0,0.0,0.0,0.0,0.0,0.0,0.0,0.0,0.0,0.0,0.0,0.0,0.0,0.0,0.0,0.0,0.0,0.0,0.0,0.0,0.0,0.0,0.0,0.0,0.0,0.0,0.0,0.0,0.0,0.0,0.0,0.0,0.0,0.0,0.0,0.0,0.0,0.0,0.0,0.0,0.0,0.0,0.0,0.0,0.0,0.0,0.0,0.0,0.0,0.0,0.0,0.0,0.0,0.0,0.0,0.0,0.0,0.0,0.0,0.0,0.0,0.0,0.0,0.0,0.0,0.0,0.0,0.0,0.0,0.0,0.0,0.0,0.0,0.0,0.0,0.0,0.0,0.0,0.0,0.0,0.0,2.9413,0.0,0.0,0.0,0.0,0.0,0.0,0.0,0.0,0.0,0.0,0.0,0.0,0.0,0.0,0.0,0.0,0.0,0.0,0.0,0.0,0.0,0.0,0.0,0.0,0.0,0.0,0.0,0.0,0.0,0.0,0.0,0.0,0.0,0.0,0.0,0.0,0.0,0.0,0.0,0.0,0.0,0.0,0.0,0.0,0.0,0.0,0.0,0.0,0.0,0.0,0.0,0.0,0.0,0.0,0.0,0.0,0.0,0.0,0.0,0.0,0.0,0.0,0.0,0.0,0.0,0.0,0.0,0.0,0.0,0.0,0.0,0.0,0.0,0.0,0.0,0.0,0.0,0.0,0.0,0.0,0.0,0.0,0.0,0.0,0.0,0.0,0.0,0.0,0.0,0.0,0.0,0.0,0.0,0.0,0.0,0.0,0.0,0.0,0.0,0.0,0.0,0.0,0.0,0.0,0.0,0.0,0.0,0.0,3.2814,3.3388,3.3388,3.3371,3.438,3.5931,3.3094,3.2026,3.2114,2.9647,0.0,0.0,0.0,0.0,0.0,0.0,0.0,0.0,0.0,0.0,0.0,0.0,0.0,0.0,0.0,0.0,0.0,0.0,0.0,0.0,0.0,0.0,0.0,0.0,0.0,0.0,0.0,0.0,0.0,0.0,0.0,0.0,0.0,0.0,0.0,0.0,0.0,0.0,2.8914,2.897,2.9744,3.0906,2.7065,0.0,0.0,0.0,0.0,0.0,0.0,0.0,0.0,0.0,0.0,0.0,0.0,0.0,0.0,0.0,0.0,0.0,0.0,0.0,0.0,0.0,0.0,0.0,0.0,0.0,0.0,0.0,0.0,0.0,0.0,0.0,0.0,0.0,0.0,0.0,0.0,0.0,0.0,0.0,0.0,0.0,0.0,0.0,2.7869,2.793,0.0,0.0,0.0,0.0,0.0,0.0,0.0,0.0,0.0,0.0,0.0,0.0,0.0,3.0384,3.0771,3.2982,3.4501,3.5332,3.7719,3.8866,3.8866,3.8853,3.8563,3.7988,3.7482,0.0,3.3788,3.2493,0.0,0.0,0.0,0.0,0.0,0.0,0.0,0.0,0.0,0.0,0.0,0.0,0.0,0.0,0.0,0.0,0.0,0.0,0.0,0.0,0.0,0.0,0.0,0.0,0.0,0.0,0.0,0.0,0.0,0.0,0.0,0.0,0.0,0.0,0.0,0.0,2.6846,2.9216,3.1744,3.2209,3.3099,3.4203,3.2326,3.0314,2.8256,2.6541,0.0,0.0,0.0,0.0,0.0,0.0,0.0,0.0,0.0,0.0,0.0,0.0,0.0,0.0,0.0,0.0,0.0,0.0,0.0,0.0,0.0,0.0,0.0,0.0,0.0,0.0,0.0,0.0,0.0,0.0,0.0,0.0,0.0,0.0,0.0,0.0,0.0,0.0,0.0,2.6241,2.6889,2.7361,2.6744,2.6115,0.0,0.0,0.0,0.0,0.0,0.0,0.0,0.0,0.0,3.2939,3.3439,3.4163,3.517,3.6297,3.7304,3.8205,3.9842,4.0879,4.1308,4.1271,4.1226,4.1149,4.0106,3.9208,3.8219,3.4861,3.2502,3.0925,0.0,0.0,0.0,0.0,3.0753,3.1261,0.0,0.0,0.0,0.0,0.0,0.0,0.0,0.0,0.0,0.0,0.0,0.0,0.0,0.0,0.0,2.3379,0.0,0.0,0.0,0.0,0.0,0.0,0.0,0.0,0.0,0.0,0.0,2.7333,2.9515,3.1773,3.4082,3.4957,3.582,3.666,3.6438,3.4283,3.0728,2.8988,2.7776,0.0,0.0,0.0,0.0,0.0,0.0,0.0,0.0,0.0,0.0,0.0,0.0,0.0,0.0,0.0,0.0,0.0,0.0,0.0,0.0,0.0,0.0,0.0,0.0,0.0,0.0,0.0,0.0,0.0,0.0,0.0,0.0,0.0,0.0,0.0,0.0,0.0,0.0,2.6372,2.7023,2.7213,2.7807,2.7793,0.0,0.0,0.0,0.0,0.0,0.0,3.2104,3.2751,3.4,3.5962,3.6664,3.7728,3.9258,3.9473,4.0019,4.0879,4.1758,4.2474,4.3012,4.2963,4.3081,4.3264,4.1923,4.1511,4.147,3.7238,3.4941,3.3988,3.3009,3.2438,3.2262,3.2991,3.3639,3.4187,0.0,0.0,0.0,0.0,0.0,0.0,0.0,0.0,0.0,0.0,0.0,0.0,0.0,0.0,2.4297,2.4336,2.4375,2.4352,0.0,0.0,0.0,0.0,0.0,0.0,0.0,0.0,0.0,2.8233,3.1571,3.4121,3.5898,3.6758,3.7637,3.8437,3.7597,3.6191,3.4336,3.2656,3.1406,3.0254,0.0,0.0,0.0,0.0,0.0,0.0,0.0,0.0,0.0,0.0,0.0,0.0,0.0,0.0,0.0,0.0,0.0,0.0,0.0,0.0,0.0,0.0,0.0,0.0,0.0,0.0,0.0,0.0,0.0,0.0,0.0,0.0,0.0,0.0,0.0,0.0,0.0,0.0,0.0,2.8318,3.0261,0.0,0.0,0.0,0.0,3.1845,3.2046,3.3192,3.5611,3.5786,3.6972,3.955,3.9687,4.0137,4.1055,4.1836,4.2656,4.3516,4.4394,4.4766,4.4694,4.4682,4.4143,4.3198,4.3124,4.2588,4.1662,3.9815,3.8497,3.7536,3.6542,3.56,3.4921,3.5846,3.6026,3.5885,0.0,0.0,0.0,0.0,0.0,0.0,0.0,0.0,0.0,0.0,0.0,0.0,0.0,2.4883,2.5684,2.6816,2.6914,2.6425,2.5309,0.0,0.0,0.0,0.0,0.0,0.0,0.0,2.9343,3.2412,3.4198,3.625,3.8516,3.8828,3.9434,4.0273,4.0488,3.9941,3.8652,3.5254,3.2988,3.1504,2.9141,2.7185,0.0,0.0,0.0,0.0,0.0,0.0,0.0,0.0,0.0,0.0,0.0,0.0,0.0,0.0,0.0,0.0,0.0,0.0,0.0,0.0,0.0,0.0,0.0,0.0,0.0,0.0,0.0,0.0,0.0,0.0,0.0,0.0,0.0,0.0,0.0,0.0,0.0,3.0786,3.2531,0.0,3.2129,3.3315,3.4287,3.4587,3.5664,3.6952,3.8426,3.9041,4.0019,4.1465,4.2051,4.248,4.2812,4.3086,4.3672,4.4531,4.4764,4.515,4.5624,4.549,4.522,4.4874,4.4778,4.4547,4.4162,4.2989,4.105,3.8708,3.7778,3.7229,3.7041,3.7936,3.8379,3.8552,0.0,0.0,0.0,0.0,0.0,0.0,0.0,0.0,0.0,0.0,0.0,2.3203,2.5449,2.6211,2.7031,2.8203,2.8301,2.7675,2.6221,0.0,0.0,0.0,0.0,0.0,0.0,2.9129,3.1704,3.5137,3.6601,3.8359,4.0332,4.0625,4.1211,4.207,4.2598,4.2539,4.1836,3.8652,3.5996,3.3711,3.1406,2.9434,2.7675,0.0,0.0,0.0,0.0,0.0,0.0,0.0,0.0,0.0,0.0,0.0,0.0,0.0,0.0,0.0,0.0,0.0,0.0,0.0,0.0,0.0,0.0,0.0,0.0,0.0,0.0,0.0,0.0,0.0,0.0,0.0,0.0,0.0,0.0,0.0,3.2734,3.3008,3.5312,3.6445,3.5273,3.6738,3.7871,3.8144,3.9238,4.0254,4.1133,4.1738,4.2422,4.3242,4.3848,4.4277,4.457,4.457,4.4835,4.5364,4.5291,4.5509,4.5988,4.5853,4.5776,4.5738,4.5624,4.5586,4.5528,4.4662,4.2989,4.0873,3.9738,3.9277,3.9315,3.9604,3.9842,4.0021,0.0,0.0,0.0,0.0,0.0,0.0,0.0,0.0,0.0,0.0,2.2676,2.3848,2.5547,2.7246,2.8262,2.8301,2.8281,2.7883,2.7026,2.5352,0.0,0.0,0.0,0.0,2.8418,3.1729,3.4336,3.6152,3.8691,4.0391,4.1308,4.207,4.2891,4.3691,4.373,4.373,4.3691,4.2832,4.0547,3.7207,3.375,3.2266,3.1777,0.0,0.0,0.0,0.0,0.0,0.0,0.0,0.0,0.0,0.0,0.0,0.0,0.0,0.0,0.0,0.0,0.0,0.0,0.0,0.0,0.0,0.0,0.0,0.0,0.0,0.0,0.0,0.0,0.0,0.0,0.0,0.0,0.0,3.1172,3.3984,3.582,3.5039,3.8691,4.0605,3.8926,4.0293,4.1601,4.2383,4.2441,4.2812,4.3691,4.373,4.4141,4.5019,4.5039,4.5449,4.6289,4.6308,4.6228,4.6103,4.6103,4.5988,4.5796,4.5796,4.5719,4.5586,4.5586,4.5603,4.5545,4.4682,4.4335,4.4162,4.247,4.1797,4.17,4.0854,4.0377,4.0134,0.0,0.0,0.0,0.0,0.0,0.0,0.0,0.0,0.0,0.0,2.2999,2.4062,2.6328,2.7031,2.7617,2.8242,2.7717,2.6993,2.6101,0.0,0.0,0.0,0.0,0.0,3.1927,3.3534,3.6133,3.9766,4.0488,4.16,4.3012,4.3247,4.3466,4.3727,4.4355,4.4648,4.4629,4.4394,4.3379,4.1582,3.7539,3.4746,3.2793,0.0,0.0,0.0,0.0,0.0,0.0,0.0,0.0,0.0,0.0,0.0,0.0,0.0,0.0,0.0,0.0,0.0,0.0,0.0,0.0,0.0,0.0,0.0,0.0,0.0,0.0,0.0,0.0,0.0,0.0,0.0,0.0,3.4824,3.4629,3.7031,3.9199,4.0176,4.1894,4.2812,4.2344,4.2734,4.3105,4.332,4.334,4.3711,4.4609,4.4648,4.5039,4.5918,4.5937,4.6055,4.6308,4.6308,4.6228,4.6103,4.6007,4.5911,4.5796,4.5699,4.5624,4.5603,4.564,4.5657,4.5637,4.5401,4.5324,4.5079,4.2717,4.1797,4.1777,4.1527,4.115,4.0696,0.0,0.0,0.0,0.0,0.0,0.0,0.0,0.0,0.0,0.0,2.3095,2.4118,2.6621,2.6934,2.7167,2.7702,2.6958,2.6097,2.5216,0.0,0.0,0.0,0.0,3.043,3.4394,3.6055,3.8456,4.1694,4.2065,4.2921,4.424,4.4234,4.4449,4.4811,4.5325,4.5544,4.5546,4.5547,4.5039,4.3984,4.1133,3.8652,3.6406,3.3926,3.2891,3.2558,3.0952,3.0194,2.9861,2.9354,0.0,0.0,0.0,0.0,0.0,0.0,0.0,0.0,0.0,0.0,0.0,0.0,0.0,0.0,0.0,0.0,0.0,0.0,0.0,0.0,0.0,0.0,0.0,0.0,3.6152,3.8301,3.9101,4.0527,4.1992,4.332,4.4258,4.4785,4.4785,4.4785,4.4785,4.4785,4.4785,4.5019,4.5527,4.5547,4.5781,4.6289,4.6308,4.6308,4.6308,4.6308,4.6225,4.6061,4.5982,4.5885,4.577,4.5693,4.5635,4.5635,4.5671,4.5706,4.5687,4.57,4.5684,0.0,0.0,0.0,0.0,0.0,4.1455,4.0552,0.0,0.0,0.0,0.0,0.0,0.0,0.0,0.0,0.0,0.0,0.0,2.4026,2.6452,2.6738,2.6733,2.6693,2.6007,2.5227,0.0,0.0,0.0,2.7342,2.9975,3.296,3.6367,3.8906,4.1011,4.2685,4.3466,4.4296,4.5147,4.5155,4.5558,4.63,4.63,4.6309,4.63,4.6307,4.5859,4.5078,4.4295,4.2909,4.0976,3.7695,3.6914,3.7285,3.4844,3.3455,3.2744,3.2647,0.0,0.0,0.0,0.0,0.0,0.0,0.0,0.0,0.0,0.0,0.0,0.0,0.0,0.0,0.0,0.0,0.0,0.0,0.0,0.0,0.0,0.0,0.0,0.0,3.9181,4.191,4.3711,4.3984,4.4277,4.5058,4.582,4.6308,4.6308,4.6308,4.6308,4.6308,4.6308,4.6308,4.6308,0.0,0.0,0.0,0.0,4.6308,4.6308,4.6289,4.6192,4.6001,4.5984,4.5889,4.57,4.57,4.57,4.57,4.5715,4.5715,4.5715,4.5715,4.5715,4.5619,4.4742,4.4309,4.4049,4.3024,4.1521,4.0268,0.0,0.0,0.0,0.0,0.0,0.0,0.0,0.0,0.0,2.2714,2.2992,2.3698,2.5495,2.5798,2.5566,2.488,2.4726,2.4562,0.0,0.0,2.7488,2.9874,3.3195,3.6307,3.9082,4.0969,4.275,4.4504,4.468,4.5187,4.6053,4.6049,4.6144,4.63,4.63,4.6303,4.6306,4.6309,4.62,4.6028,4.5752,4.4235,4.1953,3.9922,3.9258,3.9238,3.8027,3.6966,3.6054,3.5393,3.3945,3.2288,3.1465,0.0,0.0,0.0,0.0,0.0,0.0,0.0,0.0,0.0,0.0,0.0,0.0,0.0,0.0,0.0,0.0,0.0,0.0,0.0,0.0,3.932,4.1685,4.3692,4.5407,4.5723,4.5859,4.6035,4.6191,4.6308,4.6308,4.6308,4.6308,4.6308,4.6308,4.6308,4.6308,4.6308,4.6308,4.6308,4.6301,4.63,4.6308,4.6257,4.6144,4.6001,0.0,0.0,4.57,4.57,4.57,4.57,4.5765,4.5781,4.5781,4.5771,4.5791,4.5688,4.4762,4.3959,4.3256,4.2616,4.2132,4.1808,0.0,0.0,0.0,0.0,0.0,0.0,0.0,0.0,0.0,0.0,2.2342,2.281,2.4063,2.427,2.4144,2.373,2.3708,0.0,0.0,2.6932,2.9428,3.2416,3.5896,3.8603,4.0408,4.2529,4.4061,4.4992,4.5441,4.587,4.63,4.63,4.6249,4.6156,4.6269,4.6245,4.6156,4.6144,4.6144,4.6137,4.6044,4.5249,4.4011,4.2777,4.2295,4.2197,4.1319,4.0128,3.8883,3.8484,3.6889,3.4831,3.3546,3.1971,3.0285,0.0,0.0,0.0,0.0,0.0,0.0,0.0,0.0,0.0,0.0,0.0,0.0,0.0,0.0,3.3141,0.0,0.0,3.9146,4.2165,4.4191,4.5723,4.6616,4.6875,4.6797,4.6348,4.6308,4.6308,4.6308,4.6308,4.6308,4.6308,4.6306,4.6305,4.6308,4.6307,4.6306,4.6301,4.6297,4.6295,4.6301,4.6267,4.6186,4.6057,4.6016,4.5919,4.5742,4.5742,4.5742,4.5742,4.5791,4.5791,4.5805,4.58,4.58,4.5752,4.5287,4.4581,4.3805,4.3809,4.3266,4.2593,0.0,0.0,0.0,0.0,0.0,0.0,0.0,0.0,0.0,0.0,2.1694,2.2028,2.289,2.2987,2.2953,0.0,0.0,0.0,0.0,2.8315,3.1301,3.4729,3.8171,4.0449,4.1437,4.3782,4.507,4.5162,4.588,4.6216,4.6211,4.6211,4.6138,4.5966,4.6125,4.6112,4.5957,4.5959,4.5969,4.5988,4.6072,4.6021,4.5841,4.5324,4.5054,4.4821,4.3966,4.2422,4.0791,4.0795,3.9069,3.6742,3.5484,3.373,3.1679,2.9486,2.8833,0.0,0.0,0.0,0.0,0.0,0.0,0.0,0.0,0.0,3.1543,3.4037,3.5117,3.6297,3.8629,4.0317,4.2085,4.435,4.6117,4.7221,4.7126,4.7245,4.709,4.6387,4.6308,4.6308,4.6308,4.6308,4.6307,4.6307,4.6297,4.6295,4.6307,4.6305,4.6297,4.63,4.6293,4.6293,4.63,4.6265,4.6215,4.6091,4.6065,4.5956,4.58,4.58,4.58,4.58,4.58,4.58,4.58,4.58,4.58,4.58,4.5791,4.5375,4.4808,4.5149,4.4442,4.3407,0.0,0.0,0.0,0.0,0.0,0.0,0.0,0.0,0.0,0.0,0.0,0.0,0.0,0.0,0.0,0.0,0.0,0.0,2.6502,2.9721,3.3051,3.6458,3.9942,4.22,4.3015,4.4846,4.5782,4.5803,4.5889,4.5949,4.5938,4.5938,4.5897,4.5825,4.5856,4.5836,4.5813,4.5813,4.5863,4.5972,4.6621,4.6448,4.5868,4.6455,4.6271,4.5651,4.4839,4.2888,4.0723,4.0718,3.8941,3.6839,3.7411,3.5391,3.2622,3.1725,0.0,2.6876,2.5941,2.6943,2.8718,3.0744,3.1341,3.2559,0.0,0.0,3.6677,3.9169,3.9742,4.0377,4.2203,4.3374,4.4372,4.531,4.6549,4.7072,4.6191,4.6284,4.6406,4.6308,4.6308,4.6308,4.6308,4.63,4.6306,4.6306,4.6295,4.6297,4.6306,4.6297,4.6297,4.63,4.6303,4.6303,4.63,4.6184,4.6117,4.6091,4.5922,4.5808,4.58,4.58,4.58,4.58,4.58,4.58,4.58,4.58,4.58,4.58,4.58,4.5742,4.5636,4.5396,4.517,4.4997,0.0,0.0,0.0,0.0,0.0,0.0,0.0,0.0,0.0,0.0,0.0,0.0,0.0,0.0,0.0,0.0,0.0,0.0,2.73,3.0605,3.4191,3.8142,4.1107,4.3102,4.3994,4.5211,4.5867,4.591,4.5897,4.5899,4.5908,4.5908,4.582,4.5689,4.582,4.5789,4.5689,4.5736,4.5769,4.5808,4.6031,4.5926,4.5596,4.5449,4.4278,4.2717,4.2422,4.0973,0.0,0.0,3.662,3.5277,3.5097,3.3724,3.1862,3.0136,2.9331,0.0,2.9792,3.0466,0.0,0.0,3.4751,3.6754,3.8821,3.9154,3.9723,4.2203,4.2701,4.3085,4.4335,4.4891,4.5411,0.0,4.6855,4.7089,4.6717,4.6819,4.6582,4.5644,4.5993,4.63,4.63,4.6309,4.63,4.63,4.6306,4.6309,4.63,4.6306,4.6306,4.63,4.63,4.63,4.63,4.6211,4.614,4.6092,4.5988,4.5891,4.586,4.586,4.586,4.586,4.586,4.5847,4.58,4.58,4.58,4.58,4.58,4.58,4.578,4.5638,4.5591,4.5539,0.0,0.0,0.0,0.0,0.0,0.0,0.0,0.0,0.0,0.0,0.0,0.0,0.0,0.0,0.0,0.0,0.0,0.0,0.0,3.0383,3.402,3.8084,4.0912,4.2919,4.4066,4.495,4.5515,4.5783,4.5815,4.5815,4.5783,4.5783,4.5703,4.5539,4.5703,4.5689,4.5558,4.561,4.5626,4.5665,4.5799,4.559,4.5051,4.4011,4.2027,3.9831,3.9894,3.8367,0.0,0.0,3.3928,3.3176,3.2716,3.1842,3.0719,2.9196,2.9138,2.9979,3.1835,0.0,0.0,3.5528,3.8253,4.0592,4.1251,4.1879,4.2846,4.4645,4.5028,4.5143,4.5528,4.5797,4.6086,4.649,4.6835,4.7031,4.6855,4.6757,4.6269,4.5135,4.5338,4.5675,4.5929,4.6163,4.63,4.63,4.63,4.63,4.63,4.63,4.63,4.63,4.63,4.63,4.63,4.6228,4.6165,4.6094,4.6025,4.5959,4.5899,4.5899,4.5899,4.5899,4.5899,4.5738,4.5498,4.5498,4.5344,4.5131,4.5131,4.5131,4.5131,4.5131,4.5272,4.5438,0.0,0.0,0.0,0.0,0.0,0.0,0.0,0.0,0.0,0.0,0.0,0.0,0.0,0.0,0.0,0.0,0.0,0.0,0.0,2.8655,3.2004,3.5468,3.8796,4.1357,4.2998,4.3895,4.4739,4.5494,4.5586,4.5586,4.5494,4.5494,4.5475,4.5419,4.54,4.54,4.5419,4.5419,4.5438,4.559,4.6416,4.5782,4.4162,4.2508,4.0296,3.8065,3.8161,0.0,0.0,0.0,3.1279,3.0758,3.151,3.0604,0.0,3.0353,2.8916,2.7547,3.002,3.1813,3.4203,3.9182,4.1713,4.3624,4.6105,4.6701,4.674,4.6817,4.6817,4.6567,4.574,4.6297,4.6586,4.5759,4.6413,4.674,4.6044,4.5324,4.4901,4.4982,4.4276,4.4117,0.0,4.5792,4.63,4.63,4.63,4.63,4.63,4.63,4.63,4.63,4.63,4.63,4.63,4.6229,4.6163,4.6108,4.6033,4.5969,4.5905,4.5905,4.5905,4.5905,4.5905,4.5459,4.4742,4.4742,4.4226,4.347,4.347,4.347,4.347,4.347,4.3976,4.4639,0.0,0.0,0.0,0.0,0.0,0.0,0.0,0.0,0.0,0.0,0.0,0.0,0.0,0.0,0.0,0.0,0.0,0.0,0.0,2.72,3.0023,3.2851,3.6194,3.8512,3.965,4.1066,4.22,4.3049,4.3069,4.3374,4.3915,4.3915,4.3861,4.3844,4.4418,4.4669,4.467,4.4668,4.5666,4.701,4.4474,4.3492,4.3124,3.9719,3.6142,3.2891,0.0,0.0,0.0,2.8763,2.7853,2.7213,2.7449,2.6792,2.6125,2.7052,2.7908,2.9336,3.2949,3.6363,3.9704,4.3085,4.5603,4.749,4.8355,4.8567,4.8394,4.7817,4.5513,4.3328,4.2445,4.208,4.2002,4.2234,4.3936,4.5355,4.5776,4.5656,4.5138,4.4128,4.4845,0.0,0.0,0.0,0.0,4.6261,4.63,4.63,4.63,4.63,4.6573,4.7139,4.6593,4.6573,4.7159,4.6523,4.6167,4.6108,4.6024,4.5986,4.596,4.5964,4.5653,4.5107,4.5107,4.4618,4.3838,4.3838,4.3664,4.3393,4.3393,4.3393,4.3393,4.3393,4.3206,4.302,0.0,0.0,0.0,0.0,0.0,0.0,0.0,0.0,0.0,0.0,0.0,0.0,0.0,0.0,0.0,0.0,0.0,0.0,0.0,0.0,2.7537,2.9781,3.2519,3.4545,3.5718,3.6796,3.7777,3.8623,3.9238,3.9784,4.0238,4.085,4.1067,4.0997,4.155,4.2008,4.2313,4.1735,4.265,4.4201,4.0893,3.97,3.9527,3.5853,3.2583,0.0,0.0,0.0,0.0,2.6608,2.589,2.5461,2.541,2.5499,2.5853,2.704,2.9171,3.214,3.6642,4.0046,4.3153,4.6568,4.8413,4.9471,4.9779,4.9625,4.8894,4.7105,4.4152,4.1452,3.9976,3.9269,3.8907,3.8831,4.0896,4.2852,4.3878,4.4056,4.4054,4.3977,4.4748,4.5011,0.0,0.0,0.0,4.6222,4.6593,4.6768,4.6768,4.7042,4.7451,4.8017,4.7217,4.7018,4.7561,4.6679,4.6205,4.6134,4.6064,4.6027,4.6027,4.5716,4.5423,4.516,4.4858,4.4245,4.3427,4.3427,4.3059,4.2516,4.2516,4.2516,4.2516,4.2516,4.2147,4.1779,0.0,0.0,0.0,0.0,0.0,0.0,0.0,0.0,0.0,0.0,0.0,0.0,0.0,0.0,0.0,0.0,0.0,0.0,0.0,0.0,0.0,2.6274,2.7986,2.9679,3.1333,3.1468,3.191,3.2718,3.4372,3.5076,3.4887,3.6489,3.7127,3.6937,3.6975,3.7566,3.8418,3.6871,3.6875,3.7777,3.6007,3.4834,3.3853,3.1256,0.0,0.0,0.0,0.0,0.0,2.5406,2.5473,2.555,2.558,2.6788,2.8541,3.0335,3.2643,3.5724,4.0741,4.2769,4.4662,4.9529,5.0106,4.9663,5.0452,4.9894,4.824,4.4874,4.2769,4.0743,0.0,0.0,3.7362,3.5843,3.7775,3.9865,4.0893,4.1048,4.1982,0.0,0.0,0.0,0.0,0.0,0.0,4.6378,0.0,4.7608,4.7608,4.8369,4.8818,4.8876,4.8076,4.7639,4.763,4.6784,4.6337,4.6269,4.6099,4.602,4.6001,4.5133,4.5122,4.5763,4.5006,4.4171,4.3374,4.3374,4.2384,4.0907,4.0907,4.0907,4.0907,4.0907,4.0907,4.1014,0.0,0.0,0.0,0.0,0.0,0.0,0.0,0.0,0.0,0.0,0.0,0.0,0.0,0.0,0.0,0.0,0.0,0.0,0.0,0.0,0.0,0.0,0.0,0.0,0.0,0.0,0.0,0.0,0.0,3.102,3.1616,3.2039,3.2204,3.2182,3.2833,3.3283,3.3536,3.3709,3.5042,3.6776,0.0,3.2891,3.2891,0.0,0.0,0.0,0.0,0.0,0.0,0.0,0.0,2.744,2.8087,2.9458,3.1284,3.3577,3.6496,3.9823,4.363,4.6664,4.9221,5.1125,5.0971,5.026,4.9817,4.8086,4.5796,4.3057,3.9221,3.5557,0.0,0.0,0.0,3.5523,3.9304,0.0,4.4165,4.4455,0.0,4.4556,0.0,4.6133,4.5839,4.6996,0.0,0.0,4.7803,4.7608,4.7608,4.8369,4.9091,4.9755,4.8935,4.8798,4.9439,4.794,4.7168,4.7087,4.5763,4.5131,4.5105,4.4228,4.3588,4.3161,4.2947,4.2364,4.1568,4.1568,4.1296,4.0907,4.0907,4.0936,4.0974,4.0917,4.0917,4.0993,0.0,0.0,0.0,0.0,0.0,0.0,0.0,0.0,0.0,0.0,0.0,0.0,0.0,0.0,0.0,0.0,0.0,0.0,0.0,0.0,0.0,0.0,0.0,0.0,0.0,0.0,0.0,0.0,0.0,0.0,0.0,2.768,2.7969,2.7878,2.8368,2.8861,2.934,2.9398,0.0,0.0,0.0,0.0,0.0,0.0,0.0,0.0,0.0,0.0,0.0,0.0,0.0,2.9957,3.1927,3.3448,3.5156,3.8424,0.0,4.4095,4.7452,5.0048,5.1914,5.2356,5.1587,5.0106,4.7738,4.5524,4.2733,3.8378,3.4971,0.0,2.9458,3.095,0.0,0.0,0.0,0.0,4.3156,4.3808,4.446,0.0,4.6486,0.0,4.7228,4.8129,4.8737,0.0,4.874,4.8701,4.8701,4.9481,5.0161,5.0664,4.9825,4.9415,4.9523,4.8181,4.7471,4.7416,4.5687,4.484,4.4805,4.3546,4.2918,4.279,4.2409,4.1955,4.147,4.147,4.1252,4.0945,4.0945,4.0982,4.0999,4.0963,4.0971,4.0999,0.0,0.0,0.0,0.0,0.0,0.0,0.0,0.0,0.0,0.0,2.0349,0.0,0.0,0.0,0.0,0.0,0.0,0.0,0.0,0.0,0.0,0.0,0.0,0.0,0.0,0.0,0.0,0.0,0.0,0.0,0.0,0.0,0.0,0.0,0.0,0.0,0.0,0.0,0.0,0.0,0.0,0.0,0.0,0.0,0.0,0.0,0.0,0.0,0.0,0.0,3.2004,3.3064,3.6426,3.8324,4.0104,4.4008,4.6297,4.8259,5.1395,5.2799,5.3337,5.3241,5.1856,4.9413,4.5192,4.2665,3.9408,3.2974,0.0,2.9599,2.7122,2.9353,3.1491,3.1302,0.0,3.8959,4.0973,4.2009,4.367,4.6624,4.7185,4.7713,4.873,4.8924,4.9021,4.9118,4.9801,5.0196,5.0102,5.0926,5.139,5.1401,5.0557,4.9733,4.8976,4.8,4.7493,4.7488,4.5739,4.4841,4.4665,4.3037,4.2641,4.3207,4.2463,4.2084,4.2031,4.2031,4.1623,4.0991,4.0991,4.0999,4.0996,4.0996,4.0996,4.0996,0.0,0.0,0.0,0.0,0.0,0.0,0.0,0.0,0.0,0.0,2.0319,2.0319,0.0,0.0,0.0,0.0,0.0,0.0,0.0,0.0,0.0,0.0,0.0,0.0,0.0,0.0,0.0,0.0,0.0,0.0,0.0,0.0,0.0,0.0,0.0,0.0,0.0,0.0,0.0,0.0,0.0,0.0,0.0,0.0,0.0,0.0,0.0,0.0,0.0,0.0,3.5278,3.7158,4.0463,4.3733,4.6778,4.8952,5.0279,5.1471,5.351,5.4164,5.4107,5.3376,5.1395,4.8528,4.4286,4.0391,0.0,0.0,2.9588,2.8002,2.6227,2.8043,3.092,3.4275,3.7209,4.0414,4.4198,4.5488,4.624,0.0,4.8124,4.9097,4.9417,5.0042,0.0,0.0,5.0879,5.0686,5.0122,5.0926,5.1394,5.139,5.0542,5.0025,4.9873,4.8293,4.7501,4.7476,4.574,4.4524,4.3798,4.2772,4.1982,4.1433,4.1281,0.0,4.1208,4.1208,4.1136,4.1007,4.1007,4.1003,4.0999,4.1003,4.1003,4.0999,0.0,0.0,0.0,0.0,0.0,0.0,0.0,2.0304,2.0299,2.0254,2.0285,2.0312,2.0312,2.0312,2.0312,0.0,0.0,0.0,0.0,0.0,0.0,0.0,0.0,0.0,0.0,0.0,0.0,0.0,0.0,0.0,0.0,0.0,0.0,0.0,0.0,0.0,0.0,0.0,0.0,0.0,0.0,0.0,0.0,0.0,0.0,0.0,0.0,0.0,0.0,0.0,3.4527,3.8173,4.2957,4.6025,4.8314,5.0643,5.1914,5.2953,5.4664,5.5126,5.4799,5.353,5.1279,4.7835,4.1851,0.0,0.0,0.0,2.7032,2.6423,2.5201,2.7394,0.0,3.2651,3.583,3.9177,4.2537,4.4468,0.0,4.7375,4.8625,4.9622,0.0,5.0619,5.0923,5.1074,5.1131,5.103,5.0785,5.1176,5.1186,5.0733,5.0318,4.9873,4.9439,4.8139,4.7509,4.7482,4.5738,4.4432,4.357,4.2705,4.1811,4.0991,4.0991,4.0996,4.1001,4.1,4.0998,4.0991,4.0991,4.1025,4.1059,4.1045,4.1052,4.1059,0.0,0.0,0.0,0.0,0.0,0.0,2.0295,2.03,2.028,2.0235,2.0265,2.0312,2.0312,2.0312,2.0312,0.0,0.0,0.0,0.0,0.0,0.0,0.0,0.0,0.0,0.0,0.0,0.0,0.0,0.0,0.0,0.0,0.0,0.0,0.0,0.0,0.0,0.0,0.0,0.0,0.0,0.0,0.0,0.0,0.0,0.0,0.0,0.0,0.0,0.0,0.0,3.2295,3.6249,4.1829,4.5306,4.7761,4.9912,5.1683,5.3299,5.4972,5.5568,5.5241,5.3395,5.0875,4.6929,3.954,3.5736,0.0,2.5861,2.5129,2.5382,2.4696,2.6764,2.9029,0.0,3.3506,3.6903,4.014,4.2749,4.5257,0.0,4.9029,0.0,5.0784,5.0841,0.0,5.0946,5.1063,5.1211,5.139,5.1406,5.1079,5.0405,5.0029,4.9484,4.8814,4.7749,4.7223,4.7189,4.583,4.4719,4.3845,4.2973,4.2091,4.1276,4.1076,4.101,4.1015,4.1006,4.1012,4.1013,4.102,4.1059,4.111,4.1091,4.1091,4.1091,0.0,0.0,0.0,0.0,0.0,0.0,2.0225,2.0257,2.0305,2.0296,2.0312,2.0312,2.0312,2.0312,2.0312,0.0,0.0,0.0,0.0,0.0,0.0,0.0,0.0,0.0,0.0,0.0,0.0,0.0,0.0,0.0,0.0,0.0,0.0,0.0,0.0,0.0,0.0,0.0,0.0,0.0,0.0,0.0,0.0,0.0,0.0,0.0,0.0,0.0,0.0,0.0,0.0,3.0018,3.3709,4.0233,4.6464,4.6243,0.0,0.0,5.4145,5.5145,5.5107,5.2645,4.9548,4.5353,3.8556,0.0,3.0791,2.6392,2.5543,2.5582,2.5504,2.5751,2.698,3.0085,0.0,3.4281,3.9827,4.2799,4.5327,4.7798,0.0,0.0,5.0721,5.0644,5.0683,5.0819,5.0898,5.1074,5.139,5.1406,5.1357,5.1279,4.9731,4.8873,4.8795,4.7143,4.6317,4.6313,4.6169,4.5624,4.4748,4.389,4.2994,4.2143,4.1337,4.1031,0.0,4.1032,4.1032,4.1101,4.1089,4.1091,4.1091,4.1109,4.1103,4.1091,0.0,0.0,0.0,0.0,0.0,0.0,2.0276,2.0269,2.0288,2.0248,2.0274,2.0271,2.0244,2.0241,2.0241,2.0233,0.0,0.0,0.0,0.0,0.0,0.0,0.0,0.0,0.0,0.0,0.0,2.2053,2.1464,0.0,0.0,0.0,0.0,0.0,0.0,0.0,0.0,0.0,0.0,0.0,0.0,0.0,0.0,0.0,0.0,0.0,0.0,0.0,0.0,0.0,0.0,0.0,2.7135,3.1435,0.0,0.0,4.597,4.9606,5.2837,5.4684,5.5088,5.2549,4.8586,4.3849,3.8189,0.0,2.9407,2.6243,2.5601,2.5601,2.5601,2.5601,2.6036,2.7372,0.0,0.0,3.4831,3.8389,4.1932,4.5445,4.7797,0.0,0.0,0.0,5.0664,5.0786,5.0797,5.0893,5.1142,5.1206,5.1023,5.0628,4.9933,4.9081,4.8041,4.7326,4.6714,4.6196,4.6189,4.574,4.4871,4.4004,4.3113,4.2245,4.139,4.1011,0.0,4.1004,4.1015,4.1035,4.1032,4.1048,4.1047,4.1035,4.1046,4.1042,0.0,0.0,0.0,0.0,0.0,2.0376,2.0308,2.0291,2.0269,2.0208,2.0237,2.0248,2.0218,2.0197,2.0186,2.0178,2.0162,0.0,0.0,0.0,0.0,0.0,0.0,0.0,0.0,0.0,2.0793,2.2439,2.1727,2.2511,0.0,0.0,0.0,0.0,0.0,0.0,0.0,0.0,0.0,0.0,0.0,0.0,0.0,0.0,0.0,0.0,0.0,0.0,0.0,0.0,0.0,0.0,0.0,0.0,0.0,0.0,4.1546,4.5817,4.9548,5.2356,5.3664,5.1356,4.6951,4.2021,0.0,0.0,2.8274,2.6068,2.5601,2.5601,2.5601,2.5601,2.5601,0.0,0.0,2.8993,3.1544,3.5071,3.8768,0.0,0.0,4.6775,0.0,5.0067,5.0644,5.0736,5.0663,5.0715,5.0889,5.094,5.0778,5.0416,5.0155,4.9434,4.8241,4.7727,4.7163,4.6585,4.6325,4.574,4.4864,4.3989,4.3116,4.2213,4.1356,4.0968,0.0,4.098,4.0996,4.098,4.0988,4.099,4.097,4.0996,4.0996,4.1014,0.0,0.0,0.0,0.0,0.0,0.0,2.03,2.0295,2.0276,2.0205,2.0211,2.0193,2.0208,2.0197,2.0169,2.0112,2.0098,0.0,0.0,0.0,0.0,0.0,0.0,0.0,0.0,0.0,2.0762,2.2303,2.2303,2.3019,2.4412,2.4393,2.3897,0.0,0.0,0.0,0.0,0.0,0.0,0.0,0.0,0.0,0.0,0.0,0.0,0.0,0.0,0.0,0.0,0.0,0.0,0.0,0.0,0.0,0.0,0.0,3.5295,4.1123,4.3701,4.749,5.0317,4.8586,4.4316,3.9672,0.0,3.167,2.7558,2.5932,2.5601,2.5601,2.5601,2.5601,2.5601,2.5601,2.7013,0.0,3.1534,3.412,3.6654,0.0,0.0,4.2005,4.542,4.8683,5.0603,5.0603,5.0478,0.0,5.0701,5.0644,5.0764,5.1092,5.0242,4.9858,4.9976,4.8265,4.7428,4.7482,4.661,4.5737,4.4861,4.4,4.3089,4.2157,4.1276,4.0906,0.0,4.0974,4.0959,4.0911,4.098,4.0967,4.0904,4.0982,4.1006,4.1009,0.0,0.0,0.0,0.0,0.0,0.0,2.0295,2.0306,2.025,2.0148,2.0211,2.0241,2.0135,2.0135,2.0116,2.0097,2.0059,0.0,0.0,0.0,0.0,0.0,0.0,0.0,0.0,0.0,2.0684,2.2243,2.2144,2.2896,2.4394,2.4303,2.3805,2.3052,2.3841,0.0,0.0,0.0,0.0,0.0,0.0,0.0,0.0,0.0,0.0,0.0,0.0,0.0,0.0,0.0,0.0,0.0,0.0,0.0,0.0,0.0,0.0,0.0,3.8257,4.1373,4.3316,4.1623,3.8238,3.4745,3.2604,2.909,2.6173,2.5706,2.5601,2.5601,2.5601,2.5601,2.5795,2.6398,2.6922,0.0,0.0,0.0,0.0,3.9835,4.4537,4.7912,0.0,0.0,5.0521,5.0521,5.0412,5.0371,5.0481,5.0396,5.0509,5.0879,5.0627,5.0274,4.9877,4.8739,4.7942,4.7482,4.6617,4.5733,4.4861,4.4,4.3089,4.2157,4.1286,4.0897,4.0906,4.0913,4.0921,4.091,4.0926,4.0926,4.0906,4.0929,4.0922,4.0933,0.0,0.0,0.0,0.0,0.0,0.0,2.0308,2.0299,2.0262,2.0145,2.0201,2.0193,2.0108,2.0088,2.0088,2.005,2.0021,0.0,0.0,0.0,0.0,0.0,0.0,0.0,0.0,1.9911,2.0615,2.2125,2.2036,2.2799,2.4321,2.4228,2.3768,2.3052,2.3841,2.3749,0.0,0.0,0.0,0.0,0.0,0.0,2.4479,0.0,0.0,0.0,0.0,0.0,0.0,0.0,0.0,0.0,0.0,0.0,0.0,0.0,2.4947,2.914,0.0,3.593,3.795,3.7238,3.4487,0.0,0.0,2.7902,2.5507,2.5551,2.5564,2.557,2.5595,2.557,2.5744,2.632,2.6929,0.0,0.0,0.0,0.0,3.9725,0.0,0.0,0.0,4.9815,5.0542,5.0542,5.0393,5.0325,5.0348,5.0231,5.0134,5.0086,5.045,5.0474,5.0104,4.8684,4.7764,4.7329,4.5905,4.4744,4.3864,4.333,4.2557,4.1646,4.1121,4.0888,0.0,4.0898,4.0888,4.0858,4.0888,4.0867,4.0856,4.0897,4.0876,4.0876,0.0,0.0,0.0,0.0,0.0,0.0,0.0,2.0295,2.0276,2.0192,2.0137,2.0108,2.0088,2.0088,2.0069,2.0012,2.0022,0.0,0.0,0.0,0.0,0.0,0.0,0.0,1.9991,1.9922,2.0577,2.2009,2.2009,2.2765,2.419,2.419,2.3768,2.3052,2.3841,2.3786,2.3144,2.3878,2.419,2.4209,2.434,2.4303,0.0,0.0,0.0,0.0,0.0,0.0,0.0,0.0,0.0,0.0,0.0,0.0,0.0,0.0,0.0,0.0,0.0,3.1064,3.3757,3.4584,3.2378,0.0,0.0,0.0,0.0,2.5505,2.5492,2.5538,2.5667,2.5628,2.5654,2.5822,2.7174,0.0,0.0,3.3267,0.0,0.0,4.3435,0.0,4.5719,4.8644,5.0603,5.0603,5.0412,5.0302,5.0302,5.0182,4.9746,4.8928,4.9813,5.0334,5.0408,4.8121,4.6971,4.6965,4.4656,4.3071,4.2179,4.2179,4.1675,0.0,4.0869,4.0858,4.0812,4.0868,4.0858,4.08,4.0876,4.0846,4.08,4.0876,4.0856,4.0807,0.0,0.0,0.0,0.0,0.0,0.0,0.0,0.0,0.0,0.0,2.0144,2.0155,2.0108,2.0088,2.0088,0.0,0.0,0.0,0.0,0.0,0.0,0.0,0.0,0.0,1.9911,1.9849,2.053,2.1996,2.1996,2.2748,2.419,2.419,2.3768,2.3052,2.3841,2.4098,2.3933,2.4116,2.419,2.419,2.4228,2.4228,0.0,0.0,0.0,0.0,2.516,2.5293,0.0,0.0,0.0,0.0,0.0,0.0,0.0,0.0,2.2485,2.3024,2.4005,0.0,2.7448,2.7648,2.7091,2.6515,0.0,0.0,0.0,0.0,0.0,2.5681,2.6328,2.6436,2.6862,2.8216,0.0,0.0,3.3021,0.0,0.0,4.3025,4.6912,4.874,4.6797,4.899,5.0521,5.0521,5.0371,5.0302,5.0302,5.0231,4.9801,4.9001,4.9153,4.9025,4.8548,4.6646,4.5772,4.5843,4.4032,4.2718,4.1966,4.1966,4.1574,4.0888,4.0898,4.0888,4.0867,4.0848,4.0818,4.0796,4.0823,4.0812,4.08,4.0827,4.0784,4.072,0.0,0.0,0.0,0.0,0.0,0.0,0.0,0.0,0.0,0.0,2.0136,2.0136,2.005,2.0069,2.0088,0.0,0.0,0.0,0.0,0.0,0.0,0.0,0.0,1.9982,1.9949,1.9856,2.0517,2.1996,2.1996,2.2767,2.419,2.419,2.3969,2.3566,2.4006,2.419,2.419,2.419,2.419,2.419,2.419,0.0,0.0,0.0,0.0,0.0,2.5138,2.5043,0.0,2.4678,2.4418,2.411,0.0,0.0,0.0,0.0,2.2793,2.2889,2.3302,2.4062,2.4832,2.5207,2.5303,2.5313,2.5341,0.0,0.0,0.0,0.0,2.5603,2.6064,2.695,2.7738,0.0,3.0274,0.0,0.0,0.0,4.2585,4.4124,4.7067,4.8875,0.0,4.9757,5.05,5.05,5.0348,5.0236,5.0236,4.9844,4.9224,4.8338,4.7914,4.7715,4.772,4.6105,4.5304,4.5341,4.372,4.2549,4.1817,4.1817,4.1382,4.063,4.0742,4.0761,4.0725,4.0815,4.0826,4.0804,4.08,4.0808,4.0796,4.0796,4.0771,4.0746,0.0,0.0,0.0,0.0,0.0,0.0,0.0,0.0,0.0,0.0,0.0,0.0,0.0,0.0,0.0,0.0,0.0,0.0,0.0,0.0,0.0,0.0,0.0,2.0058,2.0172,2.0056,2.0736,2.2213,2.2197,2.2878,2.4209,2.419,2.417,2.419,2.4208,2.419,2.419,2.419,2.419,2.419,2.4228,0.0,0.0,0.0,0.0,0.0,0.0,0.0,0.0,2.4582,2.4447,2.4072,2.3937,0.0,0.0,0.0,0.0,0.0,2.3937,2.4428,2.4869,2.5226,2.5303,2.5303,2.5303,0.0,0.0,0.0,0.0,0.0,0.0,2.7497,0.0,0.0,0.0,0.0,3.8326,3.9684,4.143,4.4,4.6071,0.0,4.9756,5.0114,5.0281,5.0396,5.0054,4.9907,4.9997,4.9186,4.8275,4.7371,4.6554,4.6383,4.6928,4.5707,4.5025,4.4944,4.3369,4.2272,4.1615,4.15,4.1023,4.0315,4.0521,0.0,4.0462,4.0713,4.0757,4.0707,4.0707,4.0713,4.072,4.0707,4.0694,4.0687,0.0,0.0,0.0,0.0,0.0,0.0,0.0,0.0,0.0,0.0,0.0,0.0,0.0,0.0,0.0,0.0,0.0,0.0,0.0,0.0,0.0,2.0009,1.9938,2.0259,2.0989,2.0947,2.1661,2.3188,2.3132,2.3501,2.4284,2.4171,2.4132,2.4113,2.417,2.419,2.419,2.419,2.419,2.4209,2.4321,0.0,0.0,0.0,0.0,0.0,0.0,0.0,0.0,2.2543,2.2985,2.3975,2.3225,0.0,0.0,0.0,0.0,0.0,2.4245,2.601,2.7559,2.5742,2.5303,2.5303,0.0,0.0,0.0,0.0,0.0,0.0,0.0,2.8568,2.8809,0.0,0.0,3.8137,0.0,0.0,4.5457,4.4499,0.0,4.8416,4.6649,4.7985,4.9264,4.9949,4.8853,4.8461,4.9162,4.8376,4.7472,4.6606,4.575,4.4981,4.4364,4.4075,4.3919,4.381,4.217,4.1369,4.1342,4.0597,4.029,4.0293,0.0,4.0264,4.0247,4.0283,4.0302,4.0285,4.0285,4.0304,4.0286,4.0285,4.0269,4.0232,0.0,0.0,0.0,0.0,0.0,0.0,0.0,0.0,0.0,0.0,0.0,0.0,0.0,0.0,0.0,0.0,0.0,0.0,0.0,0.0,0.0,2.0584,2.057,2.0733,2.1142,2.1073,2.1821,2.3397,2.3381,2.368,2.4303,2.4171,2.4094,2.4094,2.4113,2.4151,2.4151,2.4266,2.4284,2.4266,0.0,0.0,0.0,0.0,0.0,0.0,0.0,0.0,0.0,0.0,2.2427,2.2716,2.2774,0.0,0.0,0.0,0.0,0.0,2.4736,2.5779,2.6809,2.656,2.7393,2.8164,0.0,0.0,0.0,0.0,0.0,0.0,0.0,0.0,3.29,3.7341,0.0,3.8339,4.1538,4.214,4.2636,0.0,0.0,4.6213,4.6327,4.7219,4.787,4.8154,4.7613,4.7394,4.7672,4.6651,4.6032,4.6076,4.4986,4.4174,4.3701,4.3658,4.3388,4.291,4.2087,4.1487,4.1127,4.0726,4.0333,3.9982,0.0,4.0082,4.0062,4.0157,4.0194,4.0194,4.0158,4.0177,4.0196,4.0158,4.0062,3.9945,0.0,0.0,0.0,0.0,0.0,0.0,0.0,0.0,0.0,0.0,0.0,0.0,0.0,0.0,0.0,0.0,0.0,0.0,0.0,0.0,2.0221,2.0783,2.0973,2.1255,2.1651,2.1625,2.2304,2.3733,2.3724,2.3913,2.4284,2.4209,2.4152,2.4114,2.4152,2.4171,2.4172,2.4321,2.4357,2.4338,0.0,0.0,0.0,0.0,0.0,0.0,0.0,0.0,0.0,0.0,0.0,0.0,0.0,0.0,0.0,2.4129,2.4379,2.4524,2.5139,2.5695,2.6309,2.726,0.0,0.0,0.0,0.0,0.0,0.0,0.0,0.0,0.0,3.3051,0.0,4.0672,3.9343,3.8889,4.2183,4.0932,4.0726,4.3493,4.3887,4.4636,4.6491,4.6588,4.6569,4.6618,4.633,4.6218,4.6307,4.5134,4.472,4.5293,4.395,4.3171,4.3024,4.2718,4.2473,4.23,4.2019,4.1599,4.1019,4.0806,4.0325,3.9717,3.9851,3.9876,3.9835,4.0002,4.0043,4.0023,4.0001,3.9981,4.004,3.9979,3.988,3.9762,0.0,0.0,0.0,0.0,0.0,0.0,0.0,0.0,0.0,0.0,0.0,0.0,0.0,0.0,0.0,0.0,0.0,0.0,0.0,0.0,1.9926,1.9976,2.0646,2.173,2.3281,2.338,2.3837,2.4697,2.4697,2.4575,2.4284,2.4339,2.4321,2.4192,2.4266,2.4321,2.4372,2.4389,2.4408,2.4407,2.4666,0.0,0.0,0.0,0.0,0.0,0.0,0.0,0.0,0.0,0.0,0.0,0.0,0.0,2.4168,2.4986,2.5207,2.5226,2.5284,2.6847,2.8308,2.7657,2.6549,0.0,0.0,0.0,0.0,3.3398,0.0,0.0,0.0,3.4862,3.589,3.7044,3.8782,4.1026,4.4078,0.0,4.4595,4.557,4.5734,4.5789,4.5973,4.5463,4.5514,4.6341,4.5102,4.4621,4.5436,4.4591,4.4004,4.3942,4.234,4.1456,4.1385,4.0123,4.0446,4.2281,4.1472,4.1076,4.1071,4.0198,3.975,3.9693,3.965,3.9626,3.9626,3.965,3.9602,3.9552,3.9626,3.9602,3.9552,3.9527,3.9575,3.9622,0.0,0.0,0.0,0.0,0.0,0.0,0.0,0.0,0.0,0.0,0.0,0.0,0.0,0.0,0.0,0.0,0.0,0.0,0.0,1.9939,2.0145,2.0558,2.0897,2.1832,2.346,2.3521,2.395,2.4798,2.4676,2.4613,2.4615,2.4429,2.4375,2.4389,2.4373,2.4425,2.4543,2.461,2.4657,2.4666,2.4934,2.5013,0.0,0.0,0.0,0.0,0.0,0.0,0.0,0.0,2.0441,2.0815,2.1139,2.2197,2.3351,2.3658,2.4485,2.5303,2.5303,2.6599,2.7875,2.7523,0.0,0.0,0.0,0.0,3.2988,3.4828,3.5656,0.0,0.0,0.0,3.8958,3.8755,4.0708,4.2824,4.447,4.4251,4.4198,4.4986,4.4674,4.4308,4.4218,4.4138,4.4152,4.4325,4.3842,4.3637,4.3828,4.3229,4.3092,4.3557,4.2081,4.1292,4.1256,4.0189,3.9787,4.0067,4.0108,4.0145,4.015,3.9801,3.9645,3.9645,3.962,3.9602,3.9602,3.9602,3.9596,3.9571,3.9546,3.9451,3.9309,3.9309,3.929,3.9227,0.0,0.0,0.0,0.0,0.0,0.0,0.0,0.0,0.0,0.0,0.0,0.0,0.0,0.0,0.0,0.0,0.0,0.0,1.9895,1.992,2.0145,2.0596,2.0897,2.1588,2.2727,2.3263,2.395,2.4798,2.4673,2.4707,2.4836,2.4596,2.4526,2.4586,2.4572,2.462,2.4731,2.4798,2.4827,2.4847,2.5032,2.4941,0.0,0.0,0.0,0.0,0.0,0.0,0.0,0.0,2.0222,2.0353,2.0919,2.187,2.2889,2.3428,2.4735,2.5987,2.5987,2.6721,2.758,0.0,0.0,0.0,0.0,0.0,3.4903,3.7604,3.8172,0.0,0.0,0.0,0.0,0.0,4.1952,4.3664,4.425,4.3794,4.3595,4.4163,4.3742,4.334,4.3196,4.3322,4.3305,4.3123,4.3105,4.305,4.2994,4.2632,4.2665,4.3195,4.2032,4.1222,4.0921,4.0143,3.9318,3.8517,3.9055,3.9309,3.9335,3.9432,3.9458,3.9458,3.9577,3.962,3.9602,3.9602,3.9645,3.962,3.952,3.9399,3.9256,3.9229,3.9129,3.9036,0.0,0.0,0.0,0.0,0.0,0.0,0.0,0.0,0.0,0.0,0.0,0.0,0.0,0.0,0.0,0.0,0.0,0.0,1.9901,1.9845,1.9807,1.9807,2.0558,2.1016,2.1092,2.2739,2.4002,2.4806,2.4875,2.4898,2.4898,2.4898,2.487,2.4804,2.4874,2.4947,2.4993,2.4926,2.4893,2.4902,2.4902,2.4455,2.3797,0.0,0.0,0.0,0.0,0.0,0.0,0.0,2.0197,2.0512,2.2246,2.2793,2.312,2.4812,2.6324,2.7466,2.7466,2.7447,2.7759,0.0,0.0,0.0,3.5299,3.5305,3.5959,4.2187,0.0,3.8902,3.8921,0.0,0.0,3.9974,4.1967,4.3411,4.3497,4.3446,4.3394,4.3394,4.3394,4.334,4.3214,4.3123,4.3141,4.3196,4.2995,4.2938,4.3104,4.2994,4.2862,4.2783,4.2008,4.1121,4.0103,3.9642,3.8964,3.8119,3.8442,3.864,3.87,3.9036,3.9165,3.9129,3.9508,3.9669,3.9602,3.9669,3.9693,3.9669,3.9469,3.9391,3.9373,3.9256,3.9156,3.9073,0.0,0.0,0.0,0.0,0.0,0.0,0.0,0.0,0.0,0.0,0.0,0.0,0.0,0.0,0.0,0.0,0.0,0.0,1.9826,1.9807,1.9807,1.9807,2.0032,2.0427,2.1016,2.2752,2.4104,2.4945,2.4915,2.4942,2.5032,2.4942,2.4949,2.5075,2.5038,2.5075,2.5145,2.5068,2.5068,2.5115,2.5157,2.4681,2.3936,0.0,0.0,0.0,0.0,0.0,0.0,0.0,0.0,0.0,2.1534,2.2312,2.3024,2.412,2.5137,2.5884,2.5884,2.7342,0.0,2.8815,0.0,0.0,0.0,3.6118,0.0,0.0,4.0738,3.9789,3.9639,0.0,0.0,4.0092,4.1886,4.3429,4.3411,4.3322,4.3233,4.3215,4.3178,4.3178,4.3123,4.3142,4.316,4.3123,4.3086,4.3012,4.2938,4.2938,4.29,4.2862,4.2027,4.1484,4.1157,3.9733,3.8942,3.8672,3.8132,3.815,3.864,3.873,3.8778,3.8778,3.911,3.929,3.9343,3.9602,3.9464,3.9127,3.9008,3.8807,3.8579,3.87,3.8807,3.8807,0.0,0.0,0.0,0.0,0.0,0.0,0.0,0.0,0.0,0.0,0.0,0.0,0.0,0.0,0.0,0.0,0.0,0.0,0.0,1.9807,1.9807,1.9807,1.9807,2.0358,2.1538,2.3013,2.4189,2.5032,2.4994,2.5031,2.5149,2.5068,2.5072,2.5209,2.5187,2.5209,2.5241,2.5168,2.5149,2.5192,2.5231,2.4743,2.3966,0.0,0.0,0.0,0.0,0.0,0.0,0.0,0.0,0.0,2.163,2.237,2.3149,2.4924,2.5715,2.6249,2.746,2.8555,0.0,3.0793,3.2553,3.471,3.7477,0.0,0.0,0.0,0.0,4.1061,4.1244,4.1748,0.0,4.1376,4.2266,4.3013,4.3032,4.2957,4.2844,4.2842,4.2974,4.294,4.2576,4.2596,4.2377,4.1809,4.2003,4.2039,4.1659,4.2235,4.2528,4.2429,4.2229,4.1937,4.1593,4.0507,3.9605,3.8885,3.8383,3.8151,3.8216,3.836,3.8423,3.841,3.8748,3.8923,3.899,3.9192,3.9091,3.8799,3.8651,3.8468,3.8245,3.836,3.8442,3.8473,0.0,0.0,0.0,0.0,0.0,0.0,0.0,0.0,0.0,0.0,0.0,0.0,0.0,0.0,0.0,0.0,0.0,0.0,0.0,0.0,1.9807,1.9807,1.9882,2.0659,2.2262,2.3274,2.419,2.4998,2.5087,2.516,2.5198,2.5201,2.5261,2.5337,2.5302,2.5293,2.5292,2.5163,2.5048,2.4982,2.4996,2.4566,2.3813,2.3083,0.0,0.0,0.0,0.0,0.0,0.0,0.0,0.0,2.2274,2.2851,2.3496,2.6441,2.7271,2.7821,3.0567,0.0,0.0,3.4026,3.4723,0.0,3.826,4.1185,4.3243,4.3191,0.0,4.2534,4.3266,4.2594,4.2231,4.3159,4.2623,4.2163,4.2279,4.2181,4.2123,4.2083,4.2492,4.2392,4.152,4.143,4.0955,3.9722,4.0246,4.037,3.9753,4.1067,4.177,4.1627,4.2332,4.2386,4.1569,4.1535,4.065,3.8956,3.8921,3.8437,3.7613,3.7982,3.8132,3.8135,3.8423,3.8609,3.87,3.8609,3.8609,3.8591,3.8342,3.8194,3.818,3.8083,3.8068,3.805,0.0,0.0,0.0,0.0,0.0,0.0,0.0,0.0,0.0,0.0,0.0,0.0,0.0,0.0,0.0,0.0,0.0,0.0,0.0,0.0,1.9794,1.9807,2.0471,2.1022,2.1445,2.2388,2.329,2.4156,2.4892,2.525,2.5201,2.5253,2.5639,2.6273,2.5591,2.5303,2.5264,2.4601,2.3928,2.3371,2.4063,2.3813,2.3034,2.2862,2.2679,0.0,0.0,0.0,0.0,0.0,0.0,0.0,2.2466,2.3283,2.4072,2.5324,2.6485,2.7497,2.8081,3.0104,0.0,0.0,3.6454,3.8958,4.0221,4.1031,4.1525,4.1437,4.2351,4.3193,4.3358,4.2322,4.1697,4.2495,4.1074,4.01,4.07,4.0259,3.9847,3.9817,3.99,3.9829,3.9552,3.9493,3.9381,3.908,3.9221,3.9501,3.9913,4.0246,4.0674,4.1227,4.1402,4.142,4.1218,4.0996,4.0316,3.9204,3.9004,3.8437,3.7613,3.7685,3.7862,3.8101,3.8231,3.8405,3.8609,3.8573,3.8305,3.798,3.7825,3.756,3.7319,3.7542,3.7667,3.7703,0.0,0.0,0.0,0.0,0.0,0.0,0.0,0.0,0.0,0.0,0.0,0.0,0.0,0.0,0.0,0.0,0.0,0.0,0.0,0.0,1.9806,1.9813,2.0701,2.1195,2.1206,2.2129,2.3042,2.3908,2.4383,2.4818,2.5192,2.5264,2.5534,2.5967,2.5495,2.5101,2.4697,2.4283,2.361,2.287,2.3744,2.3841,2.3417,2.3419,2.3149,2.2677,2.1765,0.0,0.0,0.0,0.0,0.0,0.0,0.0,2.439,2.5865,2.6256,2.6658,2.882,0.0,0.0,3.4437,0.0,4.001,4.04,4.0738,4.0979,4.0857,4.1517,4.2049,4.1851,4.1119,4.0631,4.0931,3.9722,3.8903,3.932,3.9068,3.8782,3.8668,3.8928,3.8916,3.8388,3.8353,3.8069,3.7404,3.7671,3.7895,3.7929,3.8618,3.934,3.9991,4.0356,4.0722,4.1087,4.0972,4.0455,3.9555,3.9239,3.859,3.7577,3.7577,3.7685,3.788,3.7809,3.7929,3.8117,3.798,3.7808,3.7596,3.7432,3.7226,3.7087,3.7206,3.7264,3.7301,0.0,0.0,0.0,0.0,0.0,0.0,0.0,0.0,0.0,0.0,0.0,0.0,0.0,0.0,0.0,0.0,0.0,0.0,0.0,0.0,0.0,1.9811,2.0778,2.1278,2.1225,2.1977,2.289,2.3896,2.3758,0.0,0.0,0.0,2.5514,2.5514,2.5514,2.4986,2.4091,2.3937,2.3302,2.2447,2.3302,2.3744,2.3879,2.3879,2.361,2.3197,2.2889,2.2427,2.2043,2.2601,0.0,0.0,0.0,0.0,2.4668,2.6549,2.6268,2.6147,2.992,0.0,3.0859,3.522,3.79,0.0,3.9294,3.9928,4.0489,4.0224,4.0379,4.0474,4.0163,3.9658,3.931,3.9212,3.8338,3.7757,3.8003,3.79,3.7769,3.766,3.8112,3.8113,3.7266,3.7214,3.6741,3.5633,3.6129,3.6248,3.5757,3.7089,3.8103,3.8663,3.9451,4.0187,4.0763,4.0903,4.0493,3.9629,3.918,3.8443,3.7569,3.752,3.754,3.7577,3.7503,3.7503,3.7577,3.7372,3.7334,3.7374,3.7185,3.7108,3.7108,3.7009,3.6987,3.6913,0.0,0.0,0.0,0.0,0.0,0.0,0.0,0.0,0.0,0.0,0.0,0.0,0.0,0.0,0.0,0.0,0.0,0.0,0.0,0.0,0.0,1.9889,2.0801,2.1301,2.1284,2.1481,2.2333,2.3888,0.0,0.0,0.0,0.0,0.0,2.6428,0.0,2.5563,2.4052,2.3302,2.2062,2.0696,2.1523,2.2293,2.2966,2.2966,2.3793,2.4793,2.3312,2.3206,2.3667,2.3032,2.3302,0.0,0.0,0.0,2.5197,2.5431,2.6263,2.7184,0.0,0.0,3.2964,0.0,3.7055,3.7606,0.0,0.0,3.8606,0.0,3.8957,4.0163,4.0125,3.8853,3.794,3.8397,3.6871,3.5887,3.643,3.5914,3.5559,3.5512,3.5605,3.5555,3.5298,3.5282,3.5202,3.5024,3.5108,3.5407,3.5956,3.6787,3.7536,3.827,3.897,3.9456,3.9556,4.0053,3.9844,3.8918,3.8002,3.7491,3.7326,3.7079,3.7206,3.7577,3.7577,3.7577,3.7577,3.7372,3.7334,3.7374,3.7126,3.7048,3.7108,3.7009,3.6948,3.6684,0.0,0.0,0.0,0.0,0.0,0.0,0.0,0.0,0.0,0.0,0.0,0.0,0.0,0.0,0.0,0.0,0.0,0.0,0.0,0.0,0.0,1.99,2.0323,2.0565,2.0568,2.1088,2.1941,2.3165,0.0,0.0,0.0,2.7091,2.7332,0.0,0.0,0.0,0.0,2.387,2.2543,2.1043,2.1889,2.2921,2.3987,2.414,2.4877,2.5662,2.4581,2.4159,2.411,2.4178,2.4466,2.4774,2.4774,0.0,0.0,0.0,2.5673,0.0,2.8048,3.0581,3.3234,0.0,3.6193,3.6725,3.6329,0.0,3.7648,3.6964,3.7632,3.8351,3.8312,3.7452,3.6715,3.6729,3.5862,3.5268,3.5538,3.5305,3.5088,3.4994,3.5041,3.5041,3.4899,3.4899,3.4899,3.4899,3.4899,3.5032,3.5363,3.5694,3.6208,3.6953,3.7284,3.7847,3.8676,3.8955,3.8807,3.8229,3.7806,3.724,3.6603,3.6488,3.6741,3.7206,3.7411,3.7503,3.7466,3.7334,3.7334,3.7317,3.7126,3.6856,3.662,3.6811,3.6273,3.5437,0.0,0.0,0.0,0.0,0.0,0.0,0.0,0.0,0.0,0.0,0.0,0.0,0.0,0.0,0.0,0.0,0.0,0.0,0.0,0.0,0.0,1.99,2.0161,2.0327,2.0359,2.1192,2.2074,0.0,0.0,0.0,2.661,2.7486,2.8005,0.0,2.8198,0.0,0.0,0.0,0.0,0.0,0.0,2.411,0.0,0.0,2.6479,0.0,0.0,0.0,0.0,2.5216,2.5303,2.5303,2.5303,2.5303,0.0,0.0,0.0,0.0,0.0,0.0,3.1774,3.3666,3.4752,3.5404,0.0,0.0,3.6863,0.0,3.6381,3.6644,3.6444,3.617,3.5827,3.5475,3.5245,3.5105,3.5041,3.5041,3.4994,3.4899,3.4994,3.4994,3.4899,3.4899,3.4899,3.4899,3.4899,3.4899,3.4899,3.5081,3.5429,3.5976,3.6191,3.682,3.793,3.793,3.7936,3.7883,3.7496,3.6865,3.6021,3.5922,3.6105,3.6481,3.686,3.7091,3.7206,3.6974,3.6974,3.7108,3.6781,3.6399,3.6045,3.6147,3.5488,3.4538,0.0,0.0,0.0,0.0,0.0,0.0,0.0,0.0,0.0,0.0,0.0,0.0,0.0,0.0,1.9938,1.9982,0.0,0.0,0.0,0.0,0.0,1.99,2.0691,0.0,2.1321,2.2123,0.0,0.0,0.0,0.0,2.6628,2.7495,2.8313,2.9044,2.9044,2.8102,2.6486,0.0,0.0,0.0,0.0,0.0,0.0,0.0,0.0,0.0,0.0,0.0,0.0,0.0,2.5303,2.5303,2.5303,2.5303,2.5293,0.0,0.0,0.0,0.0,2.7305,0.0,3.1016,3.2293,0.0,0.0,0.0,3.5985,3.47,3.5224,3.5779,3.5197,3.5341,3.5492,3.5337,3.5198,3.5058,3.4947,3.4899,3.4899,3.4899,3.4899,3.4899,3.4899,3.4899,3.4899,3.4899,3.4899,3.4899,3.4899,3.5562,3.5959,3.6009,3.6688,3.7085,3.7168,3.7168,3.75,3.8129,3.6621,3.5861,3.5811,3.5432,3.5266,3.5311,3.5759,3.6274,3.6706,3.6045,3.6172,3.6649,3.5735,3.5442,3.5442,3.4858,3.4764,3.4775,0.0,0.0,0.0,0.0,0.0,0.0,0.0,0.0,0.0,0.0,0.0,0.0,0.0,1.993,1.9971,2.0012,2.0012,0.0,0.0,0.0,0.0,1.995,2.0796,2.1306,2.1388,2.2786,0.0,0.0,0.0,2.5417,2.6557,2.7465,2.8321,2.9037,2.9071,2.8467,2.7332,2.5909,0.0,0.0,0.0,0.0,0.0,0.0,0.0,0.0,0.0,0.0,0.0,0.0,2.6071,2.5303,2.5303,2.5264,2.5222,2.516,0.0,0.0,0.0,0.0,0.0,2.9582,3.1025,3.2023,3.2217,3.3706,3.4829,3.4008,3.4286,3.4688,3.4686,3.5131,3.5446,3.5198,3.5135,3.5041,3.4899,3.4899,3.4899,3.4899,3.4899,3.4899,3.4899,3.4899,3.4899,3.4899,3.4899,3.4899,3.4899,3.5148,3.5297,3.5297,3.5545,3.5926,3.639,3.687,3.7003,3.6787,3.6208,3.5597,3.4972,3.4838,3.4658,3.4496,3.469,3.5249,3.6028,3.5873,3.5916,3.6028,3.5576,3.5061,3.451,3.4733,3.4039,3.2974,0.0,0.0,0.0,0.0,0.0,0.0,0.0,0.0,0.0,0.0,0.0,0.0,0.0,0.0,2.0399,2.041,2.0164,2.0115,2.0388,2.0365,2.0483,2.0796,2.1639,2.214,2.2199,0.0,0.0,0.0,0.0,0.0,0.0,2.6694,2.7404,2.8157,2.7926,2.8005,0.0,0.0,0.0,2.5081,0.0,0.0,2.8441,0.0,0.0,0.0,0.0,0.0,0.0,0.0,0.0,0.0,0.0,0.0,0.0,0.0,0.0,0.0,2.622,0.0,0.0,0.0,0.0,3.018,3.117,0.0,3.3206,3.3239,3.3473,3.3653,3.3685,3.4257,3.4858,3.5161,3.5198,3.5152,3.5041,3.5041,3.4994,3.4994,3.4947,3.4947,3.4899,3.4899,3.4899,3.4899,3.4899,3.4899,3.4899,3.4899,3.4899,3.4899,3.4899,3.5247,3.5992,3.6241,3.6241,3.6009,3.5646,3.5169,3.4497,3.4399,3.425,3.4101,3.4101,3.4642,3.5476,3.5357,3.5357,3.5307,3.4562,3.4088,3.3754,3.3646,3.3001,3.23,0.0,0.0,0.0,0.0,0.0,0.0,0.0,0.0,0.0,0.0,0.0,0.0,0.0,0.0,0.0,2.1244,2.0524,2.0418,2.1197,2.1235,2.1594,2.2369,0.0,0.0,0.0,0.0,0.0,0.0,0.0,0.0,0.0,0.0,2.5653,2.6431,2.5667,2.6717,2.8967,0.0,2.7332,2.6743,0.0,2.8804,2.7975,0.0,0.0,0.0,3.0716,3.0453,0.0,2.9701,0.0,0.0,0.0,0.0,0.0,0.0,0.0,0.0,0.0,0.0,0.0,0.0,0.0,0.0,3.054,0.0,3.1099,3.2211,3.2721,3.2796,3.2208,3.2673,3.3674,3.5189,3.535,3.5258,3.5258,3.5291,3.5245,3.5105,3.5088,3.5041,3.4899,3.4899,3.4899,3.4899,3.4899,3.4899,3.4899,3.4899,3.4899,3.4899,3.4899,3.5247,3.5959,3.528,3.528,3.5959,3.5005,3.453,3.453,3.4267,3.4117,3.4133,3.4101,3.4448,3.4941,3.4317,3.435,3.4558,3.266,3.2557,3.3251,3.1535,3.1813,3.2795,0.0,0.0,0.0,0.0,0.0,0.0,2.0012,2.0012,0.0,0.0,0.0,0.0,0.0,0.0,2.2142,2.2135,2.1945,2.1907,2.2123,2.2142,2.2242,2.2448,2.3315,2.3795,2.3866,0.0,0.0,0.0,0.0,0.0,0.0,0.0,0.0,0.0,2.6041,2.664,2.7236,2.639,0.0,2.5887,2.8534,2.9483,0.0,0.0,0.0,0.0,0.0,3.3302,3.2192,0.0,3.0716,2.8787,0.0,0.0,0.0,0.0,0.0,0.0,2.501,0.0,0.0,0.0,0.0,0.0,0.0,0.0,3.0776,3.0765,3.1446,3.2101,3.2212,3.2319,3.2774,3.3794,3.4286,3.4521,3.4521,3.4973,3.5245,3.5105,3.5088,3.5041,3.4899,3.4899,3.4947,0.0,3.4947,3.4947,3.5041,3.4947,3.4899,3.4899,3.4899,3.4998,3.5197,3.5528,3.548,3.5053,3.5333,3.5399,3.5267,3.4594,3.4543,3.5015,3.4378,3.4134,3.4168,3.4034,3.3949,3.3799,3.3264,3.2892,3.2711,3.2632,3.2083,3.1411,0.0,0.0,0.0,0.0,0.0,2.05,2.0501,2.0804,2.1202,0.0,0.0,0.0,0.0,0.0,2.2646,2.2969,2.2684,2.2646,2.2969,2.3007,2.3164,2.3543,2.4037,2.4315,2.4352,0.0,0.0,0.0,0.0,0.0,0.0,0.0,0.0,0.0,0.0,0.0,0.0,0.0,0.0,0.0,2.8768,0.0,0.0,3.3362,3.4442,0.0,0.0,0.0,3.3161,3.3611,3.1936,0.0,0.0,0.0,0.0,0.0,0.0,0.0,0.0,0.0,0.0,0.0,0.0,0.0,2.7624,2.8953,3.0155,0.0,3.1165,3.1547,3.1788,3.1776,3.1888,3.2408,3.2993,3.3614,3.4236,3.4959,3.5367,3.5291,3.5245,3.5198,3.5088,3.5041,3.5088,3.5198,3.5041,3.4994,3.5105,3.4994,3.4947,3.4994,3.4947,3.4899,3.4899,3.5265,3.5217,3.4707,3.5399,3.5481,3.5019,3.4855,3.4821,3.4801,3.4329,3.4,3.3797,3.3899,3.3745,3.3491,3.251,3.2426,3.2772,3.2073,3.1459,3.0843,0.0,0.0,1.9945,2.0039,2.069,2.1223,2.1329,2.2004,2.2527,0.0,0.0,0.0,0.0,0.0,0.0,0.0,2.3196,2.3082,2.3803,2.384,2.4182,2.4972,2.501,2.501,2.501,2.501,2.498,0.0,0.0,0.0,0.0,0.0,0.0,0.0,0.0,0.0,0.0,0.0,0.0,2.5746,2.921,2.9889,0.0,0.0,3.4311,3.2876,3.4909,3.4631,3.3456,3.4428,3.297,0.0,0.0,0.0,0.0,0.0,2.6336,0.0,0.0,0.0,0.0,0.0,0.0,0.0,2.8786,2.8951,2.9228,0.0,3.1053,3.0836,3.076,3.076,3.0755,3.084,3.1551,3.2594,3.415,3.5013,3.5493,3.5475,3.5492,3.5446,3.5291,3.5291,3.5291,3.5337,3.5152,3.4994,3.4883,3.4787,3.4739,3.4883,3.4723,3.4675,3.4675,3.466,3.4709,3.4709,3.5415,3.5313,3.4558,3.5045,3.4862,3.4092,3.3896,3.3678,3.3471,3.3427,3.3443,3.3292,3.1223,3.1554,3.2876,3.0556,3.015,3.0437,0.0,0.0,2.018,2.0826,2.1085,2.1444,2.2142,2.24,2.2741,0.0,0.0,0.0,0.0,0.0,0.0,0.0,2.4598,2.4593,2.4745,2.4763,2.482,2.4991,2.501,2.501,2.501,2.501,2.4669,2.398,0.0,0.0,0.0,0.0,0.0,0.0,0.0,0.0,0.0,0.0,0.0,2.7055,2.9147,0.0,3.073,3.4754,3.6334,3.6482,3.6932,3.6537,3.5544,3.4017,3.2539,3.1191,0.0,0.0,0.0,2.7268,0.0,0.0,0.0,0.0,0.0,0.0,0.0,0.0,2.7094,2.7523,2.7868,0.0,2.8288,2.85,2.8122,2.791,2.8032,2.8698,2.9763,3.1258,3.3322,3.4252,3.4901,3.5424,3.5492,3.5446,3.5291,3.5291,3.5337,3.5446,3.4913,3.4235,3.3614,3.3459,3.3355,3.3407,3.3235,3.3098,3.3098,3.4158,3.4723,3.4739,3.5932,3.6413,3.6284,3.5042,3.4407,3.4203,3.2711,3.2099,3.2028,3.102,3.1278,3.225,3.1974,3.1449,3.0764,2.9768,2.8713,2.7678,0.0,2.0012,2.0259,2.1055,2.1562,2.2129,2.2981,2.3474,0.0,0.0,0.0,0.0,0.0,0.0,0.0,0.0,0.0,0.0,0.0,2.5598,2.5427,2.5029,2.501,2.501,2.501,2.501,2.4801,2.4352,0.0,0.0,0.0,0.0,0.0,0.0,0.0,0.0,0.0,0.0,2.5484,2.642,2.9532,0.0,3.2725,3.6269,3.7548,3.7503,3.7857,3.7514,3.6675,3.5116,3.3543,0.0,3.2312,3.1567,3.0402,0.0,2.9078,2.9114,0.0,0.0,0.0,2.7806,0.0,0.0,0.0,2.8009,2.7926,2.7865,2.7783,2.7648,2.7365,2.7147,2.7261,2.8083,2.8949,2.9939,3.1038,3.2797,3.4057,3.4401,3.4452,3.4408,3.4364,3.4063,3.3922,3.3922,3.3925,3.37,3.3251,3.3093,3.2971,3.2955,3.2795,3.2843,3.3185,3.3803,3.4274,3.4596,3.5625,3.5918,3.5504,3.4669,3.4043,3.3462,3.23,3.1649,3.1405,3.1004,3.0834,3.0867,3.0787,3.0674,3.0351,2.884,2.7569,2.647,2.0012,0.0,2.0486,2.1297,2.2166,2.3007,2.3815,2.4555,0.0,0.0,0.0,0.0,0.0,0.0,0.0,0.0,0.0,0.0,0.0,2.662,2.6336,2.5674,2.5532,2.547,2.5409,2.53,2.5086,2.4763,0.0,0.0,0.0,0.0,0.0,0.0,0.0,0.0,0.0,0.0,0.0,2.6412,0.0,3.2247,3.3297,3.6758,3.7647,3.7099,3.7973,3.7668,3.6735,3.5912,3.4531,3.3278,3.4079,3.3401,0.0,0.0,0.0,0.0,0.0,0.0,0.0,0.0,0.0,2.9088,0.0,0.0,0.0,2.8405,2.7678,2.6912,0.0,0.0,0.0,2.7226,0.0,0.0,0.0,3.0514,0.0,3.2713,3.3052,3.3152,3.3018,3.2536,3.2215,3.2244,3.2704,3.295,3.2864,3.2718,3.261,3.2579,3.2415,3.2613,3.329,3.3264,3.3694,3.4583,3.521,3.5076,3.4331,3.4147,3.3545,3.2616,3.1957,3.144,3.1146,3.144,3.0836,2.969,2.9457,2.9707,2.9995,2.7672,2.6485,2.5752,2.0012,2.0566,0.0,2.2193,2.3012,2.3858,2.4712,2.4953,0.0,0.0,0.0,0.0,0.0,0.0,0.0,0.0,0.0,0.0,2.8197,0.0,0.0,2.8009,2.7513,2.7131,2.6954,2.6378,2.5338,2.384,2.4523,2.4517,0.0,0.0,0.0,0.0,2.6453,0.0,0.0,0.0,2.8126,0.0,3.1312,3.0684,0.0,3.4186,3.5743,3.5643,3.7095,3.6567,3.5062,0.0,3.4031,3.3586,0.0,3.2176,3.3241,3.0102,0.0,0.0,0.0,0.0,0.0,0.0,2.8994,0.0,0.0,0.0,2.7501,2.7543,0.0,2.4963,0.0,0.0,0.0,0.0,0.0,0.0,2.5998,2.6843,2.8213,3.0243,3.1742,3.2337,3.1676,3.1391,3.137,3.168,3.1479,3.1457,3.1679,3.1467,3.1292,3.1278,3.097,3.1159,3.1728,3.2273,3.3246,3.4651,3.5262,3.5125,3.4358,3.3634,3.2856,3.2004,3.1119,3.0785,3.0848,3.0581,3.008,2.9463,2.9789,2.9108,2.7683,2.5986,2.5001,2.4298,2.0202,2.0653,0.0,2.2351,2.3171,2.3979,2.4864,2.5408,0.0,0.0,0.0,0.0,0.0,0.0,0.0,0.0,0.0,2.9964,0.0,0.0,0.0,2.7935,2.7146,2.6706,2.6613,2.5878,2.5162,2.4447,2.482,2.482,0.0,0.0,0.0,0.0,2.6916,0.0,2.7583,0.0,2.854,0.0,0.0,0.0,0.0,3.4408,3.6279,3.5677,3.5787,3.5994,3.62,0.0,3.4935,0.0,0.0,0.0,0.0,3.1942,0.0,0.0,0.0,0.0,0.0,0.0,0.0,0.0,2.9195,0.0,2.7476,0.0,0.0,0.0,0.0,0.0,0.0,0.0,2.5312,0.0,0.0,0.0,2.7046,2.801,0.0,0.0,2.8962,2.9697,3.0096,2.987,3.0358,3.0658,3.0812,3.0852,3.0955,3.0955,3.0702,3.0872,3.1511,3.2138,3.297,3.4011,3.4624,3.4466,3.3709,3.3366,3.2738,3.1809,3.1055,3.0658,3.0488,3.0009,2.9384,2.8753,2.8967,2.8519,2.7617,2.6259,2.5378,2.4806,2.0876,0.0,0.0,0.0,2.3518,2.427,2.4896,2.5693,0.0,0.0,0.0,0.0,2.8401,2.947,0.0,0.0,3.1456,3.1603,0.0,0.0,2.9908,2.902,2.7626,2.6957,2.7072,2.592,2.5219,2.501,2.501,2.501,0.0,0.0,0.0,0.0,0.0,2.7921,2.9136,0.0,2.9602,2.9549,3.1198,3.1123,3.0474,3.4637,3.5999,3.5677,3.5478,3.6024,3.69,3.6949,3.5878,0.0,3.6743,3.5248,3.293,0.0,0.0,0.0,3.0228,0.0,0.0,0.0,0.0,0.0,0.0,0.0,0.0,0.0,0.0,0.0,0.0,0.0,0.0,0.0,0.0,2.5033,0.0,2.4949,0.0,0.0,0.0,0.0,0.0,2.7981,2.8547,2.8192,2.9139,2.9844,3.0283,3.0484,3.0705,3.0881,3.0702,3.0947,3.1573,3.2179,3.2846,3.347,3.3868,3.3772,3.3177,3.2939,3.2477,3.1823,3.1368,3.0813,3.0359,2.9847,2.9173,2.843,2.8352,2.817,2.7841,2.6608,2.5864,2.5365,2.2238,2.2986,0.0,0.0,0.0,2.4972,2.501,0.0,0.0,0.0,0.0,0.0,0.0,0.0,0.0,0.0,0.0,3.4273,3.2889,0.0,3.2091,3.2691,3.0077,2.8829,2.9302,2.7248,2.5787,2.501,2.501,2.501,0.0,0.0,0.0,0.0,2.6569,2.7655,2.852,2.9956,3.2261,3.4947,3.5021,3.592,3.6857,0.0,3.3784,3.5154,3.6806,0.0,0.0,3.6292,3.6362,0.0,0.0,0.0,0.0,0.0,0.0,0.0,0.0,0.0,0.0,2.9402,0.0,0.0,0.0,0.0,2.8576,0.0,0.0,0.0,0.0,0.0,0.0,0.0,0.0,0.0,0.0,0.0,0.0,0.0,0.0,0.0,0.0,2.6358,2.6778,0.0,2.7735,2.8813,3.0208,3.0186,3.0439,3.1058,3.0762,3.1008,3.1772,3.2256,3.2846,3.347,3.3353,3.3206,3.3163,3.2413,3.1997,3.1982,3.1954,3.1468,3.058,3.0373,2.9688,2.878,2.843,2.8249,2.7947,2.6424,2.5823,2.5548,0.0,0.0,0.0,0.0,0.0,0.0,0.0,2.6967,0.0,0.0,3.1111,0.0,0.0,3.4274,3.4878,0.0,0.0,3.4201,3.3741,3.2571,0.0,3.2218,2.9455,2.818,2.8727,2.6559,2.5275,2.501,2.501,2.501,0.0,0.0,0.0,0.0,0.0,2.8183,0.0,0.0,0.0,0.0,0.0,3.4344,3.4376,0.0,3.575,3.5707,3.6243,3.6608,0.0,3.6814,3.6618,3.6444,3.6806,3.5899,3.4806,3.5321,3.5073,3.4394,0.0,0.0,3.3564,3.1162,0.0,0.0,0.0,0.0,0.0,0.0,0.0,0.0,0.0,0.0,0.0,0.0,0.0,0.0,0.0,0.0,0.0,0.0,0.0,0.0,0.0,0.0,0.0,2.6336,2.7485,2.8697,2.9794,2.9992,3.0467,3.1219,3.1073,3.0998,3.1143,3.174,3.2038,3.2095,3.2985,3.3042,3.2442,3.2709,3.2448,3.1823,3.1268,3.0763,3.0137,2.9555,2.8957,2.843,2.8249,2.8066,2.7842,2.7367,2.7024,2.6812,2.6349,0.0,0.0,0.0,0.0,0.0,0.0,0.0,0.0,0.0,3.2641,0.0,3.5038,0.0,3.643,0.0,3.5734,3.5272,3.4185,3.3208,0.0,3.2273,3.0208,2.9213,0.0,2.7349,2.6065,2.5777,2.5267,2.501,0.0,0.0,0.0,0.0,0.0,2.7994,3.0677,3.1922,3.3524,0.0,0.0,3.5322,0.0,0.0,3.6344,3.4885,0.0,3.6523,3.7283,3.748,3.732,3.7204,3.8149,3.7083,3.5648,3.6758,3.6329,3.5375,3.4835,3.5066,3.4948,3.2602,3.2408,0.0,3.0025,0.0,2.9116,0.0,0.0,0.0,0.0,0.0,0.0,0.0,0.0,0.0,0.0,2.3122,0.0,0.0,0.0,0.0,0.0,0.0,2.5636,2.5956,2.7139,2.8338,2.9451,2.9915,3.051,3.1263,3.1117,3.0955,3.0895,3.1404,3.1602,3.1368,3.255,3.271,3.2127,3.2608,3.2305,3.1417,3.0827,3.0104,2.9258,2.8565,2.8012,2.7471,2.7284,2.7082,2.7002,2.7443,2.731,2.6837,2.7311,0.0,0.0,0.0,2.7588,0.0,0.0,0.0,3.0186,0.0,3.3492,3.4976,3.6731,3.8174,3.8356,3.6796,3.786,3.7371,3.4456,3.4203,0.0,0.0,3.2325,3.1823,3.1658,2.9472,2.7955,2.7198,2.5716,2.501,2.501,0.0,0.0,0.0,2.501,0.0,3.0639,3.1418,3.3956,3.7551,3.8377,3.8634,3.845,3.7753,3.5495,3.301,3.5337,3.6614,3.7345,3.8086,3.8328,3.8328,3.8328,3.8364,3.8415,3.8478,3.851,3.818,3.6758,3.5994,3.5213,3.3579,3.2787,3.2068,0.0,0.0,3.0163,0.0,0.0,0.0,0.0,0.0,0.0,0.0,0.0,0.0,0.0,0.0,2.319,0.0,0.0,0.0,0.0,2.4239,2.4601,2.5864,2.6625,2.7655,0.0,2.9896,3.055,3.1263,3.0999,3.0881,3.1087,3.136,3.1467,3.142,3.2023,3.2263,3.2198,3.2004,3.1468,3.0708,3.0552,2.9518,2.792,2.7511,2.6841,2.6045,2.5673,2.5521,2.5603,2.6756,2.6483,2.5627,2.8049,2.8753,2.9252,0.0,2.879,2.8389,0.0,0.0,0.0,0.0,3.64,3.8198,3.9669,4.0194,4.0015,3.8894,3.8089,0.0,0.0,0.0,0.0,3.5414,3.3165,3.2087,3.2469,2.9231,2.7415,2.7201,2.5712,2.501,2.501,0.0,0.0,0.0,0.0,0.0,3.0602,3.0825,3.3463,3.7551,3.8279,3.7509,3.6054,0.0,3.6058,3.4623,3.6309,3.6632,3.637,3.7094,3.743,3.7507,3.7462,3.7895,3.8415,3.8415,3.8415,3.8291,3.7594,3.7023,3.6218,3.4676,3.3914,3.3254,3.2087,3.172,0.0,0.0,0.0,0.0,0.0,0.0,0.0,0.0,0.0,0.0,0.0,0.0,0.0,2.3951,0.0,0.0,2.3342,2.4627,2.5532,2.5605,2.6305,2.7505,2.9406,2.9212,2.9794,3.1422,3.1292,3.1117,3.1087,3.0997,3.0875,3.0632,3.1233,3.1487,3.1424,3.1219,3.0577,2.9572,2.894,2.7934,2.6812,2.6718,2.6501,2.6308,2.5881,2.5545,2.5358,2.5545,2.5334,2.4921,2.8907,0.0,0.0,2.9888,0.0,0.0,3.0188,3.094,0.0,3.515,3.7137,0.0,4.0373,4.1431,4.1565,4.0343,3.9378,0.0,3.703,0.0,0.0,3.5864,3.484,3.4109,3.3762,3.1388,0.0,2.8165,2.6666,0.0,2.501,0.0,0.0,0.0,0.0,2.6497,2.917,3.1158,3.3707,3.6541,3.7937,3.7717,0.0,3.7028,3.6681,3.6035,3.6856,3.708,3.7062,3.7406,3.757,3.7616,3.7584,3.7944,3.8322,3.8354,3.8336,3.8252,3.7843,3.7305,3.6675,3.5626,3.4996,3.4343,3.3211,3.2902,3.2619,3.1894,3.1298,3.0737,3.0131,0.0,0.0,0.0,0.0,0.0,0.0,0.0,0.0,0.0,2.508,0.0,2.4031,2.4799,2.5534,2.5963,2.6366,2.7106,2.8459,2.8951,2.9681,3.0642,3.101,3.1176,3.119,3.0881,3.0642,3.0522,3.1112,3.1291,3.1194,3.0926,3.027,2.9254,2.8305,2.7139,2.5975,2.5824,2.5615,2.5276,2.4838,2.4576,2.4371,2.4131,2.412,2.4337,2.9633,0.0,0.0,0.0,0.0,0.0,0.0,3.1935,0.0,3.5427,0.0,3.8554,4.0019,4.1827,4.237,4.0994,4.0638,3.941,3.6915,3.7113,3.6875,3.5744,3.6743,3.6662,3.5347,3.4328,3.2442,0.0,0.0,0.0,0.0,0.0,0.0,0.0,0.0,0.0,0.0,3.1881,3.4266,3.531,3.7515,3.8428,3.8387,3.7635,3.7317,3.7285,3.7253,3.7594,3.8077,3.8059,3.8029,3.8029,3.8029,3.805,3.8088,3.8138,3.8104,3.7966,3.7488,3.7044,3.6591,3.6172,3.5783,3.5183,3.421,3.4004,3.3782,3.3054,3.2388,3.2008,3.211,0.0,0.0,0.0,0.0,0.0,0.0,0.0,0.0,0.0,0.0,0.0,2.5514,2.5034,2.5269,2.6498,2.6445,2.6686,2.7344,0.0,2.9766,2.9834,3.0656,3.119,3.1278,3.0866,3.0702,3.0776,3.1058,3.1085,3.0925,3.0502,2.9848,2.8946,2.7859,2.6606,2.5322,2.5004,2.4527,2.3824,2.3446,2.3298,2.3224,2.2852,2.3117,2.3756,2.9468,0.0,0.0,0.0,0.0,3.3107,3.3679,3.5303,3.6675,3.7254,3.9165,4.0525,4.0672,4.0427,4.0124,3.9746,3.9125,0.0,0.0,0.0,0.0,3.7863,3.7516,3.7174,3.6906,3.4348,3.2095,0.0,0.0,0.0,0.0,0.0,0.0,0.0,0.0,0.0,2.9021,3.1956,0.0,3.601,3.7313,3.8068,3.8382,3.8143,3.8089,3.815,3.8056,3.7247,3.634,3.7011,3.7196,3.7196,3.7196,3.734,3.747,3.747,3.7137,3.6711,3.6323,3.613,3.5933,3.556,3.5383,3.527,3.5093,3.5043,3.4852,3.4165,3.3895,3.3347,3.1698,0.0,0.0,0.0,0.0,0.0,0.0,0.0,0.0,0.0,0.0,2.67,0.0,2.6253,2.6326,2.6438,2.6,2.6653,2.8641,0.0,2.9288,0.0,3.1232,3.1292,0.0,3.094,3.0762,3.0762,2.9893,2.9344,2.914,2.8212,2.7207,2.6213,2.6005,2.5348,2.4394,2.4322,2.4043,2.3677,2.3593,2.3372,2.3075,2.3001,2.3001,2.3139,3.035,0.0,0.0,0.0,0.0,0.0,0.0,3.8003,3.8849,3.7287,3.8401,3.9282,3.9203,3.9816,4.0049,3.9631,3.9164,3.8592,3.7985,3.8153,3.8183,3.7977,3.7885,3.7648,3.7296,3.5882,3.357,3.0388,0.0,0.0,0.0,0.0,0.0,0.0,0.0,2.682,0.0,0.0,3.3877,3.4918,3.6559,3.736,3.756,3.736,3.736,3.7415,3.7323,3.6824,3.6328,3.7298,3.7612,3.7561,3.7252,3.7202,3.7268,3.6985,3.6694,3.6388,3.5916,3.5803,3.5688,3.5321,3.5198,3.5198,3.5291,3.5291,3.5191,3.4897,3.4875,3.4408,3.2638,3.0818,2.9448,0.0,0.0,0.0,0.0,0.0,2.8839,0.0,0.0,0.0,0.0,0.0,0.0,0.0,0.0,2.6329,2.7969,0.0,2.8834,0.0,0.0,0.0,3.1278,0.0,3.0568,3.0101,2.9729,2.9278,2.8584,2.7902,2.7055,2.6135,2.5613,2.4917,2.42,2.42,2.4043,2.3751,2.3666,2.3446,2.315,2.3075,2.2927,2.2777,0.0,3.1196,0.0,0.0,3.474,3.6243,3.7657,3.9462,3.9853,3.7524,3.7643,3.7867,3.7734,3.9067,3.9731,3.9203,3.8932,3.8402,3.7433,3.7666,3.7739,3.7541,3.7923,3.794,3.7525,3.7387,3.5345,0.0,0.0,0.0,0.0,0.0,0.0,0.0,0.0,0.0,0.0,0.0,3.36,3.4093,3.5906,3.6671,3.6694,3.6533,3.6493,3.6452,3.6493,3.6493,3.6574,3.7542,3.7845,3.7756,3.7268,3.7061,3.6869,3.6452,3.6264,3.6053,3.5654,3.5537,3.5464,3.5118,3.5041,3.5055,3.4998,3.5081,3.5195,3.5044,3.5119,3.4852,3.3617,3.181,3.0526,3.0565,0.0,0.0,0.0,0.0,2.9343,0.0,0.0,0.0,2.7618,2.6198,0.0,0.0,0.0,2.6228,2.7252,0.0,0.0,0.0,3.0455,3.0934,3.0934,0.0,3.0418,2.9566,2.9702,2.9321,2.8294,2.7717,2.7163,2.6542,2.5713,2.5024,2.4422,2.4246,2.4043,2.3897,2.3751,2.3519,2.3298,2.315,2.2927,2.2703,0.0,0.0,0.0,0.0,0.0,3.77,3.7184,3.854,3.9595,3.9487,3.9029,3.8456,3.7774,3.7373,3.7115,3.7014,3.6976,3.6845,3.6619,3.6661,3.6861,3.732,3.7476,3.7796,3.8295,3.7621,3.6413,0.0,0.0,3.0572,0.0,0.0,0.0,0.0,0.0,0.0,3.1874,3.2574,3.3842,3.5454,3.5953,3.6298,3.6551,3.651,3.6394,3.6353,3.6452,3.6411,3.6353,3.6574,3.6671,3.6671,3.6574,3.6222,3.5812,3.5786,3.5419,3.5055,3.4977,3.4977,3.4977,3.4947,3.4899,3.4781,3.4101,3.4466,3.4795,3.4222,3.4213,3.4114,3.3516,3.2613,3.1965,3.207,0.0,0.0,0.0,0.0,3.0426,2.931,0.0,0.0,2.7297,2.6322,2.6046,0.0,2.6532,0.0,0.0,0.0,0.0,2.9574,2.9699,2.9759,2.9759,3.0598,3.0598,2.9662,2.9154,2.8376,2.7334,2.6432,2.6122,2.634,2.5828,2.5456,2.5152,2.4457,2.4043,2.3897,2.3897,2.3666,2.3298,2.3298,2.315,2.2927,0.0,0.0,0.0,0.0,0.0,0.0,0.0,3.939,3.9456,3.9459,3.8452,3.7569,3.721,3.693,3.6716,3.6702,3.6626,3.6422,3.6042,3.631,3.6452,3.6324,3.671,3.7095,3.744,3.7131,3.606,0.0,0.0,0.0,0.0,0.0,0.0,0.0,0.0,3.1568,3.2676,3.3891,3.4823,3.554,3.5514,3.5588,3.5644,3.5582,3.5493,3.5448,3.5448,3.5386,3.534,3.5386,3.5882,3.6452,3.6096,3.5856,3.5627,3.5299,3.5055,3.4899,3.4899,3.4899,3.4899,3.4899,3.4899,3.4816,3.4518,3.4684,3.4816,3.4565,3.4718,3.4818,3.4589,3.365,3.2841,3.2816,3.1847,0.0,0.0,0.0,0.0,2.934,0.0,2.7883,2.7844,2.6619,2.602,0.0,0.0,0.0,0.0,0.0,0.0,2.9549,0.0,3.0648,3.0478,3.0881,3.0297,2.8671,2.8772,2.7963,2.6396,2.6294,2.6091,2.5674,2.5013,2.4719,2.4634,2.4353,2.397,2.3751,2.3751,2.3446,2.315,2.315,2.2927,2.2628,3.6749,0.0,3.6664,0.0,3.837,3.8673,3.9834,3.9211,3.8543,3.8377,3.7225,3.6469,3.6536,3.6353,3.6229,3.6237,3.6125,3.5908,3.5491,3.5833,3.5924,3.5695,3.6053,0.0,3.6743,3.6799,3.6058,3.453,3.331,0.0,0.0,0.0,0.0,3.0819,3.2369,3.3276,3.3686,3.4935,3.5446,3.5354,3.5198,3.5105,3.5041,3.4947,3.4899,3.4851,3.4739,3.4691,3.4643,3.4643,3.5069,3.5557,3.5243,3.5279,3.534,3.4758,3.4717,3.4851,3.4899,3.4851,3.4804,3.4899,3.4899,3.4785,3.4618,3.4733,3.4899,3.4947,3.5088,3.5135,3.5008,3.4236,3.345,3.3139,3.217,0.0,0.0,3.0767,0.0,2.9271,2.8291,2.7748,2.7908,2.6767,2.6189,0.0,0.0,0.0,2.75,2.8041,2.8682,2.9549,3.0477,3.0728,3.0309,3.0557,2.9529,2.7236,2.7678,2.6929,2.5318,2.5913,2.571,2.4826,2.426,2.3965,2.3954,2.3734,2.3446,2.3139,2.3139,2.283,2.2456,2.2456,2.2146,2.1676,3.8053,3.8257,3.8408,3.8905,3.8992,3.8774,3.8054,3.7186,3.6571,3.6424,3.5685,3.5328,3.5832,3.5453,3.5108,3.5111,3.5098,3.5055,3.4947,3.4899,3.516,0.0,0.0,3.6014,3.669,3.6784,3.6858,3.6939,0.0,0.0,3.4584,3.2862,3.2332,3.2775,3.3482,3.4389,3.5458,3.5492,3.5354,3.5088,3.5088,3.4994,3.4899,3.4899,3.4804,3.4691,3.4691,3.4594,3.4497,3.4497,3.4022,3.3463,3.3743,3.4303,3.475,3.4021,3.4225,3.4739,3.4835,3.4707,3.4546,3.4851,3.4804,3.4558,3.3972,3.4369,3.4947,3.5088,3.4994,3.4771,3.4301,3.4112,3.3818,3.3216,3.2449,3.2013,0.0,3.1037,0.0,2.9091,2.8107,2.7427,2.7162,2.6814,0.0,0.0,0.0,0.0,2.8577,2.7949,2.8203,2.9535,2.9594,2.9197,2.8354,2.9234,2.8211,2.5315,2.5549,2.5075,2.402,2.496,2.4824,2.3711,2.3613,2.348,2.3437,2.2746,2.2317,2.2134,2.2134,2.1669,2.1135,2.1135,2.0635,2.0036,3.9345,3.9508,3.9416,3.9076,3.8931,3.8623,3.7874,3.7026,3.6438,3.627,3.5575,3.5138,3.5211,3.5068,3.4963,0.0,3.4961,3.4947,0.0,3.4899,3.4996,3.5177,3.5177,3.5276,3.5588,3.5706,3.5851,3.5966,0.0,3.4074,3.408,3.3515,3.3768,3.4634,3.4888,3.5127,3.5354,3.5245,3.5198,3.5088,3.4994,3.4947,3.4899,3.4899,3.4899,3.4787,3.4643,3.4546,3.4497,3.4399,3.386,3.3223,3.2952,3.3014,3.3244,3.3475,3.3658,3.3791,3.3855,3.3807,3.3807,3.395,3.3997,3.4063,3.4485,3.4332,3.4169,3.4219,3.3853,3.3463,3.324,3.2955,3.2512,3.1624,3.1514,3.0974,2.9354,2.9831,2.9847,2.8576,2.8713,2.8873,2.8785,2.8269,0.0,0.0,0.0,0.0,2.7576,2.8779,2.9237,2.8749,2.932,2.9277,2.8422,2.8592,2.7813,2.6198,2.6183,2.5798,2.5063,2.4904,2.4677,2.46,2.4037,2.3679,2.3519,2.3141,2.2927,2.2692,2.2542,2.2241,2.1787,2.1787,2.139,2.0765,3.9244,3.9261,3.9143,3.8603,3.8207,3.7792,3.7291,3.6468,3.5874,3.5794,3.5315,3.5013,3.4899,3.4899,0.0,3.4899,3.4899,3.4899,3.4899,3.4899,3.4899,3.4899,3.4899,3.4932,3.503,3.5185,3.5261,3.5354,3.4677,3.4362,3.4362,3.438,3.4726,3.5446,3.5446,3.5337,3.5198,3.5152,3.5088,3.4994,3.4947,3.4717,3.4485,3.4485,3.4303,3.3961,3.3789,3.3694,3.3615,3.3453,3.2934,3.2252,3.1906,3.1642,3.1606,3.24,3.2943,3.3303,3.3088,3.3172,3.3337,3.3557,3.3557,3.3691,3.4349,3.3903,3.3411,3.3411,3.2893,3.2388,3.2029,3.1826,3.1463,3.0547,3.0716,3.0444,2.8906,2.9265,2.9419,2.8651,2.8682,2.8941,2.9395,2.8937,2.8532,0.0,0.0,0.0,2.8374,2.8862,2.9114,2.8943,2.9191,2.8898,2.8038,2.7802,2.6956,2.5505,2.5241,2.4791,2.4203,2.41,2.4067,2.3966,2.3505,2.3224,2.3001,2.2927,2.2628,2.2327,2.2176,2.1863,2.1405,2.1405,2.0998,2.0438,3.8154,3.802,3.7934,3.7735,3.7133,3.6564,3.6326,3.5604,3.5079,3.5079,3.4996,3.4899,3.4899,3.4899,3.4899,3.4899,0.0,0.0,3.4899,3.4899,3.4899,3.4899,3.4899,3.4899,3.4899,3.5041,3.5088,3.5102,3.5228,3.5291,3.5308,3.5287,3.5287,3.5291,3.5291,3.5198,3.5088,3.5038,3.4927,3.4816,3.4816,3.4369,3.3723,3.3773,3.3234,3.25,3.2413,3.2292,3.2199,3.2059,3.1526,3.0881,3.0757,3.0335,3.0048,3.0985,3.2115,3.2981,3.2436,3.2688,3.3161,3.3461,3.3447,3.3485,3.3641,3.3151,3.2617,3.2617,3.212,3.1458,3.0764,3.0735,3.0593,2.9906,3.0051,3.0212,3.0071,2.9217,2.8711,2.9037,2.8288,2.8081,2.9164,2.8951,2.8966,2.9549,0.0,0.0,0.0,2.8332,2.8011,2.9836,2.901,2.8063,2.7111,2.6896,2.5816,2.3863,2.3279,2.2617,2.2093,2.2842,2.2829,2.2307,2.2221,2.2167,2.2059,2.1983,2.1603,2.1088,2.1118,2.0702,2.0041,2.007,1.9531,1.8951,0.0,0.0,3.8885,3.7735,3.7318,3.6736,3.5573,3.5177,3.4932,3.4932,3.4916,3.4899,3.4899,3.4899,3.4899,3.4899,3.4899,3.4899,3.4899,3.4899,3.4899,3.4899,3.4899,3.4899,3.4899,3.5041,3.5168,3.5248,3.5261,3.5325,3.5312,3.5308,3.5228,3.5152,3.5152,3.5088,3.4913,3.4349,3.4101,3.4054,3.4054,3.3607,3.3011,3.3482,3.3189,3.2455,3.2321,3.2245,3.2199,3.2059,3.1526,3.0881,3.0757,3.0245,2.9887,3.0551,3.1465,3.2124,3.1302,3.2093,3.3048,3.276,3.3209,3.3542,3.2929,3.2235,3.169,3.1577,3.107,3.0499,2.9972,2.951,2.9074,2.8601,2.8625,2.8562,2.8024,2.8248,2.8613,2.9035,2.8892,2.9262,3.0645,3.0261,2.9829,0.0,0.0,2.8303,2.8811,2.7124,2.7033,2.8969,2.7788,2.6773,2.6,2.5779,2.5368,2.4779,2.4097,2.3326,2.2535,2.1974,2.1663,2.1339,2.0648,2.0708,2.1269,2.0587,2.021,2.0098,2.0178,1.9385,1.8273,1.8408,1.7734,1.6709,3.7748,3.7611,3.7329,3.6481,3.6042,3.558,3.5068,3.4676,3.4523,3.4866,3.4899,3.4899,3.4899,3.4899,3.4899,3.4899,3.4899,3.4899,3.4899,3.4899,3.4899,3.4899,3.4899,3.4899,3.4899,3.4916,3.4932,3.503,3.5074,3.5121,3.5091,3.5121,3.5088,3.4994,3.4994,3.4947,3.4849,3.4104,3.3789,3.3789,3.3789,3.316,3.2238,3.2875,3.2389,3.1335,3.1234,3.1372,3.1602,3.151,3.1189,3.0774,3.0681,3.0215,2.9717,2.992,3.0892,3.1659,3.061,3.1674,3.2983,3.2514,3.2508,3.2531,3.2228,3.1477,3.0925,3.0925,3.0425,2.9826,2.9305,2.8779,2.8334,2.8198,2.7743,2.7654,2.8203,2.8122,2.8434,2.9518,2.9666,3.0066,3.1087,3.0865,3.0567,3.0283,2.9088,2.8539,2.8895,2.7252,2.6856,2.7984,2.6909,2.6,2.5465,2.5382,2.5241,2.5182,2.4755,2.419,2.361,2.2499,2.1794,2.151,2.0697,2.0309,2.0189,2.0326,1.9638,1.865,1.9025,1.8371,1.7296,1.733,1.6797,1.6106,3.5538,3.5169,3.4981,3.4845,3.4314,3.402,3.451,3.4034,3.3859,3.4495,3.4574,3.4572,3.4572,3.4572,3.4576,3.4595,3.4577,3.4669,3.4883,3.4804,3.4756,3.4899,3.4675,3.4675,3.4883,3.4627,3.4481,3.435,3.4513,3.4545,3.4544,3.4545,3.4578,3.4578,3.4561,3.4512,3.4364,3.3625,3.3247,3.3195,3.3195,3.236,3.1276,3.1921,3.1291,3.0017,2.9973,3.0336,3.0781,3.0895,3.0755,3.0567,3.0619,3.0186,2.9653,2.9396,3.0398,3.1339,3.017,3.1302,3.2674,3.2273,3.17,3.1256,3.1429,3.0837,3.0326,3.0507,3.0087,2.9508,2.8984,2.851,2.813,2.8009,2.7348,2.741,2.8921,2.8397,2.8427,3.0104,3.0256,3.0408,3.1014,3.0955,3.0881,3.0881,2.9936,2.9324,2.9324,2.7657,2.6761,2.6976,2.6208,2.5688,2.5312,2.5312,2.5312,2.5241,2.5111,2.4874,2.4434,2.3176,2.2325,2.1732,2.103,1.9981,1.8996,2.0032,1.908,1.7115,1.7553,1.7162,1.6253,1.6103,1.5866,1.5605,3.5993,3.5422,3.4728,3.4092,3.3918,3.363,3.3103,3.2927,3.2934,3.3013,3.3031,3.3061,3.3061,3.3061,3.3022,3.3062,3.3038,3.3563,3.4833,3.4315,3.4266,3.4851,3.37,3.355,3.4736,3.4099,3.3491,3.2819,3.2988,3.3024,3.3029,3.3024,3.3045,3.3045,3.2924,3.2662,3.225,3.1353,3.0759,3.0321,3.0321,3.01,2.9797,3.0396,3.0371,2.9973,2.9946,2.9983,3.0117,3.0733,3.0522,3.0089,3.0518,3.0154,2.9563,2.9608,3.0078,3.0479,2.9907,3.0543,3.136,3.1159,3.1258,3.1185,3.0478,3.0326,3.0266,3.0158,3.0194,3.01,2.9682,2.9168,2.8326,2.7071,2.7563,2.7876,2.7171,2.8099,2.9182,3.0011,2.9856,2.9988,3.0763,3.0162,2.9827,2.9922,2.8451,2.7564,2.7564,2.6445,2.5804,2.5873,2.5523,2.5382,2.5312,2.5312,2.5241,2.5111,2.4921,2.4186,2.3026,2.2435,2.1538,2.0371,1.9284,1.855,1.8099,1.7471,1.6539,1.5573,1.5693,1.4896,1.3565,1.354,1.2988,1.232,3.4424,3.3932,3.3421,3.2679,3.2549,3.2482,3.2205,3.2181,3.2272,3.2655,3.2717,3.2695,3.2695,3.2716,3.2684,3.2577,3.2669,3.2964,3.3559,3.338,3.3357,3.3716,3.3003,3.2803,3.3271,3.306,3.2733,3.2415,3.2509,3.2647,3.2719,3.2716,3.2656,3.2607,3.2516,3.216,3.1477,3.0773,3.0142,2.9588,2.9588,2.9295,2.8873,2.9435,2.9327,2.8857,2.8826,2.9312,2.9937,3.025,3.0092,2.984,3.0086,2.943,2.8543,2.8591,2.8998,2.9549,3.0149,2.9812,2.9357,2.9831,2.9714,2.9486,2.9619,2.9583,2.9668,3.004,3.0172,3.0079,2.9667,2.9478,2.9049,2.8121,2.8256,2.8517,2.8515,2.899,2.9607,3.0265,3.0382,3.0248,2.9889,2.9456,2.9052,2.863,2.7485,2.6773,2.6896,2.5988,2.5394,2.5324,2.5253,2.5182,2.5182,2.5052,2.4981,2.4921,2.4861,2.4374,2.3678,2.2811,2.165,2.0288,1.885,1.7502,1.6319,1.6129,1.5052,1.3604,1.3951,1.3372,1.2198,1.2023,1.1787,1.1611,3.2642,3.2317,3.1901,3.1366,3.1275,3.1325,3.1408,3.147,3.1633,3.2169,3.2198,3.2198,3.2198,3.2144,3.2081,3.2013,3.2034,3.2035,3.1966,3.2034,3.224,3.2633,3.2479,3.2139,3.1595,3.1852,3.1927,3.1762,3.1879,3.2013,3.2139,3.2139,3.2053,3.1953,3.1879,3.149,3.0767,3.013,2.9514,2.8976,2.8773,2.8423,2.8057,2.848,2.8308,2.7898,2.7898,2.8566,2.9477,2.9796,2.9622,2.9305,2.9622,2.8807,2.7635,2.7685,2.7853,2.8311,2.9651,2.888,2.7897,2.8537,2.8265,2.8033,2.8784,2.8936,2.9163,2.9736,3.0011,3.0076,2.9752,2.977,2.9563,2.9064,2.8946,2.9065,2.9681,2.9837,3.0066,3.0645,3.0702,3.0251,2.9129,2.8607,2.8141,2.7419,2.6569,2.6171,2.6239,2.5639,2.5182,2.4981,2.5052,2.5123,2.5123,2.4921,2.479,2.4718,2.4718,2.4646,2.4406,2.3262,2.1983,2.0726,1.9078,1.7097,1.5059,1.5354,1.4178,1.2202,1.2477,1.2209,1.1551,1.1123,1.1124,1.1426,3.1864,3.1238,3.07,3.0671,3.064,3.0669,3.0686,3.0671,3.0686,3.0775,3.0775,3.0775,3.0775,3.0611,3.0464,3.0482,3.0362,3.0311,3.0283,3.0276,3.094,3.2455,3.2269,3.1438,2.9997,3.0733,3.0852,3.023,3.0294,3.0341,3.0462,3.0341,3.0294,3.0248,3.0068,2.9743,2.9186,2.8324,2.7755,2.7417,2.6666,2.6712,2.7174,2.7218,2.7509,2.7898,2.7898,2.7959,2.8247,2.9477,2.9016,2.8097,2.944,2.877,2.755,2.7685,2.7063,2.6558,2.735,2.7646,2.7754,2.7599,2.7768,2.7968,2.8067,2.8623,2.9197,2.924,2.9817,3.0372,3.0644,3.0089,2.9389,2.877,2.9226,2.9484,2.8785,2.9876,3.0778,3.1073,3.0129,2.9282,2.9002,2.7551,2.6569,2.6501,2.5709,2.5182,2.5182,2.5182,2.4909,2.4562,2.4909,2.5123,2.5123,2.5123,2.4909,2.4502,2.4502,2.4418,2.4189,2.3158,2.221,2.1282,1.9795,1.768,1.5356,1.4927,1.3874,1.2439,1.149,1.1371,1.1546,1.0628,1.0547,1.0883,3.1148,3.0785,3.0568,3.0568,3.0524,3.0435,3.0568,3.051,3.0435,3.0568,3.0568,3.0568,3.0568,3.0413,3.0305,3.0176,3.0116,3.0049,2.9893,2.9922,3.0129,3.0661,3.063,3.0176,2.9373,2.9791,2.993,2.9817,2.9884,3.0021,3.0154,3.014,3.0031,2.9922,2.9741,2.9299,2.8605,2.7869,2.7325,2.6877,2.6624,2.6677,2.698,2.7396,2.7391,2.7234,2.7234,2.7234,2.7306,2.7799,2.7639,2.7252,2.7799,2.7241,2.6336,2.6215,2.6,2.5906,2.5892,2.602,2.6202,2.6327,2.6469,2.6694,2.7131,2.747,2.7937,2.8714,2.916,2.9611,3.0119,3.005,2.9867,2.9869,3.0119,3.0148,2.9725,3.0412,3.0821,3.0326,2.9794,2.8989,2.7933,2.6883,2.5963,2.5453,2.5123,2.4992,2.5123,2.4838,2.4706,2.4718,2.4562,2.4622,2.4706,2.4706,2.4311,2.3475,2.3412,2.3032,2.2253,2.1866,2.1176,2.0254,1.9058,1.756,1.5846,1.4461,1.3293,1.2263,1.1815,1.1277,1.0738,1.0738,1.0812,1.0848,3.0698,3.0568,3.0568,3.0568,3.0421,3.036,3.0488,3.0369,3.0297,3.0464,3.0522,3.0551,3.0568,3.0369,3.0215,3.014,2.9978,2.9882,2.9749,2.9673,2.9602,2.9524,2.9568,2.9386,2.914,2.924,2.9415,2.9602,2.9623,2.9822,3.0003,2.9955,2.9845,2.9673,2.9568,2.9177,2.858,2.7654,2.7086,2.6699,2.6341,2.6412,2.6749,2.7241,2.7143,2.6807,2.6807,2.6694,2.6554,2.675,2.6624,2.6498,2.6694,2.6218,2.5508,2.5355,2.5342,2.5397,2.5118,2.5061,2.5174,2.5453,2.5619,2.5827,2.6316,2.6778,2.7355,2.8271,2.881,2.9195,2.9543,2.9742,2.9936,3.0247,3.0317,3.0315,3.0113,3.0337,3.0203,2.9374,2.8789,2.8069,2.6992,2.6077,2.5288,2.4861,2.4646,2.4706,2.4909,2.455,2.4345,2.449,2.4345,2.4273,2.4345,2.4418,2.3948,2.2925,2.2787,2.2178,2.1094,2.0797,2.0275,1.9502,1.8415,1.7299,1.6087,1.4732,1.3502,1.2483,1.2136,1.1533,1.0924,1.0773,1.0865,1.1105,3.0568,3.0568,3.0568,3.0568,3.0421,3.0297,3.0287,3.0162,3.0145,3.0271,3.028,3.0366,3.0582,3.0283,3.0115,3.0093,2.9817,2.9602,2.9602,2.9477,2.9366,2.9408,2.9408,2.9295,2.9068,2.9077,2.9289,2.9602,2.9477,2.9526,2.9808,2.9651,2.954,2.9415,2.9415,2.9289,2.9016,2.7469,2.6903,2.6914,2.5537,2.5529,2.6408,2.6537,2.6707,2.6807,2.6821,2.6427,2.5992,2.6596,2.6288,2.5772,2.6385,2.5936,2.523,2.5439,2.5145,2.4835,2.5118,2.5005,2.4835,2.5118,2.5453,2.5729,2.5743,2.6806,2.782,2.7967,2.8838,2.9515,2.924,2.9261,2.9411,2.9667,2.9774,2.9779,2.9726,2.939,2.8933,2.8166,2.703,2.6294,2.6382,2.5087,2.4345,2.479,2.4418,2.4273,2.4502,2.4127,2.3897,2.3886,2.4116,2.4116,2.3886,2.4273,2.3948,2.2925,2.285,2.2242,2.1018,2.0051,1.9599,1.952,1.8256,1.708,1.6015,1.5769,1.4658,1.303,1.226,1.2197,1.2247,1.0534,1.0755,1.1704,3.0568,3.0568,3.0568,3.0568,3.0377,3.0179,3.0287,3.0043,2.993,3.0116,3.0135,3.0168,3.0262,3.0054,2.9903,2.987,2.9713,2.954,2.9477,2.8803,2.861,2.8986,2.8986,2.8935,2.8743,2.8858,2.9035,2.9226,2.9373,2.9435,2.9526,2.9505,2.938,2.9162,2.9035,2.8972,2.8762,2.7311,2.6688,2.662,2.5824,2.5738,2.6157,2.729,2.7259,2.6749,2.7326,2.6807,2.5921,2.6104,2.5938,2.5702,2.566,2.5493,2.5369,2.5075,2.4962,2.4892,2.4778,2.4778,2.4835,2.5118,2.5286,2.5508,2.6161,2.6792,2.7242,2.7591,2.8029,2.8226,2.7911,2.8251,2.8675,2.9035,2.9016,2.887,2.8775,2.8307,2.7731,2.7131,2.6547,2.604,2.566,2.5158,2.4694,2.4418,2.4273,2.42,2.4273,2.3897,2.3436,2.3005,2.3486,2.3341,2.2382,2.3234,2.3021,2.1811,2.1115,2.0275,1.9195,1.8567,1.8336,1.8425,1.7789,1.7398,1.7097,1.611,1.5249,1.4431,1.3257,1.2478,1.1909,1.1408,1.1064,1.0717,3.0568,3.0568,3.0553,3.0524,3.0274,3.0122,3.0125,2.9882,2.968,2.9572,2.9595,2.947,2.9149,2.8953,2.8793,2.8732,2.8598,2.8511,2.8447,2.7802,2.7564,2.7894,2.7802,2.7815,2.8026,2.8509,2.8638,2.8403,2.8917,2.9184,2.9289,2.9317,2.9176,2.8972,2.8844,2.8657,2.8307,2.7031,2.631,2.6042,2.5427,2.5378,2.5851,2.6868,2.6927,2.6578,2.7083,2.6637,2.5839,2.5839,2.5674,2.5453,2.5286,2.5188,2.5145,2.4905,2.4778,2.4708,2.4607,2.4838,2.5016,2.5059,2.5295,2.5725,2.6439,2.697,2.736,2.753,2.7755,2.7815,2.7212,2.7755,2.8318,2.8567,2.8466,2.8141,2.7696,2.7038,2.6298,2.558,2.5261,2.5093,2.5134,2.4671,2.433,2.4255,2.4608,2.4631,2.4277,2.397,2.3512,2.2877,2.2826,2.253,2.1861,2.1993,2.1594,2.0817,2.011,1.9186,1.8112,1.7951,1.7861,1.7878,1.7868,1.7843,1.761,1.7033,1.6194,1.529,1.4518,1.3493,1.2432,1.2151,1.1812,1.1385,3.0582,3.0568,3.0524,3.0332,3.0199,2.9972,2.9741,2.9568,2.9287,2.8758,2.8679,2.8399,2.7723,2.7524,2.7274,2.7118,2.6974,2.6894,2.6854,2.6633,2.6506,2.6527,2.6164,2.6296,2.695,2.7881,2.8026,2.7298,2.8143,2.8702,2.8894,2.8894,2.8766,2.8573,2.8583,2.8193,2.7463,2.6556,2.5847,2.5316,2.4601,2.4739,2.5408,2.5579,2.5918,2.6282,2.6337,2.6077,2.5674,2.5674,2.5453,2.5174,2.5174,2.5005,2.4778,2.4778,2.4536,2.4363,2.4558,2.5029,2.5308,2.5003,2.5615,2.6243,2.6493,2.7216,2.7858,2.7551,2.7927,2.7934,2.6986,2.7503,2.8155,2.8222,2.7973,2.751,2.6595,2.5802,2.4951,2.3898,2.3652,2.386,2.4669,2.3892,2.3713,2.4506,2.5165,2.521,2.443,2.4071,2.3665,2.3095,2.222,2.1776,2.1756,2.0649,2.0009,1.9825,1.9636,1.8843,1.77,1.7938,1.7955,1.7848,1.8394,1.8277,1.7826,1.8145,1.7376,1.5885,1.5774,1.4955,1.3702,1.276,1.2737,1.2876,3.0416,3.0404,3.0346,3.0176,2.9974,2.9594,2.8865,2.8784,2.8446,2.7643,2.7696,2.7629,2.7311,2.7275,2.7143,2.6947,2.676,2.6659,2.6658,2.5857,2.5571,2.6148,2.5428,2.5013,2.5025,2.5901,2.6433,2.6531,2.6748,2.6963,2.7178,2.7178,2.6989,2.6718,2.6948,2.6817,2.6427,2.5748,2.5368,2.515,2.4334,2.4223,2.4646,2.5301,2.537,2.5263,2.5983,2.5821,2.5286,2.5286,2.5286,2.5174,2.4948,2.4835,2.4721,2.4478,2.435,2.4398,2.4827,2.5157,2.5522,2.6049,2.6681,2.6904,2.6222,2.6991,2.7735,2.7072,2.7277,2.7449,2.6884,2.6728,2.7078,2.8011,2.7349,2.6569,2.6188,2.5166,2.4323,2.3771,2.3857,2.3988,2.4175,2.4175,2.468,2.5791,2.5104,2.4596,2.4419,2.3663,2.2553,2.1174,2.1768,2.1174,1.9054,1.9725,1.9807,1.946,1.9524,1.892,1.7976,1.8406,1.8591,1.8402,1.8532,1.865,1.882,1.8263,1.7829,1.7408,1.6198,1.5442,1.4835,1.3532,1.2807,1.2322,2.9191,2.9163,2.9018,2.883,2.8716,2.8492,2.7978,2.796,2.773,2.6934,2.6828,2.664,2.6089,2.5943,2.5849,2.5652,2.5436,2.5322,2.5336,2.4696,2.4494,2.4862,2.4364,2.4005,2.3883,2.423,2.4826,2.5521,2.602,2.6227,2.6377,2.6377,2.6239,2.5951,2.6143,2.5933,2.5473,2.4785,2.4343,2.3977,2.3144,2.31,2.3649,2.4077,2.4426,2.4748,2.5243,2.5276,2.5118,2.5005,2.5005,2.4948,2.4778,2.4664,2.4536,2.435,2.4247,2.4268,2.4478,2.5448,2.6323,2.6022,2.6794,2.7548,2.6986,2.7371,2.7608,2.6828,2.6961,2.7074,2.6286,2.6274,2.6603,2.7549,2.6771,2.591,2.5477,2.4661,2.3864,2.3502,2.3502,2.3656,2.381,2.4621,2.5241,2.5592,2.5161,2.4697,2.4061,2.3092,2.1857,2.0353,2.0423,1.9832,1.8525,1.8752,1.893,1.8894,1.8965,1.8786,1.843,1.865,1.8717,1.8541,1.8927,1.8899,1.8646,1.8715,1.8242,1.7584,1.6865,1.6209,1.5522,1.4755,1.3593,1.2362,2.7887,2.7746,2.7565,2.7361,2.7335,2.7298,2.6997,2.7151,2.6986,2.6267,2.6015,2.5622,2.4862,2.4578,2.4411,2.4299,2.4135,2.4084,2.4147,2.3868,2.3698,2.3635,2.3416,2.3265,2.3265,2.3065,2.3497,2.4432,2.5205,2.5627,2.5697,2.5697,2.5557,2.5392,2.5448,2.5156,2.4614,2.3797,2.3215,2.2759,2.1942,2.2039,2.264,2.2822,2.3301,2.4034,2.4208,2.4461,2.4713,2.4563,2.4545,2.454,2.439,2.4234,2.4105,2.393,2.3962,2.4046,2.412,2.5488,2.668,2.5694,2.6465,2.7511,2.7522,2.7459,2.7172,2.6458,2.6594,2.6564,2.5837,2.5886,2.6184,2.7079,2.6382,2.5506,2.4904,2.4305,2.3732,2.3203,2.3115,2.3412,2.3951,2.509,2.5561,2.5037,2.5098,2.4766,2.3888,2.2522,2.1212,1.9961,1.9011,1.8513,1.8388,1.8075,1.8033,1.839,1.863,1.8692,1.8749,1.8961,1.8891,1.8675,1.9402,1.9209,1.8417,1.9007,1.8551,1.7443,1.754,1.7,1.6141,1.597,1.4586,1.2894,2.7525,2.7469,2.7346,2.7002,2.7143,2.693,2.6117,2.6158,2.5959,2.5157,2.4981,2.4874,2.4552,2.436,2.4368,2.4621,2.4537,2.4715,2.5172,2.4415,2.3939,2.3942,2.3353,2.3065,2.3065,2.3001,2.315,2.3508,2.3655,2.3801,2.3948,2.3948,2.3801,2.3632,2.3967,2.3874,2.3468,2.2963,2.2762,2.2731,2.1954,2.1741,2.2125,2.2786,2.2592,2.2101,2.3135,2.3485,2.3505,2.3526,2.3498,2.3492,2.3454,2.3433,2.3255,2.2482,2.2874,2.3691,2.4303,2.4481,2.4808,2.6029,2.5798,2.5455,2.6007,2.6045,2.5817,2.5618,2.5589,2.5872,2.6598,2.5506,2.5047,2.6912,2.6301,2.5395,2.4848,2.4602,2.4113,2.3158,2.327,2.3894,2.5098,2.4957,2.5093,2.5927,2.4723,2.4013,2.4291,2.2227,2.0403,1.9068,1.8946,1.8294,1.6931,1.7818,1.8224,1.8045,1.9003,1.91,1.8584,1.966,1.9779,1.9314,1.9692,1.9827,1.9579,1.9052,1.8531,1.8046,1.7568,1.7278,1.7016,1.6227,1.5067,1.3864,2.6183,2.605,2.5877,2.5569,2.5642,2.5548,2.5163,2.5235,2.5192,2.4696,2.4552,2.442,2.435,2.4154,2.4186,2.4626,2.4382,2.4491,2.5001,2.4266,2.3798,2.3817,2.329,2.3001,2.3001,2.3001,2.3075,2.315,2.3257,2.332,2.3423,2.3434,2.3298,2.3139,2.3274,2.3184,2.2922,2.2321,2.1933,2.1564,2.0964,2.0859,2.1037,2.1404,2.153,2.1678,2.2139,2.2333,2.2291,2.2445,2.2457,2.249,2.2482,2.2677,2.2785,2.242,2.2791,2.3424,2.3771,2.4366,2.4985,2.4955,2.4885,2.4757,2.4734,2.4179,2.3939,2.4871,2.4912,2.4789,2.4648,2.4213,2.4244,2.5654,2.5558,2.5161,2.4577,2.4274,2.3874,2.3012,2.3349,2.3799,2.4255,2.4399,2.436,2.4132,2.371,2.3127,2.2072,2.0974,1.9581,1.7826,1.804,1.77,1.6795,1.7255,1.7761,1.8308,1.8748,1.8935,1.8905,1.9387,1.9561,1.9512,1.9552,1.9554,1.9455,1.9397,1.8938,1.8242,1.8097,1.8033,1.7763,1.6861,1.5941,1.5041]},{"header":{"parameterUnit":"m.s-1","parameterCategory":1,"la1":30.6,"la2":28.766,"lo1":-90.7593,"lo2":-88.6598,"dy":0.0162,"dx":0.0183,"nx":116,"ny":114,"refTime":"2023-05-13T12:00:00:Z","depth":0,"parameterNumber":3,"parameterNumberName":"V-component_of_WINDS"},"data":[0.0,0.0,0.0,0.0,0.0,0.0,0.0,0.0,0.0,0.0,0.0,0.0,0.0,0.0,0.0,0.0,0.0,0.0,0.0,0.0,0.0,0.0,0.0,0.0,0.0,0.0,0.0,0.0,0.0,0.0,0.0,0.0,0.0,0.0,0.0,0.0,0.0,0.0,0.0,0.0,0.0,0.0,0.0,0.0,0.0,0.0,0.0,0.0,0.0,0.0,0.0,0.0,0.0,0.0,0.0,0.0,0.0,0.0,0.0,0.0,0.0,0.0,0.0,0.0,0.0,0.0,0.0,0.0,0.0,0.0,0.0,0.0,0.0,0.0,0.0,0.0,0.0,0.0,0.0,0.0,0.0,0.0,0.0,0.0,0.0,0.0,0.0,0.0,0.0,0.0,0.0,0.0,0.0,0.0,0.0,0.0,0.0,0.0,0.0,0.0,0.0,0.0,0.0,0.0,0.0,0.0,0.0,0.0,0.0,0.0,0.0,0.0,0.0,0.0,0.0,0.0,0.0,0.0,0.0,0.0,0.0,0.0,0.0,0.0,0.0,0.0,0.0,0.0,0.0,0.0,0.0,0.0,0.0,0.0,0.0,0.0,0.0,0.0,0.0,0.0,0.0,0.0,0.0,0.0,0.0,0.0,0.0,0.0,0.0,0.0,0.0,0.0,0.0,0.0,0.0,0.0,0.0,0.0,0.0,0.0,0.0,0.0,0.0,0.0,0.0,0.0,0.0,0.0,0.0,0.0,0.0,0.0,0.0,0.0,0.0,0.0,0.0,0.0,0.0,0.0,0.0,0.0,0.0,0.0,0.0,0.0,0.0,0.0,0.0,0.0,0.0,0.0,0.0,0.0,0.0,0.0,0.0,0.0,0.0,0.0,0.0,0.0,0.0,0.0,0.0,0.0,0.0,0.0,0.0,0.0,0.0,0.0,0.0,0.0,0.0,0.0,0.0,0.0,0.0,0.0,0.0,0.0,0.0,0.0,0.0,0.0,0.0,0.0,0.0,0.0,0.0,0.0,0.0,0.0,0.0,0.0,0.0,0.0,0.0,0.0,0.0,0.0,0.0,0.0,0.0,0.0,0.0,0.0,0.0,0.0,0.0,0.0,0.0,0.0,0.0,0.0,0.0,0.0,0.0,0.0,0.0,0.0,0.0,0.0,0.0,0.0,0.0,0.0,0.0,0.0,0.0,0.0,0.0,0.0,0.0,0.0,0.0,0.0,0.0,0.0,0.0,0.0,0.0,0.0,0.0,0.0,0.0,0.0,0.0,0.0,0.0,0.0,0.0,0.0,0.0,0.0,0.0,0.0,0.0,0.0,0.0,0.0,0.0,0.0,0.0,0.0,0.0,0.0,0.0,0.0,0.0,0.0,0.0,0.0,0.0,0.0,0.0,0.0,0.0,0.0,0.0,0.0,0.0,0.0,0.0,0.0,0.0,0.0,0.0,0.0,0.0,0.0,0.0,0.0,0.0,0.0,0.0,0.0,0.0,0.0,0.0,0.0,0.0,0.0,0.0,0.0,0.0,0.0,0.0,0.0,0.0,0.0,0.0,0.0,0.0,0.0,0.0,0.0,0.0,0.0,0.0,0.0,0.0,0.0,0.0,0.0,0.0,0.0,0.0,0.0,0.0,0.0,0.0,0.0,0.0,0.0,0.0,0.0,0.0,0.0,0.0,0.0,0.0,0.0,0.0,0.0,0.0,0.0,0.0,0.0,0.0,0.0,0.0,0.0,0.0,0.0,0.0,0.0,0.0,0.0,0.0,0.0,0.0,0.0,0.0,0.0,0.0,0.0,0.0,0.0,0.0,0.0,0.0,0.0,0.0,0.0,0.0,0.0,0.0,0.0,0.0,0.0,0.0,0.0,0.0,0.0,0.0,0.0,0.0,0.0,0.0,0.0,0.0,0.0,0.0,0.0,0.0,0.0,0.0,0.0,0.0,0.0,0.0,0.0,0.0,0.0,0.0,0.0,0.0,0.0,0.0,0.0,0.0,0.0,0.0,0.0,0.0,0.0,0.0,0.0,0.0,0.0,0.0,0.0,0.0,0.0,0.0,0.0,0.0,0.0,0.0,0.0,0.0,0.0,0.0,0.0,0.0,0.0,0.0,0.0,0.0,0.0,0.0,0.0,0.0,0.0,0.0,0.0,0.0,0.0,0.0,0.0,0.0,0.0,0.0,0.0,0.0,0.0,0.0,0.0,0.0,0.0,0.0,0.0,0.0,0.0,0.0,0.0,0.0,0.0,0.0,0.0,0.0,0.0,0.0,0.0,0.0,0.0,0.0,0.0,0.0,0.0,0.0,0.0,0.0,0.0,0.0,0.0,0.0,0.0,0.0,0.0,0.0,0.0,0.0,0.0,0.0,0.0,0.0,0.0,0.0,0.0,0.0,0.0,0.0,0.0,0.0,0.0,0.0,0.0,0.0,0.0,0.0,0.0,0.0,0.0,0.0,0.0,0.0,0.0,0.0,0.0,0.0,0.0,0.0,0.0,0.0,0.0,0.0,0.0,0.0,0.0,0.0,0.0,0.0,0.0,0.0,0.0,0.0,0.0,0.0,0.0,0.0,0.0,0.0,0.0,0.0,0.0,0.0,0.0,0.0,0.0,0.0,0.0,0.0,0.0,0.0,0.0,0.0,0.0,0.0,0.0,0.0,0.0,0.0,0.0,0.0,0.0,0.0,0.0,0.0,0.0,0.0,0.0,0.0,0.0,0.0,0.0,0.0,0.0,0.0,0.0,0.0,0.0,0.0,0.0,0.0,0.0,0.0,0.0,0.0,0.0,0.0,0.0,0.0,0.0,0.0,0.0,0.0,0.0,0.0,0.0,0.0,0.0,0.0,0.0,0.0,0.0,0.0,0.0,0.0,0.0,0.0,0.0,0.0,0.0,0.0,0.0,0.0,0.0,0.0,0.0,0.0,0.0,0.0,0.0,0.0,0.0,0.0,0.0,0.0,0.0,0.0,0.0,0.0,0.0,0.0,0.0,0.0,0.0,0.0,0.0,0.0,0.0,0.0,0.0,0.0,0.0,0.0,0.0,0.0,0.0,0.0,0.0,0.0,0.0,0.0,0.0,0.0,0.0,0.0,0.0,0.0,0.0,0.0,0.0,0.0,0.0,0.0,0.0,0.0,0.0,0.0,0.0,0.0,0.0,0.0,0.0,0.0,0.0,0.0,0.0,0.0,0.0,0.0,0.0,0.0,0.0,0.0,0.0,0.0,0.0,0.0,0.0,0.0,0.0,0.0,0.0,0.0,0.0,0.0,0.0,0.0,0.0,0.0,0.0,0.0,0.0,0.0,0.0,0.0,0.0,0.0,0.0,0.0,0.0,0.0,0.0,0.0,0.0,0.0,0.0,0.0,0.0,0.0,0.0,0.0,0.0,0.0,0.0,0.0,0.0,0.0,0.0,0.0,0.0,0.0,0.0,0.0,0.0,0.0,0.0,0.0,0.0,0.0,0.0,0.0,0.0,0.0,0.0,0.0,0.0,0.0,0.0,0.0,0.0,0.0,0.0,0.0,0.0,0.0,0.0,0.0,0.0,0.0,0.0,0.0,0.0,0.0,0.0,0.0,0.0,0.0,0.0,0.0,0.0,0.0,0.0,0.0,0.0,0.0,0.0,0.0,0.0,0.0,0.0,0.0,0.0,0.0,0.0,0.0,0.0,0.0,0.0,0.0,0.0,0.0,0.0,0.0,0.0,0.0,0.0,0.0,0.0,0.0,0.0,0.0,0.0,0.0,0.0,0.0,0.0,0.0,0.0,0.0,0.0,0.0,0.0,0.0,0.0,0.0,0.0,0.0,0.0,0.0,0.0,0.0,0.0,0.0,0.0,0.0,0.0,0.0,0.0,0.0,0.0,0.0,0.0,0.0,0.0,0.0,0.0,0.0,0.0,0.0,0.0,0.0,0.0,0.0,0.0,0.0,0.0,0.0,0.0,0.0,0.0,0.0,0.0,0.0,0.0,0.0,0.0,0.0,0.0,0.0,0.0,0.0,0.0,0.0,0.0,0.0,0.0,0.0,0.0,0.0,0.0,0.0,0.0,0.0,0.0,0.0,0.0,0.0,0.0,0.0,0.0,0.0,0.0,0.0,0.0,0.0,0.0,0.0,0.0,0.0,0.0,0.0,0.0,0.0,0.0,0.0,0.0,0.0,0.0,0.0,0.0,0.0,0.0,0.0,0.0,0.0,0.0,0.0,0.0,0.0,0.0,0.0,0.0,0.0,0.0,0.0,0.0,0.0,0.0,0.0,0.0,0.0,0.0,0.0,0.0,0.0,0.0,0.0,0.0,0.0,0.0,0.0,0.0,0.0,0.0,0.0,0.0,0.0,0.0,0.0,0.0,0.0,0.0,0.0,0.0,0.0,0.0,0.0,0.0,0.0,0.0,0.0,0.0,0.0,0.0,0.0,0.0,0.0,0.0,0.0,0.0,0.0,0.0,0.0,0.0,0.0,0.0,0.0,0.0,0.0,0.0,0.0,0.0,0.0,0.0,0.0,0.0,0.0,0.0,0.0,0.0,0.0,0.0,0.0,0.0,0.0,0.0,0.0,0.0,0.0,0.0,0.0,0.0,0.0,0.0,0.0,0.0,0.0,0.0,0.0,0.0,0.0,0.0,0.0,0.0,0.0,0.0,0.0,0.0,0.0,0.0,0.0,0.0,0.0,0.0,0.0,0.0,0.0,0.0,0.0,0.0,0.0,0.0,0.0,0.0,0.0,0.0,0.0,0.0,0.0,0.0,0.0,0.0,0.0,0.0,0.0,0.0,0.0,0.0,0.0,0.0,0.0,0.0,0.0,0.0,0.0,0.0,0.0,0.0,0.0,0.0,0.0,0.0,0.0,0.0,0.0,0.0,0.0,0.0,0.0,0.0,0.0,0.0,0.0,0.0,0.0,0.0,0.0,0.0,0.0,0.0,0.0,0.0,0.0,0.0,0.0,0.0,0.0,0.0,0.0,0.0,0.0,0.0,0.0,0.0,0.0,0.0,0.0,0.0,0.0,0.0,0.0,0.0,0.0,0.0,0.0,0.0,0.0,0.0,0.0,0.0,0.0,0.0,0.0,0.0,0.0,0.0,0.0,0.0,0.0,0.0,0.0,0.0,0.0,0.0,0.0,0.0,0.0,0.0,0.0,0.0,0.0,0.0,0.0,0.0,0.0,0.0,0.0,0.0,0.0,0.0,0.0,0.0,0.0,0.0,0.0,0.0,0.0,0.0,0.0,0.0,0.0,0.0,0.0,0.0,0.0,0.0,0.0,0.0,0.0,0.0,0.0,0.0,0.0,0.0,0.0,0.0,0.0,0.0,0.0,0.0,0.0,0.0,0.0,0.0,0.0,0.0,0.0,0.0,0.0,0.0,0.0,0.0,0.0,0.0,0.0,0.0,0.0,0.0,0.0,0.0,0.0,0.0,0.0,0.0,0.0,0.0,0.0,0.0,0.0,0.0,0.0,0.0,0.0,0.0,0.0,0.0,0.0,0.0,0.0,0.0,0.0,0.0,0.0,0.0,0.0,0.0,0.0,0.0,0.0,0.0,0.0,0.0,0.0,0.0,0.0,0.0,0.0,0.0,0.0,0.0,0.0,0.0,0.0,0.0,0.0,0.0,0.0,0.0,0.0,0.0,0.0,0.0,0.0,0.0,0.0,0.0,0.0,0.0,0.0,0.0,0.0,0.0,0.0,0.0,0.0,0.0,0.0,0.0,0.0,0.0,0.0,0.0,0.0,0.0,0.0,0.0,0.0,0.0,0.0,0.0,0.0,0.0,0.0,0.0,0.0,0.0,0.0,0.0,0.0,0.0,0.0,0.0,0.0,0.0,0.0,0.0,0.0,0.0,0.0,0.0,0.0,0.0,0.0,0.0,0.0,0.0,0.0,0.0,0.0,0.0,0.0,0.0,0.0,0.0,0.0,0.0,0.0,0.0,0.0,0.0,0.0,0.0,0.0,0.0,0.0,0.0,0.0,0.0,0.0,0.0,0.0,0.0,0.0,0.0,0.0,0.0,0.0,0.0,0.0,0.0,0.0,0.0,0.0,0.0,0.0,0.0,0.0,0.0,0.0,0.0,0.0,0.0,0.0,0.0,0.4693,0.0,0.0,0.0,0.0,0.0,0.0,0.0,0.0,0.0,0.0,0.0,0.0,0.0,0.0,0.0,0.0,0.0,0.0,0.0,0.0,0.0,0.0,0.0,0.0,0.0,0.0,0.0,0.0,0.0,0.0,0.0,0.0,0.0,0.0,0.0,0.0,0.0,0.0,0.0,0.0,0.0,0.0,0.0,0.0,0.0,0.0,0.0,0.0,0.0,0.0,0.0,0.0,0.0,0.0,0.0,0.0,0.0,0.0,0.0,0.0,0.0,0.0,0.0,0.0,0.0,0.0,0.0,0.0,0.0,0.0,0.0,0.0,0.0,0.0,0.0,0.0,0.0,0.0,0.0,0.0,0.0,0.0,0.0,0.0,0.0,0.0,0.0,0.0,0.0,0.0,0.0,0.0,0.0,0.0,0.0,0.0,0.0,0.0,0.0,0.0,0.0,0.0,0.0,0.0,0.0,0.0,0.0,0.0,0.0,0.0,0.0,0.0,0.0,0.0,0.0,0.0,0.5385,0.0,0.0,0.0,0.0,0.0,0.0,0.0,0.0,0.0,0.0,0.0,0.0,0.0,0.0,0.0,0.0,0.0,0.0,0.0,0.0,0.0,0.0,0.0,0.0,0.0,0.0,0.0,0.0,0.0,0.0,0.0,0.0,0.0,0.0,0.0,0.0,0.0,0.0,0.0,0.0,0.0,0.0,0.0,0.0,0.0,0.0,0.0,0.0,0.0,0.0,0.0,0.0,0.0,0.0,0.0,0.0,0.0,0.0,0.0,0.0,0.0,0.0,0.0,0.0,0.0,0.0,0.0,0.0,0.0,0.0,0.0,0.0,0.0,0.0,0.0,0.0,0.0,0.0,0.0,0.0,0.0,0.0,0.0,0.0,0.0,0.0,0.0,0.0,0.0,0.0,0.0,0.0,0.0,0.0,0.0,0.0,0.0,0.0,0.0,0.0,0.0,0.0,0.0,0.0,0.0,0.0,0.0,0.0,0.1935,0.1823,0.1823,0.2114,0.3008,0.4491,0.5538,0.608,0.6242,0.583,0.0,0.0,0.0,0.0,0.0,0.0,0.0,0.0,0.0,0.0,0.0,0.0,0.0,0.0,0.0,0.0,0.0,0.0,0.0,0.0,0.0,0.0,0.0,0.0,0.0,0.0,0.0,0.0,0.0,0.0,0.0,0.0,0.0,0.0,0.0,0.0,0.0,0.0,0.2022,0.1392,0.1559,0.2364,0.2368,0.0,0.0,0.0,0.0,0.0,0.0,0.0,0.0,0.0,0.0,0.0,0.0,0.0,0.0,0.0,0.0,0.0,0.0,0.0,0.0,0.0,0.0,0.0,0.0,0.0,0.0,0.0,0.0,0.0,0.0,0.0,0.0,0.0,0.0,0.0,0.0,0.0,0.0,0.0,0.0,0.0,0.0,0.0,-0.1095,-0.1036,0.0,0.0,0.0,0.0,0.0,0.0,0.0,0.0,0.0,0.0,0.0,0.0,0.0,0.1659,0.1747,0.3467,0.3778,0.2626,0.107,0.0254,0.0339,0.1611,0.3798,0.6698,0.6862,0.0,0.611,0.6537,0.0,0.0,0.0,0.0,0.0,0.0,0.0,0.0,0.0,0.0,0.0,0.0,0.0,0.0,0.0,0.0,0.0,0.0,0.0,0.0,0.0,0.0,0.0,0.0,0.0,0.0,0.0,0.0,0.0,0.0,0.0,0.0,0.0,0.0,0.0,0.0,0.2172,0.2171,0.215,0.1054,0.065,0.1045,0.1553,0.1854,0.1914,0.1798,0.0,0.0,0.0,0.0,0.0,0.0,0.0,0.0,0.0,0.0,0.0,0.0,0.0,0.0,0.0,0.0,0.0,0.0,0.0,0.0,0.0,0.0,0.0,0.0,0.0,0.0,0.0,0.0,0.0,0.0,0.0,0.0,0.0,0.0,0.0,0.0,0.0,0.0,0.0,-0.3863,-0.36,-0.3602,-0.1343,0.0969,0.0,0.0,0.0,0.0,0.0,0.0,0.0,0.0,0.0,0.2665,0.2265,0.1566,0.0614,0.1505,0.171,0.1167,0.0348,0.0,0.009,0.3792,0.5428,0.5417,0.6711,0.709,0.6739,0.654,0.6391,0.6503,0.0,0.0,0.0,0.0,0.8529,0.8743,0.0,0.0,0.0,0.0,0.0,0.0,0.0,0.0,0.0,0.0,0.0,0.0,0.0,0.0,0.0,0.0,0.0,0.0,0.0,0.0,0.0,0.0,0.0,0.0,0.0,0.0,0.0,0.2211,0.1805,0.1665,0.1637,0.0534,0.0,0.0,0.0716,0.0973,0.0939,0.0949,0.097,0.0,0.0,0.0,0.0,0.0,0.0,0.0,0.0,0.0,0.0,0.0,0.0,0.0,0.0,0.0,0.0,0.0,0.0,0.0,0.0,0.0,0.0,0.0,0.0,0.0,0.0,0.0,0.0,0.0,0.0,0.0,0.0,0.0,0.0,0.0,0.0,0.0,0.0,-0.4413,-0.4886,-0.5351,-0.2616,0.0,0.0,0.0,0.0,0.0,0.0,0.0,0.1683,0.1215,0.1262,0.1963,0.2002,0.14,0.0,0.0,0.0,0.0,0.0,0.0741,0.216,0.6134,0.692,0.5025,0.6734,0.7413,0.7312,0.6566,0.6318,0.653,0.6941,0.7266,0.7597,0.8073,0.8465,0.9001,0.0,0.0,0.0,0.0,0.0,0.0,0.0,0.0,0.0,0.0,0.0,0.0,0.0,0.0,0.0,0.0,0.0053,0.0425,0.0,0.0,0.0,0.0,0.0,0.0,0.0,0.0,0.0,0.2222,0.0827,0.0074,0.0078,0.0,0.0,0.0,0.0082,0.0079,0.0075,0.0071,0.0069,0.0066,0.0,0.0,0.0,0.0,0.0,0.0,0.0,0.0,0.0,0.0,0.0,0.0,0.0,0.0,0.0,0.0,0.0,0.0,0.0,0.0,0.0,0.0,0.0,0.0,0.0,0.0,0.0,0.0,0.0,0.0,0.0,0.0,0.0,0.0,0.0,0.0,0.0,0.0,0.0,-0.5185,-0.3716,0.0,0.0,0.0,0.0,0.139,0.0559,0.0869,0.2568,0.1015,0.0081,0.0173,0.0173,0.0088,0.0,0.0,0.0,0.0,0.0,0.264,0.7579,0.7879,0.7784,0.752,0.7604,0.7605,0.7346,0.7021,0.6961,0.7211,0.7601,0.7892,0.8062,0.7865,0.8483,0.9531,0.0,0.0,0.0,0.0,0.0,0.0,0.0,0.0,0.0,0.0,0.0,0.0,0.0,0.0,0.0,0.0,0.0,0.0115,0.0387,0.0,0.0,0.0,0.0,0.0,0.0,0.0,0.173,0.0778,0.0224,0.0,0.0,0.0,0.0,0.0,0.0,0.0,0.0,0.0,0.0,0.0,0.0,0.0356,0.0,0.0,0.0,0.0,0.0,0.0,0.0,0.0,0.0,0.0,0.0,0.0,0.0,0.0,0.0,0.0,0.0,0.0,0.0,0.0,0.0,0.0,0.0,0.0,0.0,0.0,0.0,0.0,0.0,0.0,0.0,0.0,0.0,0.0,0.0,0.0,0.0,-0.1816,-0.1349,0.0,-0.007,0.0582,0.0823,0.0453,0.0156,0.0242,0.0922,0.0341,0.0,0.0,0.0,0.0,0.0,0.0,0.0,0.0,0.3523,0.6145,0.8045,0.8021,0.7974,0.7913,0.7896,0.7855,0.7787,0.758,0.7331,0.7,0.7087,0.7152,0.72,0.7202,0.807,0.9344,0.0,0.0,0.0,0.0,0.0,0.0,0.0,0.0,0.0,0.0,0.0,0.0,0.0,0.0,0.0,0.0,0.0,0.0181,0.0687,0.0,0.0,0.0,0.0,0.0,0.0,0.1718,0.0969,0.0,0.0,0.0,0.0,0.0,0.0,0.0,0.0,0.0,0.0,0.0,0.0,0.0,0.0,0.0,0.0121,0.0,0.0,0.0,0.0,0.0,0.0,0.0,0.0,0.0,0.0,0.0,0.0,0.0,0.0,0.0,0.0,0.0,0.0,0.0,0.0,0.0,0.0,0.0,0.0,0.0,0.0,0.0,0.0,0.0,0.0,0.0,0.0,0.0,0.0,0.0,0.0,0.0,0.0,0.0,0.0,0.0,0.0,0.0,0.0,0.0,0.0,0.0,0.0,0.0,0.0,0.0,0.0,0.0,0.088,0.2775,0.6265,0.8024,0.8006,0.7982,0.7969,0.7962,0.8045,0.8038,0.8028,0.7875,0.758,0.7207,0.7007,0.6926,0.6932,0.6983,0.7835,0.924,0.0,0.0,0.0,0.0,0.0,0.0,0.0,0.0,0.0,0.0,-0.0049,0.0,0.0,0.0,0.0,0.0,0.0062,0.0669,0.2127,0.2218,0.0,0.0,0.0,0.0,0.2112,0.0762,0.0,0.0,0.0,-0.0,-0.009,-0.0092,-0.0,-0.0,-0.0,0.0,0.0,0.0,0.0,0.0,0.0,0.0,0.0,0.0,0.0,0.0,0.0,0.0,0.0,0.0,0.0,0.0,0.0,0.0,0.0,0.0,0.0,0.0,0.0,0.0,0.0,0.0,0.0,0.0,0.0,0.0,0.0,0.0,0.0,0.0,0.0,0.0,0.0,0.0,0.0,0.0,0.0,0.0,0.0,0.0,0.0,0.0,0.0,0.0,0.0,0.0,0.0,0.0,0.0,0.0,0.0,0.0,0.0,0.0,0.0,0.0,0.2726,0.8026,0.8026,0.8006,0.7972,0.7972,0.7959,0.8038,0.8038,0.7939,0.7928,0.7879,0.7818,0.7787,0.7489,0.737,0.7353,0.7204,0.7848,0.9358,0.0,0.0,0.0,0.0,0.0,0.0,0.0,0.0,0.0,0.0,-0.0652,0.0,0.0,0.0,0.0,0.0,0.0968,0.1769,0.2169,0.0,0.0,0.0,0.0,0.0,0.0627,0.0219,0.0,0.0,0.0,-0.0363,-0.1126,-0.1132,-0.0948,-0.0572,-0.0194,0.0,0.0,0.0,0.0,0.0,0.0,0.0,0.0,0.0,0.0,0.0,0.0,0.0,0.0,0.0,0.0,0.0,0.0,0.0,0.0,0.0,0.0,0.0,0.0,0.0,0.0,0.0,0.0,0.0,0.0,0.0,0.0,0.0,0.0,0.0,0.0,0.0,0.0,0.0,0.0,0.0,0.0,0.0,0.0,0.0,0.0,0.0,0.0,0.0,0.0,0.0,0.0,0.0,0.0,0.0,0.0,0.0,0.0,0.0,0.0,0.0,0.2726,0.8026,0.8009,0.7992,0.7972,0.7955,0.8045,0.7939,0.7842,0.7743,0.7739,0.7496,0.7483,0.7645,0.7436,0.737,0.7366,0.7322,0.8466,1.043,0.0,0.0,0.0,0.0,0.0,0.0,0.0,0.0,0.0,0.0,-0.2021,-0.1422,-0.0116,0.0,0.0237,0.0846,0.1708,0.2226,0.2206,0.0,0.0,0.0,0.0,0.1528,0.0,0.0,-0.0252,-0.0637,-0.0642,-0.0843,-0.1255,-0.1448,-0.1455,-0.1076,-0.0791,-0.0497,-0.0298,-0.0099,0.0,0.0,0.0,0.0,0.0,0.0,0.0,0.0071,0.054,0.112,0.1565,0.1538,0.0,0.0,0.0,0.0,0.0,0.0,0.0,0.0,0.0,0.0,0.0,0.0,0.0,0.0,0.0,0.0,0.0,0.0,0.0,0.0,0.0,0.0,0.0,0.0,-0.1184,0.0,0.0,0.0,0.0,0.0,0.0,0.0,0.0,0.0,0.0,0.0,0.0,0.0,0.0,0.0,0.0,0.0,0.0,0.0,0.0,0.0,0.2018,0.5962,0.7077,0.7679,0.7659,0.7646,0.7637,0.7637,0.754,0.7444,0.7441,0.7238,0.7338,0.0,0.0,0.0,0.0,0.0,0.9096,1.0676,0.0,0.0,0.0,0.0,0.0,0.0,0.0,0.0,0.0,0.0,0.0,-0.3484,-0.0808,-0.0175,0.0525,0.1867,0.1876,0.1819,0.0,0.0,0.0,0.2092,0.1965,0.1367,0.0,-0.0085,-0.0626,-0.1584,-0.1613,-0.1353,-0.0887,-0.138,-0.1591,-0.1617,-0.1617,-0.1314,-0.0909,-0.0404,-0.01,-0.0098,-0.0387,-0.0281,0.0,0.0,0.0,0.0,0.0,-0.0365,-0.0786,-0.0784,0.0,0.0,0.0,0.0,0.0,0.0,0.0,0.0,0.0,0.0,0.0,0.0,0.0,0.0,0.0,0.0,0.0,0.0,0.0,0.0,0.0,0.0,0.0,0.0,-0.3256,-0.0549,-0.0095,0.0,0.0,0.0,0.0,0.0,0.0,0.0,0.0,0.0,0.0,0.0,0.0,0.0,0.0,0.0,0.0,-0.0101,-0.0,0.0202,0.131,0.3217,0.5952,0.7166,0.7238,0.7238,0.7238,0.7238,0.7138,0.7138,0.7138,0.7138,0.7138,0.7123,0.7287,0.7514,0.7866,0.8949,0.9777,1.0602,0.0,0.0,0.0,0.0,0.0,0.0,0.0,0.0,0.0,-0.299,-0.3899,-0.4285,-0.3697,-0.1465,0.0112,0.038,-0.0162,-0.0643,0.0,0.0,0.132,0.1304,0.0724,0.0317,0.0,-0.0805,-0.14,-0.1554,-0.156,-0.1578,-0.1407,-0.1508,-0.1611,-0.1617,-0.1617,-0.1516,-0.1415,-0.1314,-0.1008,-0.0803,-0.2498,-0.1931,0.0,0.0,0.0,0.0,0.0,-0.2504,-0.571,-0.5764,-0.4318,-0.247,-0.2476,0.0,0.0,0.0,0.0,0.0,0.0,0.0,0.0,0.0,0.0,0.0,0.0,0.0,0.0,0.0,0.0,0.0,0.0,0.0,0.0,-0.7554,-0.623,-0.3919,-0.0495,0.0,0.0,0.0,0.0,0.0,0.0,0.0,0.0,0.0,0.0,0.0,0.0,0.0,0.0,0.0,-0.0808,-0.0909,-0.0,0.1716,0.2822,0.3217,0.0,0.0,0.7238,0.7238,0.7238,0.7238,0.6942,0.6842,0.6842,0.6637,0.6639,0.693,0.729,0.7356,0.753,0.9545,1.0407,1.0812,0.0,0.0,0.0,0.0,0.0,0.0,0.0,0.0,0.0,0.0,-0.3389,-0.392,-0.446,-0.3141,-0.1635,-0.0155,-0.1035,0.0,0.0,-0.147,-0.1221,-0.1274,-0.1724,-0.1517,-0.0441,-0.0928,-0.1346,-0.1571,-0.1587,-0.1602,-0.1617,-0.1617,-0.1918,-0.2621,-0.1919,-0.2019,-0.2621,-0.2822,-0.2822,-0.262,-0.3927,-0.4257,-0.3851,-0.2523,-0.2032,-0.2027,-0.1985,-0.3423,-0.5551,-0.6699,-0.6173,-0.505,-0.4789,-0.4493,-0.3987,0.0,0.0,0.0,0.0,0.0,0.0,0.0,0.0,0.0,0.0,0.0,0.0,0.0,0.0,-0.5249,0.0,0.0,-0.6991,-0.6584,-0.69,-0.5513,-0.0712,0.0,0.0,0.0,0.0,0.0,0.0,0.0,0.0,0.0,-0.0505,-0.0606,-0.0,-0.0303,-0.0505,-0.0808,-0.101,-0.1111,-0.0808,0.0505,0.2017,0.3524,0.4836,0.5842,0.6836,0.6836,0.6836,0.6836,0.6639,0.6639,0.6539,0.6437,0.6437,0.6634,0.697,0.7061,0.733,0.9013,0.9592,0.9736,0.0,0.0,0.0,0.0,0.0,0.0,0.0,0.0,0.0,0.0,-0.2808,-0.3243,-0.4139,-0.4157,-0.2971,0.0,0.0,0.0,0.0,-0.3539,-0.4051,-0.4187,-0.4518,-0.3984,-0.2353,-0.2007,-0.2066,-0.2564,-0.2304,-0.222,-0.2321,-0.2321,-0.2923,-0.392,-0.2821,-0.3022,-0.4021,-0.4425,-0.4528,-0.4529,-0.5046,-0.6263,-0.7466,-0.5565,-0.4835,-0.481,-0.4718,-0.4459,-0.4467,-0.637,-0.6977,-0.6893,-0.6497,-0.6099,-0.5586,-0.4604,-0.3796,0.0,0.0,0.0,0.0,0.0,0.0,0.0,0.0,0.0,-0.7065,-0.708,-0.7065,-0.7138,-0.7421,-0.7746,-0.7421,-0.5937,-0.7098,-0.6426,-0.144,-0.0309,0.0,0.0,0.0,0.0,0.0,-0.0202,-0.0303,-0.0303,-0.101,-0.1111,-0.0303,-0.0606,-0.101,-0.1617,-0.1212,-0.1212,-0.1617,-0.0606,0.121,0.383,0.4131,0.5033,0.6437,0.6437,0.6437,0.6437,0.6437,0.6437,0.6437,0.6437,0.6437,0.6437,0.6639,0.6781,0.6997,0.8368,0.8639,0.8634,0.0,0.0,0.0,0.0,0.0,0.0,0.0,0.0,0.0,0.0,0.0,0.0,0.0,0.0,0.0,0.0,0.0,0.0,-0.4912,-0.5441,-0.5902,-0.6265,-0.6863,-0.7441,-0.7875,-0.6203,-0.552,-0.5827,-0.4924,-0.4526,-0.4828,-0.4828,-0.5027,-0.5322,-0.5225,-0.5222,-0.5422,-0.5422,-0.5327,-0.5238,-0.6345,-0.6735,-0.6651,-0.7462,-0.7743,-0.7537,-0.7302,-0.6889,-0.645,-0.6723,-0.6691,-0.6579,-0.6597,-0.624,-0.5752,-0.5665,0.0,-0.3837,-0.5337,-0.5604,-0.5387,-0.5145,-0.4754,-0.4793,0.0,0.0,-0.7129,-0.7083,-0.7097,-0.721,-0.7537,-0.7648,-0.7724,-0.7684,-0.8313,-0.7561,-0.4041,-0.1515,0.0,0.0,0.0,0.0,0.0,-0.0909,-0.1415,-0.1415,-0.1111,-0.101,-0.1415,-0.101,-0.101,-0.1617,-0.1516,-0.1516,-0.1617,0.0806,0.2619,0.383,0.5334,0.6234,0.6437,0.6437,0.6437,0.6437,0.6437,0.6437,0.6437,0.6437,0.6437,0.6437,0.6437,0.6429,0.6617,0.8209,0.878,0.8951,0.0,0.0,0.0,0.0,0.0,0.0,0.0,0.0,0.0,0.0,0.0,0.0,0.0,0.0,0.0,0.0,0.0,0.0,-0.4998,-0.5603,-0.6183,-0.6725,-0.7341,-0.7503,-0.7263,-0.6555,-0.5937,-0.5434,-0.5027,-0.4824,-0.4926,-0.4926,-0.5525,-0.6523,-0.5525,-0.5622,-0.6523,-0.6326,-0.6229,-0.6234,-0.7394,-0.7788,-0.763,-0.7912,-0.7807,-0.7436,-0.7194,-0.6857,0.0,0.0,-0.6128,-0.5983,-0.611,-0.5795,-0.5332,-0.5111,-0.4711,0.0,-0.4919,-0.503,0.0,0.0,-0.5815,-0.6151,-0.6583,-0.7168,-0.7631,-0.7537,-0.7529,-0.7597,-0.7818,-0.7815,-0.7905,0.0,-0.8262,-0.7458,-0.4704,-0.184,0.0,0.0,-0.0502,-0.0909,-0.0909,-0.1314,-0.1617,-0.1617,-0.1415,-0.1314,-0.1617,-0.1415,-0.1415,-0.1617,-0.1617,-0.1617,-0.1617,0.0101,0.1712,0.3021,0.4327,0.5432,0.6139,0.6139,0.6139,0.6139,0.6139,0.6239,0.6437,0.6437,0.6437,0.6437,0.6437,0.6437,0.6434,0.7126,0.7425,0.7621,0.0,0.0,0.0,0.0,0.0,0.0,0.0,0.0,0.0,0.0,0.0,0.0,0.0,0.0,0.0,0.0,0.0,0.0,0.0,-0.5289,-0.5922,-0.6715,-0.7214,-0.7182,-0.6684,-0.6718,-0.6498,-0.5824,-0.5727,-0.5727,-0.5824,-0.5824,-0.6423,-0.7621,-0.6423,-0.6523,-0.7624,-0.7428,-0.7329,-0.7335,-0.8179,-0.8347,-0.8146,-0.7859,-0.7411,-0.6934,-0.6676,-0.6334,0.0,0.0,-0.5526,-0.5403,-0.5548,-0.5329,-0.4934,-0.469,-0.468,-0.4614,-0.4191,0.0,0.0,-0.5786,-0.6659,-0.734,-0.7088,-0.7573,-0.8038,-0.7973,-0.794,-0.796,-0.8028,-0.8075,-0.8126,-0.8197,-0.8153,-0.7449,-0.5753,-0.2348,-0.0101,-0.0394,-0.1088,-0.1595,-0.1604,-0.1612,-0.1617,-0.1617,-0.1617,-0.1617,-0.1617,-0.1617,-0.1617,-0.1617,-0.1617,-0.1617,-0.1617,-0.0504,0.0806,0.2315,0.342,0.4628,0.5839,0.5839,0.5839,0.5839,0.5839,0.6022,0.6192,0.6192,0.6171,0.6142,0.6142,0.6142,0.6142,0.6142,0.6262,0.6487,0.0,0.0,0.0,0.0,0.0,0.0,0.0,0.0,0.0,0.0,0.0,0.0,0.0,0.0,0.0,0.0,0.0,0.0,0.0,-0.4731,-0.5427,-0.6254,-0.6841,-0.7385,-0.7969,-0.7839,-0.7889,-0.8329,-0.8038,-0.8038,-0.8329,-0.8329,-0.8428,-0.8726,-0.8722,-0.8722,-0.8726,-0.8726,-0.8627,-0.8347,-0.8603,-0.8382,-0.7787,-0.7495,-0.7105,-0.6712,-0.6386,0.0,0.0,0.0,-0.5024,-0.494,-0.5061,-0.4916,0.0,-0.4875,-0.4709,-0.4363,-0.3753,-0.4896,-0.6339,-0.6557,-0.7168,-0.7692,-0.813,-0.8235,-0.8241,-0.8255,-0.8255,-0.8211,-0.8065,-0.8163,-0.8214,-0.8069,-0.8184,-0.8241,-0.7912,-0.3368,-0.0294,-0.1276,-0.1353,-0.1444,0.0,-0.1599,-0.1617,-0.1617,-0.1617,-0.1617,-0.1617,-0.1617,-0.1617,-0.1617,-0.1617,-0.1617,-0.1617,-0.0303,0.0907,0.2013,0.332,0.4528,0.5636,0.5636,0.5636,0.5636,0.5636,0.5582,0.5494,0.5494,0.5528,0.5434,0.5434,0.5434,0.5434,0.5434,0.579,0.6274,0.0,0.0,0.0,0.0,0.0,0.0,0.0,0.0,0.0,0.0,0.0,0.0,0.0,0.0,0.0,0.0,0.0,0.0,0.0,-0.4308,-0.4957,-0.5571,-0.6301,-0.6877,-0.717,-0.7241,-0.7441,-0.7688,-0.7691,-0.7648,-0.7842,-0.7842,-0.803,-0.8225,-0.8132,-0.8279,-0.838,-0.8178,-0.8258,-0.8395,-0.8042,-0.7767,-0.7604,-0.7004,-0.6373,-0.58,0.0,0.0,0.0,-0.4299,-0.4039,-0.3825,-0.4102,-0.4004,-0.3846,-0.3983,-0.5362,-0.6638,-0.581,-0.6576,-0.7628,-0.7597,-0.7939,-0.8374,-0.8526,-0.8564,-0.8533,-0.8431,-0.8333,-0.8226,-0.8058,-0.7989,-0.7879,-0.8018,-0.7945,-0.7997,-0.7969,-0.4899,-0.2267,-0.1059,-0.1272,0.0,0.0,0.0,0.0,-0.1615,-0.1617,-0.1617,-0.1617,-0.1617,-0.1626,-0.1646,-0.1627,-0.1626,-0.1647,0.0203,0.1511,0.2013,0.3925,0.4935,0.5338,0.5135,0.5101,0.5239,0.5239,0.538,0.548,0.548,0.5458,0.5424,0.5424,0.5424,0.5424,0.5424,0.5497,0.5568,0.0,0.0,0.0,0.0,0.0,0.0,0.0,0.0,0.0,0.0,0.0,0.0,0.0,0.0,0.0,0.0,0.0,0.0,0.0,0.0,-0.4546,-0.4984,-0.5661,-0.6091,-0.6298,-0.6488,-0.6661,-0.681,-0.6919,-0.7194,-0.7639,-0.7663,-0.7983,-0.8434,-0.8359,-0.8261,-0.8225,-0.7924,-0.7809,-0.7794,-0.721,-0.7,-0.697,-0.6322,-0.5745,0.0,0.0,0.0,0.0,-0.3917,-0.3696,-0.3522,-0.3741,-0.3527,-0.3232,-0.35,-0.5407,-0.7346,-0.7205,-0.7603,-0.8095,-0.8316,-0.8537,-0.8723,-0.8777,-0.875,-0.8621,-0.8306,-0.8283,-0.8151,-0.7861,-0.719,-0.6773,-0.7197,-0.7303,-0.746,-0.7934,-0.6486,-0.463,-0.2401,-0.2247,-0.2064,0.0,0.0,0.0,-0.1614,-0.1627,-0.1633,-0.1633,-0.1643,-0.1657,-0.1677,-0.1649,-0.1745,-0.1869,-0.0306,0.0706,0.1309,0.3423,0.4533,0.4533,0.4704,0.4874,0.4946,0.5012,0.5041,0.514,0.514,0.5096,0.5032,0.5032,0.5032,0.5032,0.5032,0.4988,0.4945,0.0,0.0,0.0,0.0,0.0,0.0,0.0,0.0,0.0,0.0,0.0,0.0,0.0,0.0,0.0,0.0,0.0,0.0,0.0,0.0,0.0,-0.4633,-0.4935,-0.5233,-0.5525,-0.5549,-0.5627,-0.5769,-0.6061,-0.6659,-0.7495,-0.7756,-0.8316,-0.9124,-0.9133,-0.8759,-0.8078,-0.7837,-0.7335,-0.6661,-0.6349,-0.6142,-0.5969,-0.5511,0.0,0.0,0.0,0.0,0.0,-0.4024,-0.3978,-0.399,-0.4051,-0.3467,-0.2937,-0.359,-0.5024,-0.6702,-0.7919,-0.8023,-0.7875,-0.8733,-0.8835,-0.8757,-0.8896,-0.8798,-0.8506,-0.7913,-0.8023,-0.8012,0.0,0.0,-0.5002,-0.5918,-0.6321,-0.685,-0.7856,-0.7979,-0.7214,0.0,0.0,0.0,0.0,0.0,0.0,-0.162,0.0,-0.1662,-0.1662,-0.1689,-0.1705,-0.1707,-0.1679,-0.1872,-0.208,-0.1736,-0.1011,0.0101,0.2214,0.3218,0.3217,0.4246,0.4743,0.481,0.473,0.4643,0.4559,0.4559,0.4455,0.43,0.43,0.43,0.43,0.43,0.43,0.4401,0.0,0.0,0.0,0.0,0.0,0.0,0.0,0.0,0.0,0.0,0.0,0.0,0.0,0.0,0.0,0.0,0.0,0.0,0.0,0.0,0.0,0.0,0.0,0.0,0.0,0.0,0.0,0.0,0.0,-0.5609,-0.5931,-0.601,-0.6187,-0.6401,-0.6531,-0.647,-0.6291,-0.6324,-0.6416,-0.6485,0.0,-0.58,-0.58,0.0,0.0,0.0,0.0,0.0,0.0,0.0,0.0,-0.4162,-0.4574,-0.4534,-0.4606,-0.5845,-0.6929,-0.7831,-0.7988,-0.8333,-0.8679,-0.9015,-0.8988,-0.8862,-0.8784,-0.8479,-0.7972,-0.7302,-0.7446,-0.7153,0.0,0.0,0.0,-0.6504,-0.7107,0.0,-0.7887,-0.8039,0.0,-0.6163,0.0,-0.4849,-0.3004,-0.2977,0.0,0.0,-0.1669,-0.1662,-0.1662,-0.1689,-0.1714,-0.1737,-0.1709,-0.1704,-0.1834,-0.0941,-0.0103,0.0514,0.2298,0.3057,0.2858,0.4064,0.4581,0.4536,0.4514,0.4453,0.4369,0.4369,0.434,0.43,0.43,0.4212,0.4036,0.421,0.421,0.4037,0.0,0.0,0.0,0.0,0.0,0.0,0.0,0.0,0.0,0.0,0.0,0.0,0.0,0.0,0.0,0.0,0.0,0.0,0.0,0.0,0.0,0.0,0.0,0.0,0.0,0.0,0.0,0.0,0.0,0.0,0.0,-0.5506,-0.5754,-0.618,-0.6224,-0.6069,-0.577,-0.5781,0.0,0.0,0.0,0.0,0.0,0.0,0.0,0.0,0.0,0.0,0.0,0.0,0.0,-0.4879,-0.5414,-0.5672,-0.5883,-0.7035,0.0,-0.8372,-0.8474,-0.8825,-0.9154,-0.9232,-0.9096,-0.8722,-0.8203,-0.7822,-0.7343,-0.6508,-0.6481,0.0,-0.4534,-0.3869,0.0,0.0,0.0,0.0,-0.7416,-0.7429,-0.744,0.0,-0.674,0.0,-0.3821,-0.3577,-0.2981,0.0,-0.1702,-0.1701,-0.1701,-0.1728,-0.1861,-0.1991,-0.1958,-0.1942,-0.2162,-0.1472,-0.0932,-0.0724,0.1196,0.1958,0.1858,0.3045,0.3566,0.3462,0.3059,0.3118,0.3537,0.3537,0.3791,0.4123,0.4123,0.3946,0.3767,0.3944,0.3855,0.3767,0.0,0.0,0.0,0.0,0.0,0.0,0.0,0.0,0.0,0.0,-0.336,0.0,0.0,0.0,0.0,0.0,0.0,0.0,0.0,0.0,0.0,0.0,0.0,0.0,0.0,0.0,0.0,0.0,0.0,0.0,0.0,0.0,0.0,0.0,0.0,0.0,0.0,0.0,0.0,0.0,0.0,0.0,0.0,0.0,0.0,0.0,0.0,0.0,0.0,0.0,-0.6876,-0.6053,-0.6669,-0.693,-0.7071,-0.776,-0.8163,-0.8509,-0.9062,-0.931,-0.9405,-0.9388,-0.9144,-0.8602,-0.7563,-0.7044,-0.6506,-0.5666,0.0,-0.4887,-0.4174,-0.3734,-0.3797,-0.4748,0.0,-0.6345,-0.6857,-0.6936,-0.7308,-0.8221,-0.7473,-0.6282,-0.4585,-0.4173,-0.3428,-0.2037,-0.2066,-0.1972,-0.1859,-0.1778,-0.1907,-0.2132,-0.2207,-0.228,-0.2567,-0.2516,-0.2489,-0.2593,-0.0499,0.0489,0.0487,0.1597,0.2141,0.217,0.1205,0.147,0.2571,0.2571,0.3093,0.3857,0.3857,0.3767,0.3587,0.3587,0.3587,0.3587,0.0,0.0,0.0,0.0,0.0,0.0,0.0,0.0,0.0,0.0,-0.3537,-0.3537,0.0,0.0,0.0,0.0,0.0,0.0,0.0,0.0,0.0,0.0,0.0,0.0,0.0,0.0,0.0,0.0,0.0,0.0,0.0,0.0,0.0,0.0,0.0,0.0,0.0,0.0,0.0,0.0,0.0,0.0,0.0,0.0,0.0,0.0,0.0,0.0,0.0,0.0,-0.7902,-0.7898,-0.8693,-0.86,-0.8248,-0.8632,-0.8866,-0.9076,-0.9435,-0.9551,-0.954,-0.9412,-0.9062,-0.8448,-0.7411,-0.6669,0.0,0.0,-0.3895,-0.319,-0.2064,-0.2392,-0.3797,-0.6585,-0.6728,-0.6763,-0.7694,-0.7918,-0.8153,0.0,-0.8377,-0.7886,-0.6506,-0.6699,0.0,0.0,-0.3446,-0.31,-0.186,-0.1778,-0.1795,-0.1907,-0.2096,-0.2294,-0.2614,-0.2531,-0.2697,-0.3112,-0.1397,-0.0777,-0.0956,0.0373,0.0916,0.0995,0.0811,0.0,0.225,0.225,0.2786,0.3678,0.3678,0.3497,0.3317,0.3497,0.3497,0.3317,0.0,0.0,0.0,0.0,0.0,0.0,0.0,-0.3398,-0.3306,-0.3571,-0.3622,-0.3581,-0.3581,-0.3581,-0.3581,0.0,0.0,0.0,0.0,0.0,0.0,0.0,0.0,0.0,0.0,0.0,0.0,0.0,0.0,0.0,0.0,0.0,0.0,0.0,0.0,0.0,0.0,0.0,0.0,0.0,0.0,0.0,0.0,0.0,0.0,0.0,0.0,0.0,0.0,0.0,-0.8369,-0.9165,-0.972,-0.9678,-0.9391,-0.9158,-0.9154,-0.9337,-0.9639,-0.972,-0.9663,-0.9439,-0.9042,-0.8327,-0.6816,0.0,0.0,0.0,-0.308,-0.2719,-0.2149,-0.2819,0.0,-0.5464,-0.5996,-0.6468,-0.7214,-0.7741,0.0,-0.8353,-0.8574,-0.8304,0.0,-0.7227,-0.6591,-0.4693,-0.4024,-0.3233,-0.1884,-0.1899,-0.2123,-0.2215,-0.2307,-0.2614,-0.3024,-0.2839,-0.2906,-0.332,-0.1997,-0.1358,-0.1426,-0.0932,-0.0639,-0.0626,-0.0626,0.0,0.1074,0.17,0.2508,0.3406,0.3406,0.3229,0.3051,0.323,0.3141,0.3051,0.0,0.0,0.0,0.0,0.0,0.0,-0.3991,-0.3534,-0.3303,-0.3568,-0.3619,-0.3581,-0.3581,-0.3581,-0.3581,0.0,0.0,0.0,0.0,0.0,0.0,0.0,0.0,0.0,0.0,0.0,0.0,0.0,0.0,0.0,0.0,0.0,0.0,0.0,0.0,0.0,0.0,0.0,0.0,0.0,0.0,0.0,0.0,0.0,0.0,0.0,0.0,0.0,0.0,0.0,-0.8202,-0.9375,-0.9657,-1.0044,-1.0152,-0.9251,-0.9113,-0.9398,-0.9693,-0.9798,-0.9741,-0.9415,-0.8971,-0.8064,-0.6174,-0.5341,0.0,-0.3004,-0.2697,-0.2724,-0.2705,-0.3346,-0.3951,0.0,-0.4933,-0.5845,-0.6627,-0.725,-0.7878,0.0,-0.8645,0.0,-0.759,-0.7598,0.0,-0.5917,-0.4804,-0.3469,-0.1907,-0.202,-0.2342,-0.2531,-0.2622,-0.2918,-0.3306,-0.313,-0.3095,-0.33,-0.2502,-0.205,-0.1914,-0.2158,-0.2206,-0.2073,-0.2153,-0.1432,-0.0179,0.0895,0.188,0.2868,0.3048,0.3051,0.2875,0.2873,0.2873,0.2873,0.0,0.0,0.0,0.0,0.0,0.0,-0.3023,-0.3663,-0.4039,-0.367,-0.3581,-0.3581,-0.3581,-0.3581,-0.3581,0.0,0.0,0.0,0.0,0.0,0.0,0.0,0.0,0.0,0.0,0.0,0.0,0.0,0.0,0.0,0.0,0.0,0.0,0.0,0.0,0.0,0.0,0.0,0.0,0.0,0.0,0.0,0.0,0.0,0.0,0.0,0.0,0.0,0.0,0.0,0.0,-0.7484,-0.8015,-0.9012,-0.977,-0.8466,0.0,0.0,-0.9547,-0.9724,-0.9717,-0.9283,-0.8737,-0.7895,-0.602,0.0,-0.4327,-0.3007,-0.2685,-0.2689,-0.2681,-0.2763,-0.3193,-0.4295,0.0,-0.4894,-0.6486,-0.7066,-0.7585,-0.8428,0.0,0.0,-0.8716,-0.9044,-0.8709,-0.7482,-0.6475,-0.4693,-0.1907,-0.202,-0.2242,-0.2239,-0.2715,-0.2989,-0.2984,-0.34,-0.3442,-0.3238,-0.333,-0.329,-0.2933,-0.3165,-0.3101,-0.2947,-0.3253,-0.2599,0.0,-0.0537,0.0537,0.1615,0.2603,0.2873,0.2873,0.2604,0.2694,0.2873,0.0,0.0,0.0,0.0,0.0,0.0,-0.294,-0.3711,-0.422,-0.4028,-0.3895,-0.3803,-0.3843,-0.3751,-0.3751,-0.3796,0.0,0.0,0.0,0.0,0.0,0.0,0.0,0.0,0.0,0.0,0.0,-0.5193,-0.5302,0.0,0.0,0.0,0.0,0.0,0.0,0.0,0.0,0.0,0.0,0.0,0.0,0.0,0.0,0.0,0.0,0.0,0.0,0.0,0.0,0.0,0.0,0.0,-0.583,-0.6825,0.0,0.0,-0.8106,-0.8747,-0.9317,-0.9642,-0.9713,-0.9266,-0.8567,-0.7535,-0.5963,0.0,-0.4068,-0.2932,-0.2691,-0.2691,-0.2691,-0.2691,-0.2851,-0.3361,0.0,0.0,-0.505,-0.608,-0.6923,-0.7707,-0.832,0.0,0.0,0.0,-0.8933,-0.7703,-0.7365,-0.6362,-0.4362,-0.3805,-0.3344,-0.2764,-0.2945,-0.3109,-0.3149,-0.3309,-0.3369,-0.323,-0.3331,-0.3299,-0.3138,-0.3463,-0.3582,-0.3417,-0.3076,-0.2598,0.0,-0.0984,-0.0268,0.0179,0.0537,0.0717,0.0806,0.1254,0.1523,0.1613,0.0,0.0,0.0,0.0,0.0,-0.3318,-0.3126,-0.3806,-0.4216,-0.3928,-0.398,-0.4028,-0.3976,-0.388,-0.3832,-0.3877,-0.4056,0.0,0.0,0.0,0.0,0.0,0.0,0.0,0.0,0.0,-0.5088,-0.5751,-0.5923,-0.6455,0.0,0.0,0.0,0.0,0.0,0.0,0.0,0.0,0.0,0.0,0.0,0.0,0.0,0.0,0.0,0.0,0.0,0.0,0.0,0.0,0.0,0.0,0.0,0.0,0.0,0.0,-0.7326,-0.8079,-0.8737,-0.9232,-0.9462,-0.9055,-0.8279,-0.722,0.0,0.0,-0.3848,-0.2913,-0.2691,-0.2691,-0.2691,-0.2691,-0.2691,0.0,0.0,-0.3624,-0.4153,-0.5163,-0.6054,0.0,0.0,-0.8037,0.0,-0.9054,-0.9044,-0.8149,-0.8478,-0.8033,-0.67,-0.6142,-0.5113,-0.3636,-0.3727,-0.3674,-0.3373,-0.3442,-0.3401,-0.3258,-0.3341,-0.3299,-0.3236,-0.3655,-0.3772,-0.3786,-0.3255,-0.2955,0.0,-0.17,-0.1253,-0.1163,-0.0805,-0.0715,-0.0715,-0.0089,0.0179,0.0358,0.0,0.0,0.0,0.0,0.0,0.0,-0.3534,-0.3991,-0.3987,-0.302,-0.37,-0.42,-0.3928,-0.388,-0.3921,-0.3909,-0.4364,0.0,0.0,0.0,0.0,0.0,0.0,0.0,0.0,0.0,-0.5369,-0.6185,-0.6185,-0.6873,-0.8168,-0.8162,-0.8287,0.0,0.0,0.0,0.0,0.0,0.0,0.0,0.0,0.0,0.0,0.0,0.0,0.0,0.0,0.0,0.0,0.0,0.0,0.0,0.0,0.0,0.0,0.0,-0.6224,-0.7251,-0.7706,-0.8374,-0.8872,-0.8567,-0.7814,-0.6817,0.0,-0.4663,-0.3751,-0.2897,-0.2691,-0.2691,-0.2691,-0.2691,-0.2691,-0.2691,-0.2899,0.0,-0.4082,-0.4492,-0.4988,0.0,0.0,-0.6841,-0.7499,-0.8694,-0.9379,-0.9379,-0.9926,0.0,-0.8484,-0.8702,-0.7587,-0.492,-0.517,-0.4691,-0.3495,-0.3587,-0.3524,-0.332,-0.3464,-0.36,-0.3531,-0.3753,-0.3865,-0.3966,-0.4156,-0.4119,0.0,-0.2865,-0.2505,-0.2323,-0.1163,-0.0894,-0.1071,-0.1073,-0.0895,-0.0716,0.0,0.0,0.0,0.0,0.0,0.0,-0.3078,-0.3262,-0.348,-0.3825,-0.4112,-0.4256,-0.4188,-0.4188,-0.4184,-0.418,-0.4172,0.0,0.0,0.0,0.0,0.0,0.0,0.0,0.0,0.0,-0.5591,-0.6326,-0.6665,-0.7274,-0.8221,-0.8487,-0.8547,-0.839,-0.8677,0.0,0.0,0.0,0.0,0.0,0.0,0.0,0.0,0.0,0.0,0.0,0.0,0.0,0.0,0.0,0.0,0.0,0.0,0.0,0.0,0.0,0.0,0.0,-0.6746,-0.7295,-0.7638,-0.7339,-0.6742,-0.597,-0.5018,-0.4218,-0.3504,-0.2815,-0.2691,-0.2691,-0.2691,-0.2691,-0.2711,-0.2774,-0.283,0.0,0.0,0.0,0.0,-0.6309,-0.7453,-0.834,0.0,0.0,-0.9706,-0.9706,-1.0257,-1.0363,-0.9812,-1.0139,-0.9133,-0.6473,-0.6441,-0.595,-0.4693,-0.4693,-0.4194,-0.332,-0.3362,-0.3399,-0.3531,-0.3753,-0.3865,-0.3966,-0.4248,-0.4208,-0.4119,-0.3849,-0.376,-0.3669,-0.3491,-0.3491,-0.3489,-0.2952,-0.2772,-0.2593,0.0,0.0,0.0,0.0,0.0,0.0,-0.3126,-0.3306,-0.3527,-0.3734,-0.4064,-0.4292,-0.432,-0.4316,-0.4316,-0.4308,-0.4164,0.0,0.0,0.0,0.0,0.0,0.0,0.0,0.0,-0.5149,-0.5766,-0.6659,-0.6948,-0.7573,-0.8434,-0.8699,-0.8651,-0.839,-0.8677,-0.8644,0.0,0.0,0.0,0.0,0.0,0.0,-0.7836,0.0,0.0,0.0,0.0,0.0,0.0,0.0,0.0,0.0,0.0,0.0,0.0,0.0,-0.4399,-0.5138,0.0,-0.6335,-0.6692,-0.6566,-0.6081,0.0,0.0,-0.4108,-0.3471,-0.2968,-0.2856,-0.28,-0.2747,-0.28,-0.2819,-0.2766,-0.2949,0.0,0.0,0.0,0.0,-0.6381,0.0,0.0,0.0,-0.9345,-0.9596,-0.9596,-1.0253,-1.0582,-1.0472,-1.1021,-1.0542,-0.8719,-0.8329,-0.7543,-0.6374,-0.5762,-0.502,-0.4245,-0.3714,-0.3521,-0.3741,-0.3791,-0.4098,-0.4377,-0.4322,-0.4478,0.0,-0.4389,-0.4478,-0.4746,-0.4659,-0.4837,-0.4926,-0.4208,-0.4026,-0.4026,0.0,0.0,0.0,0.0,0.0,0.0,0.0,-0.3991,-0.3987,-0.3108,-0.3778,-0.432,-0.4316,-0.4316,-0.4312,-0.4299,-0.4347,0.0,0.0,0.0,0.0,0.0,0.0,0.0,-0.4661,-0.5106,-0.59,-0.7098,-0.7098,-0.7672,-0.8804,-0.8804,-0.8651,-0.839,-0.8677,-0.8657,-0.8424,-0.8691,-0.8804,-0.8752,-0.8381,-0.8487,0.0,0.0,0.0,0.0,0.0,0.0,0.0,0.0,0.0,0.0,0.0,0.0,0.0,0.0,0.0,0.0,0.0,-0.5477,-0.5952,-0.6098,-0.5782,0.0,0.0,0.0,0.0,-0.3188,-0.313,-0.3079,-0.2811,-0.2977,-0.3093,-0.2828,-0.3216,0.0,0.0,-0.4675,0.0,0.0,-0.7171,0.0,-0.7959,-0.8906,-0.9379,-0.9379,-1.0257,-1.0692,-1.0692,-1.124,-1.1485,-1.1296,-1.0361,-0.9329,-0.8097,-0.6763,-0.608,-0.5975,-0.4694,-0.4052,-0.4154,-0.4154,-0.4472,0.0,-0.4476,-0.4746,-0.5282,-0.4656,-0.4746,-0.5371,-0.4928,-0.5015,-0.5371,-0.4928,-0.4926,-0.501,0.0,0.0,0.0,0.0,0.0,0.0,0.0,0.0,0.0,0.0,-0.4144,-0.4284,-0.432,-0.4316,-0.4316,0.0,0.0,0.0,0.0,0.0,0.0,0.0,0.0,0.0,-0.5149,-0.5458,-0.613,-0.72,-0.72,-0.7722,-0.8804,-0.8804,-0.8651,-0.839,-0.8677,-0.8771,-0.8711,-0.8778,-0.8804,-0.8804,-0.8699,-0.8699,0.0,0.0,0.0,0.0,-0.5062,-0.4574,0.0,0.0,0.0,0.0,0.0,0.0,0.0,0.0,-0.3965,-0.406,-0.4233,0.0,-0.484,-0.4937,-0.4838,-0.4616,0.0,0.0,0.0,0.0,0.0,-0.3495,-0.3525,-0.3598,-0.3656,-0.384,0.0,0.0,-0.5009,0.0,0.0,-0.749,-0.8166,-0.8485,-0.8252,-0.908,-0.9706,-0.9706,-1.0363,-1.0692,-1.0692,-1.1021,-1.1155,-1.0975,-1.101,-1.0309,-0.8888,-0.8435,-0.7762,-0.6954,-0.6384,-0.5909,-0.5339,-0.5339,-0.5013,-0.4478,-0.4569,-0.4659,-0.4837,-0.4835,-0.4921,-0.5099,-0.5193,-0.5282,-0.5371,-0.5466,-0.5641,-0.5813,0.0,0.0,0.0,0.0,0.0,0.0,0.0,0.0,0.0,0.0,-0.428,-0.428,-0.4308,-0.4312,-0.4316,0.0,0.0,0.0,0.0,0.0,0.0,0.0,0.0,-0.5029,-0.5159,-0.5507,-0.6175,-0.72,-0.72,-0.7728,-0.8804,-0.8804,-0.8724,-0.8577,-0.8738,-0.8804,-0.8804,-0.8804,-0.8804,-0.8804,-0.8804,0.0,0.0,0.0,0.0,0.0,-0.5171,-0.4529,0.0,-0.4351,-0.4251,-0.4197,0.0,0.0,0.0,0.0,-0.4019,-0.4036,-0.4056,-0.4243,-0.4379,-0.4501,-0.4519,-0.4463,-0.4298,0.0,0.0,0.0,0.0,-0.3769,-0.3721,-0.4389,-0.4766,0.0,-0.4998,0.0,0.0,0.0,-0.7509,-0.778,-0.8299,-0.8618,0.0,-0.9334,-0.9816,-0.9816,-1.0472,-1.0907,-1.0907,-1.105,-1.1138,-1.116,-1.1172,-1.0906,-1.0252,-0.9485,-0.8909,-0.8403,-0.7709,-0.7025,-0.653,-0.653,-0.6277,-0.5891,-0.5364,-0.5366,-0.5633,-0.5102,-0.5013,-0.5191,-0.5371,-0.5463,-0.5552,-0.5552,-0.573,-0.5908,0.0,0.0,0.0,0.0,0.0,0.0,0.0,0.0,0.0,0.0,0.0,0.0,0.0,0.0,0.0,0.0,0.0,0.0,0.0,0.0,0.0,0.0,0.0,-0.5048,-0.5076,-0.5515,-0.6192,-0.7164,-0.7212,-0.7766,-0.8752,-0.8804,-0.8857,-0.8804,-0.8811,-0.8804,-0.8804,-0.8804,-0.8804,-0.8804,-0.8699,0.0,0.0,0.0,0.0,0.0,0.0,0.0,0.0,-0.4334,-0.4311,-0.419,-0.4167,0.0,0.0,0.0,0.0,0.0,-0.4167,-0.4417,-0.4609,-0.4505,-0.4519,-0.4519,-0.4519,0.0,0.0,0.0,0.0,0.0,0.0,-0.522,0.0,0.0,0.0,0.0,-0.745,-0.7624,-0.7959,-0.8453,-0.8851,0.0,-0.9446,-0.9855,-1.0116,-1.0139,-1.0639,-1.095,-1.1084,-1.113,-1.1256,-1.1263,-1.1069,-1.1028,-1.1266,-1.0133,-0.9776,-0.9964,-0.8824,-0.8026,-0.7713,-0.7692,-0.7696,-0.7654,-0.6599,0.0,-0.6953,-0.5722,-0.5547,-0.5902,-0.5902,-0.5994,-0.6086,-0.5902,-0.5991,-0.6171,0.0,0.0,0.0,0.0,0.0,0.0,0.0,0.0,0.0,0.0,0.0,0.0,0.0,0.0,0.0,0.0,0.0,0.0,0.0,0.0,0.0,-0.5082,-0.5203,-0.5287,-0.5428,-0.5662,-0.616,-0.6924,-0.7238,-0.775,-0.848,-0.8798,-0.8962,-0.8956,-0.8857,-0.8804,-0.8804,-0.8804,-0.8804,-0.8752,-0.8256,0.0,0.0,0.0,0.0,0.0,0.0,0.0,0.0,-0.3975,-0.4053,-0.4174,-0.4043,0.0,0.0,0.0,0.0,0.0,-0.422,-0.5292,-0.6173,-0.4829,-0.4519,-0.4519,0.0,0.0,0.0,0.0,0.0,0.0,0.0,-0.5747,-0.5535,0.0,0.0,-0.898,0.0,0.0,-1.1756,-1.1716,0.0,-1.2408,-1.2064,-1.1631,-1.1487,-1.1647,-1.083,-1.0522,-1.0787,-1.0725,-1.0742,-1.076,-1.0562,-1.0592,-1.0651,-1.0683,-1.0747,-1.1025,-1.0416,-0.9741,-0.8882,-0.8907,-0.838,-0.7559,0.0,-0.7918,-0.8006,-0.7921,-0.7925,-0.8013,-0.8013,-0.8017,-0.8105,-0.8013,-0.8193,-0.8277,0.0,0.0,0.0,0.0,0.0,0.0,0.0,0.0,0.0,0.0,0.0,0.0,0.0,0.0,0.0,0.0,0.0,0.0,0.0,0.0,0.0,-0.566,-0.556,-0.5555,-0.5616,-0.5795,-0.6309,-0.7042,-0.7093,-0.758,-0.8427,-0.8798,-0.9008,-0.9008,-0.8956,-0.891,-0.891,-0.8593,-0.854,-0.8533,0.0,0.0,0.0,0.0,0.0,0.0,0.0,0.0,0.0,0.0,-0.3955,-0.4005,-0.4016,0.0,0.0,0.0,0.0,0.0,-0.4362,-0.4952,-0.5576,-0.5525,-0.6198,-0.6762,0.0,0.0,0.0,0.0,0.0,0.0,0.0,0.0,-0.8279,-1.0355,0.0,-1.0183,-1.1519,-1.1686,-1.1724,0.0,0.0,-1.2491,-1.2739,-1.2432,-1.2491,-1.279,-1.2314,-1.2147,-1.2551,-1.174,-1.1477,-1.1702,-1.0904,-1.0605,-1.0896,-1.0986,-1.1019,-1.0997,-1.0982,-1.0729,-1.0159,-1.0154,-0.987,-0.9323,0.0,-0.8794,-0.8882,-0.8536,-0.836,-0.836,-0.8627,-0.8632,-0.8544,-0.8627,-0.8973,-0.9222,0.0,0.0,0.0,0.0,0.0,0.0,0.0,0.0,0.0,0.0,0.0,0.0,0.0,0.0,0.0,0.0,0.0,0.0,0.0,0.0,-0.5042,-0.596,-0.5865,-0.5795,-0.5903,-0.5997,-0.6396,-0.7143,-0.6971,-0.7425,-0.8421,-0.8692,-0.885,-0.8896,-0.885,-0.8798,-0.8738,-0.8315,-0.8209,-0.8203,0.0,0.0,0.0,0.0,0.0,0.0,0.0,0.0,0.0,0.0,0.0,0.0,0.0,0.0,0.0,-0.42,-0.4244,-0.4324,-0.4433,-0.4762,-0.5293,-0.6168,0.0,0.0,0.0,0.0,0.0,0.0,0.0,0.0,0.0,-0.9088,0.0,-1.2532,-1.1935,-1.1612,-1.2595,-1.2416,-1.2354,-1.2987,-1.2896,-1.3116,-1.3661,-1.3469,-1.3464,-1.392,-1.3724,-1.369,-1.3937,-1.2942,-1.2612,-1.3095,-1.1879,-1.1467,-1.1932,-1.1646,-1.1281,-1.0939,-1.1161,-1.1146,-1.0895,-1.0934,-1.0994,-1.0921,-1.0028,-0.985,-0.9932,-0.9235,-0.8969,-0.9056,-0.9327,-0.9414,-0.9244,-0.9506,-0.9666,-0.9822,0.0,0.0,0.0,0.0,0.0,0.0,0.0,0.0,0.0,0.0,0.0,0.0,0.0,0.0,0.0,0.0,0.0,0.0,0.0,0.0,-0.562,-0.5728,-0.5871,-0.6129,-0.6457,-0.6319,-0.6499,-0.6907,-0.6907,-0.7396,-0.8421,-0.8321,-0.8374,-0.8626,-0.8474,-0.8256,-0.7978,-0.7925,-0.7931,-0.7871,-0.7015,0.0,0.0,0.0,0.0,0.0,0.0,0.0,0.0,0.0,0.0,0.0,0.0,0.0,-0.4207,-0.4406,-0.4501,-0.4505,-0.4515,-0.5584,-0.6666,-0.6449,-0.5764,0.0,0.0,0.0,0.0,-0.9656,0.0,0.0,0.0,-1.0492,-1.0802,-1.1237,-1.2228,-1.3727,-1.5717,0.0,-1.6011,-1.6361,-1.6308,-1.6327,-1.6393,-1.5543,-1.4898,-1.4945,-1.4005,-1.3642,-1.3783,-1.3739,-1.398,-1.449,-1.3859,-1.367,-1.3948,-1.2844,-1.1789,-1.0935,-1.1015,-1.091,-1.0622,-1.0865,-1.1024,-1.1008,-1.1089,-1.1176,-1.1176,-1.1089,-1.1262,-1.1435,-1.1176,-1.1262,-1.1435,-1.1521,-1.1068,-1.0524,0.0,0.0,0.0,0.0,0.0,0.0,0.0,0.0,0.0,0.0,0.0,0.0,0.0,0.0,0.0,0.0,0.0,0.0,0.0,-0.5717,-0.5777,-0.5895,-0.5844,-0.6055,-0.6616,-0.6468,-0.653,-0.6761,-0.7192,-0.7408,-0.7467,-0.8055,-0.8156,-0.7925,-0.8037,-0.7877,-0.7503,-0.7348,-0.7187,-0.7015,-0.6159,-0.5832,0.0,0.0,0.0,0.0,0.0,0.0,0.0,0.0,-0.3742,-0.3764,-0.3727,-0.3914,-0.4117,-0.4172,-0.4317,-0.4519,-0.4519,-0.5533,-0.6628,-0.6671,0.0,0.0,0.0,0.0,-1.0007,-1.0399,-1.0901,0.0,0.0,0.0,-1.3319,-1.325,-1.4116,-1.5165,-1.6186,-1.6216,-1.6305,-1.6708,-1.6481,-1.6456,-1.6642,-1.5956,-1.5744,-1.6242,-1.5741,-1.556,-1.5952,-1.5308,-1.5049,-1.5317,-1.4387,-1.3916,-1.4205,-1.3642,-1.312,-1.2633,-1.169,-1.1133,-1.104,-1.1131,-1.1181,-1.1181,-1.1267,-1.1262,-1.1262,-1.1262,-1.1354,-1.144,-1.1527,-1.178,-1.2112,-1.2112,-1.2106,-1.218,0.0,0.0,0.0,0.0,0.0,0.0,0.0,0.0,0.0,0.0,0.0,0.0,0.0,0.0,0.0,0.0,0.0,0.0,-0.5658,-0.5712,-0.5777,-0.5906,-0.5844,-0.5987,-0.641,-0.6451,-0.653,-0.6761,-0.7133,-0.7085,-0.6771,-0.7461,-0.7557,-0.7224,-0.7337,-0.7176,-0.6858,-0.6761,-0.6652,-0.6426,-0.5837,-0.5529,0.0,0.0,0.0,0.0,0.0,0.0,0.0,0.0,-0.3748,-0.3681,-0.3736,-0.3856,-0.4036,-0.4131,-0.4584,-0.511,-0.511,-0.5802,-0.6685,0.0,0.0,0.0,0.0,0.0,-1.1341,-1.2128,-1.2403,0.0,0.0,0.0,0.0,0.0,-1.5166,-1.6001,-1.6106,-1.6157,-1.63,-1.6512,-1.6354,-1.6312,-1.6581,-1.6305,-1.6407,-1.6878,-1.6871,-1.6958,-1.7153,-1.6472,-1.6164,-1.6365,-1.5402,-1.5003,-1.5198,-1.471,-1.4408,-1.421,-1.2784,-1.2112,-1.2026,-1.1774,-1.1688,-1.1688,-1.1348,-1.1267,-1.1262,-1.1262,-1.1181,-1.1267,-1.1613,-1.1952,-1.2283,-1.2369,-1.2619,-1.2966,0.0,0.0,0.0,0.0,0.0,0.0,0.0,0.0,0.0,0.0,0.0,0.0,0.0,0.0,0.0,0.0,0.0,0.0,-0.5707,-0.569,-0.568,-0.568,-0.5895,-0.5927,-0.58,-0.6146,-0.6487,-0.6879,-0.6549,-0.6381,-0.6381,-0.6381,-0.649,-0.6588,-0.6317,-0.6105,-0.6,-0.6273,-0.6322,-0.6209,-0.6209,-0.5815,-0.5276,0.0,0.0,0.0,0.0,0.0,0.0,0.0,-0.388,-0.3894,-0.3973,-0.4019,-0.4077,-0.4375,-0.5415,-0.6404,-0.6404,-0.6653,-0.7179,0.0,0.0,0.0,-1.1384,-1.1557,-1.1944,-1.5147,0.0,-1.33,-1.3307,0.0,0.0,-1.3667,-1.5068,-1.6123,-1.5832,-1.6028,-1.6224,-1.6224,-1.6224,-1.6312,-1.6588,-1.6878,-1.6885,-1.6581,-1.7044,-1.7239,-1.6979,-1.7153,-1.7426,-1.7721,-1.74,-1.7243,-1.7437,-1.6117,-1.5447,-1.5401,-1.4468,-1.3873,-1.3704,-1.2778,-1.2443,-1.2619,-1.1516,-1.1094,-1.1262,-1.1094,-1.1008,-1.1094,-1.1785,-1.2043,-1.2037,-1.2283,-1.2534,-1.279,0.0,0.0,0.0,0.0,0.0,0.0,0.0,0.0,0.0,0.0,0.0,0.0,0.0,0.0,0.0,0.0,0.0,0.0,-0.5685,-0.568,-0.568,-0.568,-0.5744,-0.5857,-0.5927,-0.6096,-0.6178,-0.6277,-0.6154,-0.6046,-0.5837,-0.6046,-0.5932,-0.5559,-0.5723,-0.5559,-0.523,-0.55,-0.55,-0.5281,-0.5175,-0.4965,-0.4707,0.0,0.0,0.0,0.0,0.0,0.0,0.0,0.0,0.0,-0.3846,-0.3934,-0.406,-0.4253,-0.4772,-0.5325,-0.5325,-0.6754,0.0,-0.7991,0.0,0.0,0.0,-1.2085,0.0,0.0,-1.4326,-1.3604,-1.4037,0.0,0.0,-1.4394,-1.5349,-1.613,-1.6123,-1.6305,-1.6595,-1.6697,-1.6791,-1.6791,-1.6878,-1.6777,-1.6784,-1.6878,-1.6972,-1.716,-1.7239,-1.7239,-1.7333,-1.7426,-1.7301,-1.7183,-1.7258,-1.6764,-1.643,-1.6415,-1.6088,-1.522,-1.3873,-1.362,-1.3542,-1.3542,-1.2613,-1.2106,-1.1935,-1.1262,-1.1596,-1.2431,-1.2863,-1.3457,-1.4041,-1.3704,-1.3457,-1.3457,0.0,0.0,0.0,0.0,0.0,0.0,0.0,0.0,0.0,0.0,0.0,0.0,0.0,0.0,0.0,0.0,0.0,0.0,0.0,-0.568,-0.568,-0.568,-0.568,-0.5742,-0.5872,-0.5791,-0.5751,-0.5837,-0.5828,-0.5664,-0.5403,-0.55,-0.5386,-0.5014,-0.5124,-0.5014,-0.4849,-0.512,-0.5117,-0.4897,-0.4904,-0.4754,-0.455,0.0,0.0,0.0,0.0,0.0,0.0,0.0,0.0,0.0,-0.3863,-0.3944,-0.4134,-0.4845,-0.5466,-0.612,-0.6847,-0.8121,0.0,-0.9635,-1.0734,-1.2037,-1.3179,0.0,0.0,0.0,0.0,-1.4641,-1.5113,-1.5609,0.0,-1.5264,-1.6225,-1.7052,-1.6951,-1.7138,-1.7419,-1.7527,-1.7254,-1.7023,-1.6986,-1.6779,-1.6907,-1.7318,-1.7613,-1.7629,-1.7576,-1.7819,-1.7725,-1.7143,-1.7169,-1.7264,-1.7228,-1.709,-1.7016,-1.6908,-1.6789,-1.6194,-1.5054,-1.4629,-1.4461,-1.4552,-1.3626,-1.3118,-1.2857,-1.2357,-1.2607,-1.336,-1.3782,-1.4287,-1.4873,-1.4629,-1.4468,-1.4384,0.0,0.0,0.0,0.0,0.0,0.0,0.0,0.0,0.0,0.0,0.0,0.0,0.0,0.0,0.0,0.0,0.0,0.0,0.0,0.0,-0.568,-0.568,-0.5701,-0.5681,-0.5654,-0.5373,-0.5307,-0.5542,-0.5504,-0.5348,-0.5069,-0.4956,-0.4853,-0.4868,-0.4632,-0.4574,-0.4688,-0.4948,-0.4925,-0.4856,-0.5085,-0.4942,-0.4521,-0.4278,0.0,0.0,0.0,0.0,0.0,0.0,0.0,0.0,-0.3927,-0.4029,-0.4302,-0.5801,-0.6799,-0.7846,-0.9638,0.0,0.0,-1.2216,-1.2296,0.0,-1.3831,-1.499,-1.5846,-1.6041,0.0,-1.5903,-1.6177,-1.6244,-1.6317,-1.6351,-1.7546,-1.8333,-1.8164,-1.8341,-1.8425,-1.8517,-1.771,-1.7235,-1.7198,-1.7161,-1.7384,-1.8102,-1.8553,-1.8611,-1.8221,-1.8824,-1.8597,-1.7349,-1.7535,-1.7557,-1.7538,-1.7417,-1.7255,-1.704,-1.6923,-1.6813,-1.6648,-1.5636,-1.5213,-1.5311,-1.4461,-1.3957,-1.3704,-1.3957,-1.3957,-1.3951,-1.4622,-1.4949,-1.5039,-1.5387,-1.5477,-1.547,0.0,0.0,0.0,0.0,0.0,0.0,0.0,0.0,0.0,0.0,0.0,0.0,0.0,0.0,0.0,0.0,0.0,0.0,0.0,0.0,-0.5583,-0.568,-0.5629,-0.5535,-0.5297,-0.522,-0.5217,-0.519,-0.5008,-0.4908,-0.4956,-0.468,-0.4636,-0.4751,-0.457,-0.4519,-0.4512,-0.4449,-0.4327,-0.4226,-0.4351,-0.4306,-0.4113,-0.4186,-0.4101,0.0,0.0,0.0,0.0,0.0,0.0,0.0,-0.3961,-0.4053,-0.4299,-0.5037,-0.6054,-0.7175,-0.7787,-0.9419,0.0,0.0,-1.2909,-1.4083,-1.4838,-1.5239,-1.5422,-1.5493,-1.5835,-1.6149,-1.6211,-1.6885,-1.7485,-1.7602,-1.8287,-1.8912,-1.9196,-1.8987,-1.8899,-1.9098,-1.8924,-1.8891,-1.8972,-1.9049,-1.9101,-1.9272,-1.9341,-1.948,-1.9791,-1.9956,-2.0058,-1.9996,-2.0082,-2.009,-2.0103,-1.9117,-1.8586,-1.8385,-1.7366,-1.6813,-1.6648,-1.6484,-1.5974,-1.5394,-1.4963,-1.4455,-1.3957,-1.3944,-1.4608,-1.5538,-1.5861,-1.6527,-1.7204,-1.6617,-1.6281,-1.6198,0.0,0.0,0.0,0.0,0.0,0.0,0.0,0.0,0.0,0.0,0.0,0.0,0.0,0.0,0.0,0.0,0.0,0.0,0.0,0.0,-0.5539,-0.5588,-0.545,-0.5334,-0.5287,-0.5211,-0.5161,-0.5136,-0.4961,-0.488,-0.4897,-0.4625,-0.456,-0.4579,-0.4553,-0.4426,-0.4355,-0.4227,-0.411,-0.4033,-0.4133,-0.415,-0.4076,-0.4182,-0.4134,-0.3999,-0.3887,0.0,0.0,0.0,0.0,0.0,0.0,0.0,-0.441,-0.5321,-0.6001,-0.6832,-0.8332,0.0,0.0,-1.211,0.0,-1.4563,-1.4804,-1.513,-1.5322,-1.5479,-1.5833,-1.6246,-1.6697,-1.7348,-1.7984,-1.8224,-1.916,-1.9929,-2.0143,-1.9906,-1.9867,-2.0129,-1.9621,-1.9297,-1.9349,-1.9331,-1.9502,-1.9888,-2.0136,-2.0255,-2.0274,-2.0642,-2.0698,-2.0376,-2.0563,-2.0749,-2.0935,-2.0205,-1.9841,-1.9722,-1.8402,-1.7383,-1.673,-1.673,-1.6484,-1.5982,-1.6049,-1.5711,-1.5304,-1.5538,-1.5951,-1.6542,-1.6862,-1.7359,-1.7789,-1.7448,-1.7277,-1.7196,0.0,0.0,0.0,0.0,0.0,0.0,0.0,0.0,0.0,0.0,0.0,0.0,0.0,0.0,0.0,0.0,0.0,0.0,0.0,0.0,0.0,-0.5448,-0.5229,-0.5158,-0.5292,-0.5175,-0.5127,-0.5188,-0.4996,0.0,0.0,0.0,-0.4556,-0.4556,-0.4556,-0.4406,-0.4194,-0.4167,-0.4056,-0.3958,-0.4056,-0.4133,-0.4157,-0.4157,-0.411,-0.409,-0.4036,-0.3955,-0.3887,-0.3985,0.0,0.0,0.0,0.0,-0.4516,-0.5764,-0.6125,-0.6701,-0.9219,0.0,-1.0625,-1.2645,-1.3794,0.0,-1.4302,-1.473,-1.5239,-1.5441,-1.5906,-1.6455,-1.7152,-1.7865,-1.8435,-1.8914,-2.0171,-2.1037,-2.0957,-2.09,-2.0936,-2.1091,-2.0264,-1.963,-1.9607,-1.9579,-1.9845,-2.0469,-2.0859,-2.0928,-2.0644,-2.1306,-2.1339,-2.0558,-2.0866,-2.1144,-2.156,-2.1293,-2.1192,-2.1071,-1.9641,-1.8439,-1.722,-1.7,-1.6812,-1.673,-1.6894,-1.6894,-1.673,-1.7229,-1.731,-1.7131,-1.7538,-1.77,-1.77,-1.7951,-1.804,-1.8103,0.0,0.0,0.0,0.0,0.0,0.0,0.0,0.0,0.0,0.0,0.0,0.0,0.0,0.0,0.0,0.0,0.0,0.0,0.0,0.0,0.0,-0.5236,-0.5138,-0.5065,-0.4963,-0.4713,-0.4747,-0.5132,0.0,0.0,0.0,0.0,0.0,-0.466,0.0,-0.4507,-0.4187,-0.4056,-0.389,-0.3649,-0.3795,-0.3931,-0.405,-0.405,-0.4195,-0.4372,-0.4111,-0.404,-0.412,-0.4009,-0.4056,0.0,0.0,0.0,-0.4556,-0.5001,-0.5883,-0.6904,0.0,0.0,-1.135,0.0,-1.3487,-1.3687,0.0,0.0,-1.453,0.0,-1.6037,-1.7152,-1.7239,-1.8532,-1.9751,-2.0309,-2.0861,-2.135,-2.1889,-2.1686,-2.1366,-2.1444,-2.1288,-2.1258,-2.142,-2.1409,-2.1466,-2.1568,-2.1619,-2.1804,-2.2142,-2.2654,-2.3115,-2.3337,-2.3764,-2.3943,-2.4003,-2.3008,-2.2428,-2.2357,-2.0633,-1.9725,-1.9534,-1.8386,-1.7448,-1.673,-1.673,-1.673,-1.673,-1.7229,-1.731,-1.7131,-1.7708,-1.787,-1.77,-1.7951,-1.8121,-1.839,0.0,0.0,0.0,0.0,0.0,0.0,0.0,0.0,0.0,0.0,0.0,0.0,0.0,0.0,0.0,0.0,0.0,0.0,0.0,0.0,0.0,-0.5193,-0.5114,-0.5032,-0.4938,-0.4772,-0.4714,-0.4871,0.0,0.0,0.0,-0.4838,-0.4819,0.0,0.0,0.0,0.0,-0.4209,-0.3975,-0.371,-0.386,-0.4403,-0.5044,-0.4474,-0.4779,-0.5338,-0.4556,-0.426,-0.4197,-0.4263,-0.4314,-0.4368,-0.4368,0.0,0.0,0.0,-0.5282,0.0,-0.7976,-0.9789,-1.1525,0.0,-1.3173,-1.3367,-1.3312,0.0,-1.4358,-1.5028,-1.646,-1.7579,-1.7662,-1.8775,-1.9934,-2.0675,-2.1124,-2.1507,-2.1778,-2.1635,-2.1502,-2.1655,-2.1578,-2.1578,-2.1807,-2.1807,-2.1807,-2.1807,-2.1807,-2.189,-2.2097,-2.2304,-2.2625,-2.3091,-2.3298,-2.365,-2.4167,-2.3639,-2.2973,-2.2183,-2.139,-2.0642,-1.9771,-1.9197,-1.8318,-1.7448,-1.7049,-1.6894,-1.6976,-1.731,-1.731,-1.7302,-1.7708,-1.8175,-1.8559,-1.8353,-1.8682,-1.9341,0.0,0.0,0.0,0.0,0.0,0.0,0.0,0.0,0.0,0.0,0.0,0.0,0.0,0.0,0.0,0.0,0.0,0.0,0.0,0.0,0.0,-0.5193,-0.512,-0.5021,-0.4888,-0.4844,-0.4742,0.0,0.0,0.0,-0.4752,-0.4847,-0.4938,0.0,-0.4972,0.0,0.0,0.0,0.0,0.0,0.0,-0.5125,0.0,0.0,-0.5992,0.0,0.0,0.0,0.0,-0.456,-0.4519,-0.4519,-0.4519,-0.4519,0.0,0.0,0.0,0.0,0.0,0.0,-1.0786,-1.2004,-1.2563,-1.2886,0.0,0.0,-1.4058,0.0,-1.6484,-1.7675,-1.817,-1.9131,-2.0167,-2.0896,-2.1282,-2.1512,-2.1578,-2.1578,-2.1655,-2.1807,-2.1655,-2.1655,-2.1807,-2.1807,-2.1807,-2.1807,-2.1807,-2.1807,-2.1807,-2.1921,-2.2139,-2.248,-2.2615,-2.3008,-2.3701,-2.3701,-2.3247,-2.2426,-2.2197,-2.1499,-2.038,-2.0117,-1.9502,-1.8789,-1.8078,-1.7691,-1.7448,-1.7934,-1.7934,-1.77,-1.8238,-1.8948,-1.9571,-1.9423,-1.9773,-2.0446,0.0,0.0,0.0,0.0,0.0,0.0,0.0,0.0,0.0,0.0,0.0,0.0,0.0,0.0,-0.5203,-0.5029,0.0,0.0,0.0,0.0,0.0,-0.5193,-0.5255,0.0,-0.4532,-0.4702,0.0,0.0,0.0,0.0,-0.4875,-0.491,-0.4992,-0.5121,-0.5121,-0.4955,-0.467,0.0,0.0,0.0,0.0,0.0,0.0,0.0,0.0,0.0,0.0,0.0,0.0,0.0,-0.4519,-0.4519,-0.4519,-0.4519,-0.4574,0.0,0.0,0.0,0.0,-0.8153,0.0,-1.0528,-1.1435,0.0,0.0,0.0,-1.3454,-1.4373,-1.5867,-1.7354,-1.8715,-1.9995,-2.0906,-2.1128,-2.1359,-2.1589,-2.1731,-2.1807,-2.1807,-2.1807,-2.1807,-2.1807,-2.1807,-2.1807,-2.1807,-2.1807,-2.1807,-2.1807,-2.1807,-2.2221,-2.247,-2.2501,-2.2925,-2.3174,-2.3225,-2.3225,-2.3432,-2.3826,-2.3106,-2.2736,-2.2595,-2.1501,-2.0981,-2.0904,-2.0129,-1.9186,-1.8301,-1.9571,-1.9335,-1.8372,-2.0012,-2.0566,-2.0566,-2.1466,-2.1618,-2.1415,0.0,0.0,0.0,0.0,0.0,0.0,0.0,0.0,0.0,0.0,0.0,0.0,0.0,-0.5154,-0.5072,-0.499,-0.499,0.0,0.0,0.0,0.0,-0.4836,-0.4993,-0.487,-0.44,-0.4584,0.0,0.0,0.0,-0.4653,-0.5042,-0.4966,-0.5058,-0.5382,-0.5191,-0.502,-0.4819,-0.4568,0.0,0.0,0.0,0.0,0.0,0.0,0.0,0.0,0.0,0.0,0.0,0.0,-0.5186,-0.4519,-0.4519,-0.4625,-0.4846,-0.5348,0.0,0.0,0.0,0.0,0.0,-0.9826,-1.0683,-1.1261,-1.1647,-1.2854,-1.416,-1.5141,-1.6538,-1.7961,-1.9326,-2.0283,-2.0984,-2.1359,-2.1425,-2.1578,-2.1807,-2.1807,-2.1807,-2.1807,-2.1807,-2.1807,-2.1807,-2.1807,-2.1807,-2.1807,-2.1807,-2.1807,-2.1807,-2.1963,-2.2056,-2.2056,-2.2211,-2.2449,-2.2739,-2.3039,-2.3122,-2.2987,-2.2735,-2.2569,-2.2495,-2.2088,-2.208,-2.2295,-2.1993,-2.0971,-1.9562,-1.9885,-1.9806,-1.9562,-2.0333,-2.1171,-2.1985,-2.1704,-2.2211,-2.3089,0.0,0.0,0.0,0.0,0.0,0.0,0.0,0.0,0.0,0.0,0.0,0.0,0.0,0.0,-0.5133,-0.5089,-0.5027,-0.5062,-0.5178,-0.5267,-0.5202,-0.4993,-0.5245,-0.5162,-0.4719,0.0,0.0,0.0,0.0,0.0,0.0,-0.4947,-0.5079,-0.5409,-0.505,-0.4938,0.0,0.0,0.0,-0.4535,0.0,0.0,-0.6697,0.0,0.0,0.0,0.0,0.0,0.0,0.0,0.0,0.0,0.0,0.0,0.0,0.0,0.0,0.0,-0.6964,0.0,0.0,0.0,0.0,-1.0613,-1.1268,0.0,-1.4095,-1.5324,-1.6689,-1.8082,-1.935,-2.0078,-2.0635,-2.1231,-2.1359,-2.1436,-2.1578,-2.1578,-2.1655,-2.1655,-2.1731,-2.1731,-2.1807,-2.1807,-2.1807,-2.1807,-2.1807,-2.1807,-2.1807,-2.1807,-2.1807,-2.1807,-2.1807,-2.2025,-2.249,-2.2646,-2.2646,-2.2501,-2.2491,-2.2405,-2.2402,-2.2553,-2.2777,-2.3001,-2.3001,-2.2069,-2.0585,-2.0827,-2.0827,-2.0797,-2.1388,-2.2243,-2.3198,-2.2802,-2.3322,-2.412,0.0,0.0,0.0,0.0,0.0,0.0,0.0,0.0,0.0,0.0,0.0,0.0,0.0,0.0,0.0,-0.5297,-0.5117,-0.5138,-0.5482,-0.5492,-0.5585,-0.5785,0.0,0.0,0.0,0.0,0.0,0.0,0.0,0.0,0.0,0.0,-0.4986,-0.5078,-0.4699,-0.4711,-0.5108,0.0,-0.4819,-0.4896,0.0,-0.7583,-0.6716,0.0,0.0,0.0,-0.8663,-0.8589,0.0,-0.8447,0.0,0.0,0.0,0.0,0.0,0.0,0.0,0.0,0.0,0.0,0.0,0.0,0.0,0.0,-1.1116,0.0,-1.3361,-1.4849,-1.6225,-1.753,-1.8783,-1.9342,-1.9836,-2.0728,-2.1031,-2.1185,-2.1185,-2.1205,-2.1282,-2.1512,-2.1502,-2.1578,-2.1807,-2.1807,-2.1807,-2.1807,-2.1807,-2.1807,-2.1807,-2.1807,-2.1807,-2.1807,-2.1807,-2.2025,-2.247,-2.2045,-2.2045,-2.247,-2.2408,-2.2424,-2.2424,-2.2788,-2.3012,-2.3023,-2.3001,-2.2371,-2.1517,-2.2606,-2.2521,-2.191,-2.3296,-2.3872,-2.4047,-2.486,-2.4855,-2.4601,0.0,0.0,0.0,0.0,0.0,0.0,-0.499,-0.499,0.0,0.0,0.0,0.0,0.0,0.0,-0.5572,-0.5519,-0.5472,-0.5462,-0.5567,-0.5572,-0.5494,-0.5389,-0.5544,-0.5548,-0.5236,0.0,0.0,0.0,0.0,0.0,0.0,0.0,0.0,0.0,-0.4826,-0.4697,-0.4802,-0.4653,0.0,-0.4798,-0.7379,-0.7762,0.0,0.0,0.0,0.0,0.0,-1.0182,-0.9536,0.0,-0.8663,-0.6845,0.0,0.0,0.0,0.0,0.0,0.0,-0.6178,0.0,0.0,0.0,0.0,0.0,0.0,0.0,-1.3222,-1.4346,-1.585,-1.7339,-1.8504,-1.8942,-1.9209,-1.9708,-2.0297,-2.0742,-2.0742,-2.1014,-2.1282,-2.1512,-2.1502,-2.1578,-2.1807,-2.1807,-2.1731,0.0,-2.1731,-2.1731,-2.1578,-2.1731,-2.1807,-2.1807,-2.1807,-2.1869,-2.1994,-2.2201,-2.2278,-2.2224,-2.251,-2.2769,-2.2902,-2.2789,-2.2972,-2.3286,-2.3079,-2.2916,-2.283,-2.3065,-2.3224,-2.3338,-2.3727,-2.4339,-2.4874,-2.459,-2.473,-2.4986,0.0,0.0,0.0,0.0,0.0,-0.5445,-0.5207,-0.5284,-0.5385,0.0,0.0,0.0,0.0,0.0,-0.5646,-0.5727,-0.5656,-0.5646,-0.5727,-0.5736,-0.5668,-0.5598,-0.5715,-0.5726,-0.5566,0.0,0.0,0.0,0.0,0.0,0.0,0.0,0.0,0.0,0.0,0.0,0.0,0.0,0.0,0.0,-0.7641,0.0,0.0,-1.012,-1.0859,0.0,0.0,0.0,-1.0376,-1.1328,-0.984,0.0,0.0,0.0,0.0,0.0,0.0,0.0,0.0,0.0,0.0,0.0,0.0,0.0,-1.0604,-1.2067,-1.3663,0.0,-1.6397,-1.7577,-1.8261,-1.8438,-1.8596,-1.8711,-1.9337,-1.9899,-2.0267,-2.0695,-2.1041,-2.1205,-2.1282,-2.1359,-2.1502,-2.1578,-2.1502,-2.1359,-2.1578,-2.1655,-2.1512,-2.1655,-2.1731,-2.1655,-2.1731,-2.1807,-2.1807,-2.2143,-2.222,-2.2111,-2.2661,-2.2931,-2.296,-2.2961,-2.3048,-2.3254,-2.3046,-2.315,-2.3446,-2.3298,-2.3519,-2.3779,-2.3837,-2.4213,-2.4696,-2.4389,-2.4578,-2.4976,0.0,0.0,-0.5019,-0.5043,-0.5641,-0.5985,-0.5516,-0.5639,-0.5721,0.0,0.0,0.0,0.0,0.0,0.0,0.0,-0.5783,-0.5755,-0.5935,-0.5944,-0.6029,-0.6168,-0.6178,-0.6178,-0.6178,-0.6178,-0.6055,0.0,0.0,0.0,0.0,0.0,0.0,0.0,0.0,0.0,0.0,0.0,0.0,-0.5414,-0.8101,-0.85,0.0,0.0,-1.0818,-0.9973,-1.1258,-1.1419,-1.1113,-1.2192,-1.1272,0.0,0.0,0.0,0.0,0.0,-0.675,0.0,0.0,0.0,0.0,0.0,0.0,0.0,-1.1703,-1.2814,-1.3941,0.0,-1.6773,-1.7446,-1.7581,-1.7581,-1.7667,-1.7716,-1.8125,-1.8818,-1.9717,-2.0215,-2.0595,-2.0896,-2.0906,-2.0984,-2.1205,-2.1205,-2.1205,-2.1128,-2.1436,-2.1655,-2.1797,-2.1949,-2.2025,-2.1797,-2.2014,-2.209,-2.209,-2.2294,-2.2326,-2.2326,-2.2889,-2.3152,-2.3091,-2.3416,-2.3514,-2.3431,-2.3405,-2.3582,-2.3875,-2.3734,-2.3745,-2.3857,-2.3958,-2.4103,-2.4327,-2.4523,-2.4744,-2.4979,0.0,0.0,-0.5125,-0.5434,-0.5601,-0.5696,-0.5572,-0.5585,-0.567,0.0,0.0,0.0,0.0,0.0,0.0,0.0,-0.6133,-0.6075,-0.6112,-0.6117,-0.6131,-0.6173,-0.6178,-0.6178,-0.6178,-0.6178,-0.6093,-0.5868,0.0,0.0,0.0,0.0,0.0,0.0,0.0,0.0,0.0,0.0,0.0,-0.6934,-0.781,0.0,-0.9176,-1.1292,-1.2422,-1.2829,-1.3078,-1.267,-1.1893,-1.0971,-1.0651,-1.0436,0.0,0.0,0.0,-0.8207,0.0,0.0,0.0,0.0,0.0,0.0,0.0,0.0,-1.013,-1.0703,-1.1472,0.0,-1.3417,-1.4055,-1.4796,-1.5233,-1.5538,-1.5908,-1.6925,-1.8047,-1.9238,-1.9775,-2.0252,-2.0867,-2.0906,-2.0984,-2.1205,-2.1205,-2.1128,-2.0984,-2.1711,-2.266,-2.3537,-2.3756,-2.3902,-2.3829,-2.4036,-2.4158,-2.4158,-2.3918,-2.3753,-2.3764,-2.367,-2.4216,-2.5171,-2.4765,-2.5113,-2.6009,-2.5672,-2.5533,-2.5591,-2.5685,-2.5555,-2.531,-2.5093,-2.5809,-2.686,-2.6336,-2.6426,-2.6728,0.0,-0.499,-0.5051,-0.525,-0.5476,-0.562,-0.5677,-0.5798,0.0,0.0,0.0,0.0,0.0,0.0,0.0,0.0,0.0,0.0,0.0,-0.6323,-0.6281,-0.6182,-0.6178,-0.6178,-0.6178,-0.6178,-0.6126,-0.6072,0.0,0.0,0.0,0.0,0.0,0.0,0.0,0.0,0.0,0.0,-0.6295,-0.6894,-0.8398,0.0,-1.0712,-1.2489,-1.3389,-1.3743,-1.3966,-1.3654,-1.2987,-1.2177,-1.1468,0.0,-1.0655,-1.0105,-0.9513,0.0,-0.9099,-0.918,0.0,0.0,0.0,-0.971,0.0,0.0,0.0,-1.1175,-1.1639,-1.2846,-1.3252,-1.3485,-1.4094,-1.451,-1.4956,-1.5407,-1.6379,-1.7285,-1.792,-1.8936,-1.9762,-2.0062,-2.0092,-2.0167,-2.0242,-2.067,-2.1197,-2.1924,-2.2668,-2.3379,-2.4047,-2.4264,-2.4397,-2.4385,-2.4601,-2.4861,-2.5121,-2.5013,-2.5131,-2.5483,-2.5529,-2.5858,-2.6391,-2.6007,-2.6122,-2.6737,-2.6156,-2.6089,-2.6352,-2.6131,-2.6451,-2.695,-2.6295,-2.6547,-2.7209,-2.6894,-2.7092,-2.7411,-0.499,0.0,-0.5108,-0.5162,-0.5475,-0.5736,-0.5883,-0.6065,0.0,0.0,0.0,0.0,0.0,0.0,0.0,0.0,0.0,0.0,0.0,-0.6822,-0.675,-0.658,-0.6425,-0.635,-0.6512,-0.6308,-0.6196,-0.6117,0.0,0.0,0.0,0.0,0.0,0.0,0.0,0.0,0.0,0.0,0.0,-0.7077,0.0,-1.0478,-1.1222,-1.2927,-1.3517,-1.3595,-1.4103,-1.4084,-1.3735,-1.3427,-1.2313,-1.1215,-1.1651,-1.1095,0.0,0.0,0.0,0.0,0.0,0.0,0.0,0.0,0.0,-1.0876,0.0,0.0,0.0,-1.3397,-1.3425,-1.3345,0.0,0.0,0.0,-1.4937,0.0,0.0,0.0,-1.7617,0.0,-1.8887,-1.9275,-1.9528,-1.9449,-2.0134,-2.1323,-2.3106,-2.3436,-2.383,-2.4541,-2.4767,-2.4909,-2.4886,-2.5098,-2.548,-2.6009,-2.6106,-2.6444,-2.7019,-2.7263,-2.7404,-2.7308,-2.7162,-2.7164,-2.7247,-2.6696,-2.6734,-2.7075,-2.6734,-2.7281,-2.8298,-2.7349,-2.7221,-2.7485,-2.7432,-2.7667,-2.7981,-0.499,-0.5271,0.0,-0.5688,-0.5951,-0.6115,-0.6161,-0.6164,0.0,0.0,0.0,0.0,0.0,0.0,0.0,0.0,0.0,0.0,-0.7952,0.0,0.0,-0.7899,-0.7115,-0.6953,-0.7538,-0.6822,-0.6317,-0.5944,-0.6114,-0.6056,0.0,0.0,0.0,0.0,-0.715,0.0,0.0,0.0,-0.8198,0.0,-0.9873,-0.9528,0.0,-1.0697,-1.1786,-1.2447,-1.3319,-1.34,-1.3022,0.0,-1.1968,-1.1401,0.0,-1.1237,-1.1203,-1.066,0.0,0.0,0.0,0.0,0.0,0.0,-1.0624,0.0,0.0,0.0,-1.1181,-1.1338,0.0,-1.1442,0.0,0.0,0.0,0.0,0.0,0.0,-1.501,-1.5498,-1.6289,-1.7461,-1.9261,-2.0305,-1.9889,-2.0191,-2.1459,-2.3873,-2.3293,-2.3812,-2.6114,-2.6521,-2.6726,-2.6714,-2.704,-2.7446,-2.8071,-2.7442,-2.7528,-2.8311,-2.7673,-2.7815,-2.8575,-2.8222,-2.8562,-2.9455,-2.9146,-2.896,-2.8892,-2.9147,-2.9048,-2.8702,-2.8023,-2.873,-3.0079,-2.9243,-2.9273,-2.9607,-0.5037,-0.5245,0.0,-0.578,-0.5885,-0.6034,-0.6199,-0.6276,0.0,0.0,0.0,0.0,0.0,0.0,0.0,0.0,0.0,-0.8734,0.0,0.0,0.0,-0.7355,-0.6894,-0.6721,-0.7007,-0.6572,-0.6215,-0.6095,-0.6131,-0.6131,0.0,0.0,0.0,0.0,-0.7528,0.0,-0.804,0.0,-0.859,0.0,0.0,0.0,0.0,-1.1346,-1.2758,-1.3162,-1.3648,-1.3817,-1.3715,0.0,-1.2802,0.0,0.0,0.0,0.0,-1.1547,0.0,0.0,0.0,0.0,0.0,0.0,0.0,0.0,-1.0698,0.0,-1.0823,0.0,0.0,0.0,0.0,0.0,0.0,0.0,-1.4321,0.0,0.0,0.0,-1.5615,-1.6172,0.0,0.0,-1.9443,-2.0891,-2.2372,-2.3973,-2.4365,-2.5049,-2.6085,-2.6819,-2.7146,-2.7146,-2.7403,-2.7798,-2.8373,-2.8433,-2.8787,-2.9436,-2.9441,-2.9567,-2.9693,-2.952,-2.9607,-2.9923,-2.947,-2.9349,-2.9442,-2.9234,-2.9256,-2.9387,-2.9093,-2.9532,-3.0271,-2.9811,-2.9978,-3.0226,-0.5399,0.0,0.0,0.0,-0.5864,-0.5995,-0.615,-0.6346,0.0,0.0,0.0,0.0,-0.7345,-0.7965,0.0,0.0,-0.9542,-0.9662,0.0,0.0,-0.8576,-0.798,-0.7145,-0.6846,-0.7254,-0.6643,-0.6229,-0.6178,-0.6178,-0.6178,0.0,0.0,0.0,0.0,0.0,-0.8204,-0.9047,0.0,-0.9192,-0.8964,-0.9911,-0.9888,-0.9608,-1.2011,-1.3192,-1.3606,-1.3797,-1.4009,-1.4072,-1.3999,-1.3236,0.0,-1.3373,-1.2742,-1.1742,0.0,0.0,0.0,-1.1002,0.0,0.0,0.0,0.0,0.0,0.0,0.0,0.0,0.0,0.0,0.0,0.0,0.0,0.0,0.0,0.0,-1.4453,0.0,-1.4404,0.0,0.0,0.0,0.0,0.0,-2.0895,-2.2404,-2.3343,-2.4342,-2.5264,-2.5864,-2.6616,-2.7046,-2.7201,-2.7403,-2.7743,-2.8304,-2.8974,-2.9575,-3.0137,-3.0629,-3.0677,-3.0401,-3.0315,-3.0153,-2.9937,-2.9508,-2.9497,-2.9574,-2.9203,-2.9301,-2.9699,-2.9747,-2.9946,-3.0119,-3.0075,-3.0283,-3.0498,-0.6272,-0.6052,0.0,0.0,0.0,-0.6168,-0.6178,0.0,0.0,0.0,0.0,0.0,0.0,0.0,0.0,0.0,0.0,-1.2221,-1.1084,0.0,-1.0195,-1.0938,-0.8553,-0.7792,-0.9169,-0.7429,-0.637,-0.6178,-0.6178,-0.6178,0.0,0.0,0.0,0.0,-0.7244,-0.793,-0.8313,-0.9302,-1.056,-1.1948,-1.1973,-1.2544,-1.3233,0.0,-1.1964,-1.3056,-1.3487,0.0,0.0,-1.3299,-1.2876,0.0,0.0,0.0,0.0,0.0,0.0,0.0,0.0,0.0,0.0,-1.0701,0.0,0.0,0.0,0.0,-1.1545,0.0,0.0,0.0,0.0,0.0,0.0,0.0,0.0,0.0,0.0,0.0,0.0,0.0,0.0,0.0,0.0,-1.9772,-2.0734,0.0,-2.2359,-2.3541,-2.58,-2.6125,-2.646,-2.6998,-2.7335,-2.7676,-2.811,-2.8917,-2.9575,-3.0137,-3.0296,-3.0428,-3.0388,-2.9963,-2.9837,-2.9824,-2.9797,-2.9602,-2.9402,-2.9588,-2.9559,-2.9415,-2.9699,-2.9898,-3.0101,-3.0263,-3.0369,-3.0447,0.0,0.0,0.0,0.0,0.0,0.0,0.0,-0.6724,0.0,0.0,-0.8774,0.0,0.0,-1.0807,-1.1417,0.0,0.0,-1.1776,-1.1371,-1.0426,0.0,-1.0313,-0.8168,-0.7419,-0.8509,-0.7055,-0.6243,-0.6178,-0.6178,-0.6178,0.0,0.0,0.0,0.0,0.0,-0.8281,0.0,0.0,0.0,0.0,0.0,-1.2078,-1.2512,0.0,-1.3189,-1.3528,-1.3822,-1.3961,0.0,-1.4132,-1.36,-1.2995,-1.3487,-1.3066,-1.2411,-1.2769,-1.2766,-1.2518,0.0,0.0,-1.3221,-1.1574,0.0,0.0,0.0,0.0,0.0,0.0,0.0,0.0,0.0,0.0,0.0,0.0,0.0,0.0,0.0,0.0,0.0,0.0,0.0,0.0,0.0,0.0,0.0,-2.1231,-2.2758,-2.4079,-2.5111,-2.5843,-2.6368,-2.6782,-2.7011,-2.7304,-2.7553,-2.8205,-2.8721,-2.9153,-2.983,-3.0145,-2.9989,-3.0103,-3.0126,-2.9937,-2.9672,-2.9578,-2.9745,-2.9555,-2.9596,-2.9699,-2.9898,-3.0097,-3.0251,-3.0261,-3.0411,-3.0573,-0.7307,0.0,0.0,0.0,0.0,0.0,0.0,0.0,0.0,0.0,-0.9669,0.0,-1.1047,0.0,-1.2013,0.0,-1.2304,-1.2145,-1.1521,-1.087,0.0,-1.0331,-0.8805,-0.8308,0.0,-0.7649,-0.6862,-0.6727,-0.6358,-0.6178,0.0,0.0,0.0,0.0,0.0,-0.8093,-0.9746,-1.0526,-1.1462,0.0,0.0,-1.2595,0.0,0.0,-1.3498,-1.3217,0.0,-1.402,-1.4218,-1.4575,-1.4232,-1.3818,-1.4358,-1.3865,-1.324,-1.3561,-1.3312,-1.2963,-1.2679,-1.3725,-1.4386,-1.2678,-1.3424,0.0,-1.2131,0.0,-1.2434,0.0,0.0,0.0,0.0,0.0,0.0,0.0,0.0,0.0,0.0,-1.335,0.0,0.0,0.0,0.0,0.0,0.0,-1.9849,-2.0925,-2.2471,-2.3778,-2.4822,-2.5663,-2.6289,-2.6701,-2.693,-2.7146,-2.7214,-2.7906,-2.833,-2.8618,-2.9437,-2.9842,-2.9697,-3.0011,-2.9993,-2.9684,-2.9511,-2.9583,-2.9903,-2.984,-3.004,-3.051,-3.0703,-3.0881,-3.0925,-3.0613,-3.0732,-3.1146,-0.7638,0.0,0.0,0.0,-0.7135,0.0,0.0,0.0,-0.9085,0.0,-1.056,-1.1618,-1.1846,-1.2773,-1.3207,-1.258,-1.35,-1.3418,-1.1696,-1.1527,0.0,0.0,-1.0425,-1.0263,-1.0823,-0.9081,-0.8016,-0.7607,-0.6651,-0.6178,-0.6178,0.0,0.0,0.0,-0.6178,0.0,-0.9734,-1.0057,-1.1527,-1.3667,-1.3968,-1.4062,-1.3995,-1.3741,-1.2919,-1.2096,-1.3124,-1.378,-1.4056,-1.4525,-1.4713,-1.4713,-1.4713,-1.4727,-1.465,-1.4482,-1.4398,-1.4275,-1.3561,-1.4088,-1.4766,-1.4167,-1.4856,-1.5382,0.0,0.0,-1.4065,0.0,0.0,0.0,0.0,0.0,0.0,0.0,0.0,0.0,0.0,0.0,-1.3389,0.0,0.0,0.0,0.0,-1.6972,-1.837,-2.0758,-2.1464,-2.2797,0.0,-2.5534,-2.6092,-2.6701,-2.7066,-2.7201,-2.7024,-2.7867,-2.8333,-2.8415,-2.9088,-2.9434,-2.9504,-2.9714,-2.9602,-2.9268,-2.9375,-2.9647,-3.0072,-3.0421,-3.1013,-3.1736,-3.1987,-3.2084,-3.2043,-3.119,-3.1422,-3.2074,-0.8043,-0.7772,-0.7565,0.0,-0.7245,-0.7078,0.0,0.0,0.0,0.0,-1.1915,-1.3246,-1.4243,-1.4629,-1.4663,-1.4542,-1.4241,0.0,0.0,0.0,0.0,-1.2628,-1.0936,-1.0271,-1.0864,-0.8867,-0.741,-0.6593,-0.6351,-0.6178,-0.6178,0.0,0.0,0.0,0.0,0.0,-0.9722,-0.9793,-1.1278,-1.3667,-1.4122,-1.3838,-1.3212,0.0,-1.3482,-1.2688,-1.3756,-1.4062,-1.4144,-1.4705,-1.465,-1.4398,-1.4568,-1.4641,-1.465,-1.465,-1.465,-1.4699,-1.5189,-1.6098,-1.6793,-1.5986,-1.6633,-1.7035,-1.5477,-1.5385,0.0,0.0,0.0,0.0,0.0,0.0,0.0,0.0,0.0,0.0,0.0,0.0,0.0,-1.3828,0.0,0.0,-1.4942,-1.6926,-1.8721,-1.9825,-2.1301,-2.2977,-2.4784,-2.462,-2.5111,-2.6483,-2.6726,-2.693,-2.7024,-2.7424,-2.7678,-2.7946,-2.862,-2.8979,-2.9048,-2.924,-2.9658,-3.0224,-2.9968,-3.0352,-3.1116,-3.1145,-3.1304,-3.1492,-3.1819,-3.2114,-3.2312,-3.2114,-3.2281,-3.2625,-0.7949,0.0,0.0,-0.7521,0.0,0.0,-0.8301,-0.8945,0.0,-1.1083,-1.2969,0.0,-1.4595,-1.5285,-1.554,-1.5184,-1.4919,0.0,-1.3386,0.0,0.0,-1.27,-1.2081,-1.1745,-1.179,-1.0274,0.0,-0.7088,-0.6958,0.0,-0.6178,0.0,0.0,0.0,0.0,-0.7286,-0.9197,-1.035,-1.1771,-1.33,-1.409,-1.4008,0.0,-1.4121,-1.3989,-1.3653,-1.424,-1.442,-1.4413,-1.4924,-1.4989,-1.4817,-1.49,-1.4946,-1.4999,-1.4915,-1.4908,-1.5068,-1.5869,-1.7001,-1.7789,-1.7666,-1.851,-1.8939,-1.7288,-1.7036,-1.7071,-1.6603,-1.6729,-1.6863,-1.6788,0.0,0.0,0.0,0.0,0.0,0.0,0.0,0.0,0.0,-1.5219,0.0,-1.4799,-1.7124,-1.8981,-1.9743,-2.0786,-2.2048,-2.3356,-2.3865,-2.4576,-2.5711,-2.6485,-2.6863,-2.6875,-2.7201,-2.7469,-2.7603,-2.826,-2.8673,-2.8836,-2.9605,-3.0138,-3.0559,-3.0754,-3.122,-3.1792,-3.189,-3.2059,-3.2351,-3.2664,-3.2911,-3.3087,-3.3214,-3.3198,-3.3039,-0.7733,0.0,0.0,0.0,0.0,0.0,0.0,-1.0299,0.0,-1.0916,0.0,-1.4993,-1.4073,-1.5224,-1.5841,-1.5225,-1.5396,-1.4833,-1.2891,-1.3784,-1.3695,-1.2395,-1.3373,-1.3707,-1.304,-1.2241,-1.0698,0.0,0.0,0.0,0.0,0.0,0.0,0.0,0.0,0.0,0.0,-1.1368,-1.2641,-1.3027,-1.4213,-1.4559,-1.4448,-1.4447,-1.4512,-1.4593,-1.4674,-1.4714,-1.4712,-1.5184,-1.5365,-1.5365,-1.5365,-1.547,-1.5582,-1.5409,-1.5492,-1.5726,-1.6593,-1.7471,-1.8443,-1.9335,-2.0245,-2.0621,-1.9257,-1.8946,-1.8822,-1.8322,-1.7953,-1.7834,-1.8446,0.0,0.0,0.0,0.0,0.0,0.0,0.0,0.0,0.0,0.0,0.0,-1.533,-1.7367,-1.9042,-1.9877,-2.0109,-2.0662,-2.1848,0.0,-2.432,-2.5034,-2.6298,-2.6875,-2.6714,-2.7188,-2.7403,-2.7348,-2.8088,-2.8609,-2.8838,-3.0237,-3.0774,-3.0637,-3.1628,-3.2133,-3.2266,-3.2586,-3.2996,-3.3555,-3.3797,-3.3899,-3.3949,-3.4201,-3.3951,-3.3459,-0.7896,0.0,0.0,0.0,0.0,-0.9104,-1.276,-1.2762,-1.1828,-1.0156,-1.301,-1.5253,-1.5308,-1.562,-1.5805,-1.5857,-1.5412,0.0,0.0,0.0,0.0,-1.4062,-1.3933,-1.3899,-1.389,-1.2757,-1.1523,0.0,0.0,0.0,0.0,0.0,0.0,0.0,0.0,0.0,-0.9781,-1.2507,0.0,-1.3553,-1.536,-1.5477,-1.4734,-1.5025,-1.5004,-1.474,-1.5087,-1.4954,-1.459,-1.486,-1.5028,-1.5028,-1.5028,-1.5754,-1.6683,-1.6683,-1.7317,-1.8204,-1.9009,-1.9413,-1.9816,-2.0634,-2.1051,-2.1088,-2.0775,-2.0745,-2.0529,-1.9925,-1.9767,-1.935,-1.8301,0.0,0.0,0.0,0.0,0.0,0.0,0.0,0.0,0.0,0.0,-1.6684,0.0,-1.713,-1.8178,-1.8598,-1.9239,-2.0544,-2.2884,0.0,-2.3823,0.0,-2.6557,-2.6726,0.0,-2.7134,-2.7335,-2.7335,-2.8368,-2.8963,-2.914,-3.0254,-3.1161,-3.1799,-3.197,-3.2444,-3.3118,-3.3171,-3.3398,-3.3658,-3.3694,-3.3848,-3.405,-3.4101,-3.4101,-3.3984,-1.0302,0.0,0.0,0.0,0.0,0.0,0.0,-1.4303,-1.3093,-1.1311,-1.3316,-1.4785,-1.4269,-1.5085,-1.5675,-1.5511,-1.5526,-1.569,-1.5831,-1.5318,-1.5137,-1.544,-1.4828,-1.4358,-1.413,-1.3505,-1.2384,-1.0612,0.0,0.0,0.0,0.0,0.0,0.0,0.0,-0.9629,0.0,0.0,-1.4906,-1.4912,-1.6565,-1.6927,-1.6429,-1.6927,-1.6927,-1.6756,-1.7009,-1.6879,-1.646,-1.5449,-1.5196,-1.5271,-1.5812,-1.6466,-1.7082,-1.7641,-1.8195,-1.8841,-1.9806,-2.0051,-2.0294,-2.1118,-2.1359,-2.1359,-2.1205,-2.1205,-2.1145,-2.0761,-2.0645,-2.0167,-1.8938,-1.7793,-1.7002,0.0,0.0,0.0,0.0,0.0,-1.665,0.0,0.0,0.0,0.0,0.0,0.0,0.0,0.0,-2.0294,-2.2348,0.0,-2.3453,0.0,0.0,0.0,-2.6714,0.0,-2.7523,-2.7947,-2.8961,-2.9664,-3.0253,-3.1538,-3.2243,-3.2418,-3.2931,-3.3216,-3.3309,-3.3309,-3.3398,-3.3607,-3.3642,-3.3797,-3.4,-3.405,-3.4151,-3.425,0.0,-1.3082,0.0,0.0,-1.4479,-1.3822,-1.5502,-1.5247,-1.4309,-1.3104,-1.4262,-1.4821,-1.3734,-1.5291,-1.6052,-1.5049,-1.5631,-1.6202,-1.6764,-1.677,-1.6605,-1.6129,-1.5418,-1.4849,-1.4405,-1.4165,-1.3215,0.0,0.0,0.0,0.0,0.0,0.0,0.0,0.0,0.0,0.0,0.0,-1.6297,-1.6444,-1.7804,-1.8284,-1.8195,-1.8514,-1.8594,-1.8674,-1.8594,-1.8594,-1.8435,-1.6617,-1.6064,-1.6221,-1.7082,-1.7479,-1.7883,-1.8674,-1.9079,-1.9474,-2.0275,-2.0518,-2.0682,-2.1415,-2.1578,-2.1482,-2.1237,-2.1288,-2.1252,-2.1161,-2.0998,-2.0529,-1.9507,-1.8458,-1.7713,-1.7646,0.0,0.0,0.0,0.0,-1.7027,0.0,0.0,0.0,-1.6759,-1.653,0.0,0.0,0.0,-1.9944,-2.1775,0.0,0.0,0.0,-2.5782,-2.6304,-2.6304,0.0,-2.763,-2.8427,-2.9573,-3.0495,-3.1424,-3.2885,-3.3394,-3.3218,-3.3814,-3.3818,-3.3461,-3.3372,-3.3398,-3.3503,-3.3607,-3.3745,-3.3899,-3.4,-3.4151,-3.43,0.0,0.0,0.0,0.0,0.0,-2.0576,-1.6458,-1.5767,-1.5497,-1.496,-1.6067,-1.6721,-1.6131,-1.7826,-1.8002,-1.5521,-1.541,-1.6308,-1.8257,-2.0113,-1.9496,-1.565,-1.5427,-1.5367,-1.5278,-1.4536,-1.3978,0.0,0.0,-1.0007,0.0,0.0,0.0,0.0,0.0,0.0,-1.5289,-1.6777,-1.743,-1.7484,-1.8916,-1.9097,-1.8523,-1.8603,-1.8744,-1.8824,-1.8674,-1.8753,-1.8824,-1.8435,-1.8284,-1.8284,-1.8435,-1.9158,-1.9953,-2.0041,-2.076,-2.1482,-2.1645,-2.1645,-2.1645,-2.1731,-2.1807,-2.1628,-2.1205,-2.1432,-2.1532,-2.0971,-2.0761,-2.0396,-1.9448,-1.9019,-1.8735,-1.8516,0.0,0.0,0.0,0.0,-1.8191,-1.8404,0.0,0.0,-1.8937,-1.8862,-1.9011,0.0,-1.8838,0.0,0.0,0.0,0.0,-2.4705,-2.4921,-2.4971,-2.4971,-2.6365,-2.743,-2.8271,-3.0059,-3.1377,-3.2288,-3.323,-3.4043,-3.4638,-3.412,-3.3935,-3.3991,-3.3508,-3.3398,-3.3503,-3.3503,-3.3642,-3.3899,-3.3899,-3.4,-3.4151,0.0,0.0,0.0,0.0,0.0,0.0,0.0,-2.0179,-1.935,-1.7157,-1.702,-1.722,-1.7253,-1.8112,-1.8106,-1.6533,-1.6982,-1.7863,-1.9164,-2.0858,-2.0729,-1.8408,-1.7216,-1.6226,-1.5413,-1.6435,-1.6624,0.0,0.0,0.0,0.0,0.0,0.0,0.0,0.0,-1.5912,-1.692,-1.8786,-1.9602,-1.9599,-2.0401,-2.0547,-2.0372,-2.044,-2.0595,-2.0672,-2.0672,-2.074,-2.0817,-2.074,-1.9788,-1.8674,-1.9395,-1.9875,-2.0362,-2.1001,-2.1482,-2.1807,-2.1807,-2.1807,-2.1807,-2.1807,-2.1807,-2.1756,-2.1569,-2.1673,-2.1756,-2.1494,-2.1171,-2.0817,-2.0476,-1.9723,-1.9249,-1.933,-1.8666,0.0,0.0,0.0,0.0,-1.979,0.0,-1.8631,-1.9587,-1.9252,-1.9342,0.0,0.0,0.0,0.0,0.0,0.0,-2.4795,0.0,-2.5946,-2.6146,-2.6726,-2.7762,-2.9303,-3.0452,-3.1745,-3.3184,-3.3959,-3.4312,-3.4382,-3.3803,-3.3558,-3.3597,-3.3366,-3.345,-3.3607,-3.3607,-3.3797,-3.4,-3.4,-3.4151,-3.4349,-1.7726,0.0,-1.6805,0.0,-2.182,-2.3123,-2.3114,-2.3097,-2.2029,-1.9239,-1.8661,-1.8382,-1.8117,-1.8824,-1.9061,-1.8364,-1.9006,-1.97,-2.0285,-2.1212,-2.1479,-2.0713,-1.9474,0.0,-1.7329,-1.8247,-1.8372,-1.7499,-1.5356,0.0,0.0,0.0,0.0,-1.5618,-1.7211,-1.8162,-1.8673,-2.0272,-2.0984,-2.1138,-2.1359,-2.1512,-2.1578,-2.1731,-2.1807,-2.1883,-2.2025,-2.2101,-2.2176,-2.2176,-2.0968,-1.9608,-2.0245,-2.0574,-2.0817,-2.1404,-2.1694,-2.1883,-2.1807,-2.1883,-2.1959,-2.1807,-2.1807,-2.1842,-2.1631,-2.1704,-2.1807,-2.1731,-2.1502,-2.1425,-2.1558,-2.0571,-2.0099,-2.101,-1.9908,0.0,0.0,-1.979,0.0,-2.0782,-1.9902,-1.952,-2.0369,-2.017,-2.0187,0.0,0.0,0.0,-2.2369,-2.3218,-2.4067,-2.4795,-2.5573,-2.6244,-2.6698,-2.7154,-2.8268,-3.0116,-3.0875,-3.2093,-3.3599,-3.4544,-3.4745,-3.4327,-3.4012,-3.391,-3.3894,-3.3738,-3.3797,-3.3984,-3.3984,-3.4168,-3.4415,-3.4415,-3.443,-3.4521,-1.8662,-1.8866,-1.9782,-2.2575,-2.3083,-2.3068,-2.3091,-2.3124,-2.2521,-2.0818,-2.1231,-2.0914,-1.8852,-2.0469,-2.1619,-2.1201,-2.1298,-2.1482,-2.1731,-2.1807,-2.1758,0.0,0.0,-2.1746,-2.172,-1.9765,-1.8477,-1.7917,0.0,0.0,-1.567,-1.5939,-1.6563,-1.7611,-1.8274,-1.9456,-2.0886,-2.0906,-2.1138,-2.1502,-2.1502,-2.1655,-2.1807,-2.1807,-2.1959,-2.2101,-2.2101,-2.2252,-2.2402,-2.2402,-2.2094,-2.1627,-2.1188,-2.1435,-2.1714,-2.1259,-2.1595,-2.2025,-2.1873,-2.2111,-2.2327,-2.1883,-2.1959,-2.191,-2.1228,-2.1476,-2.1731,-2.1502,-2.1655,-2.1939,-2.2489,-2.1627,-2.1544,-2.3693,-2.251,-2.1695,0.0,-2.2241,0.0,-2.1233,-2.1084,-2.1141,-2.1606,-2.2005,0.0,0.0,0.0,0.0,-2.3979,-2.3452,-2.3665,-2.4782,-2.4833,-2.5269,-2.6096,-2.7501,-2.896,-3.0438,-3.141,-3.2384,-3.3366,-3.4832,-3.5288,-3.4988,-3.5172,-3.5307,-3.5242,-3.4693,-3.4529,-3.4577,-3.4577,-3.4847,-3.5174,-3.5174,-3.4858,-3.453,-2.1474,-2.1787,-2.2074,-2.2903,-2.2138,-2.1409,-2.1428,-2.1377,-2.1571,-2.2227,-2.2015,-2.1533,-2.0844,-2.1385,-2.1741,0.0,-2.1634,-2.1731,0.0,-2.1807,-2.1762,-2.1768,-2.1768,-2.183,-2.1808,-2.0927,-2.0284,-2.0039,0.0,-1.7362,-1.7178,-1.7633,-1.8526,-1.9895,-2.0041,-2.0485,-2.1138,-2.1282,-2.1359,-2.1502,-2.1655,-2.1731,-2.1807,-2.1807,-2.1807,-2.1949,-2.2176,-2.2327,-2.2402,-2.2553,-2.2305,-2.1782,-2.1195,-2.1134,-2.1281,-2.1429,-2.1649,-2.1839,-2.1776,-2.185,-2.185,-2.1628,-2.1554,-2.1596,-2.1549,-2.2189,-2.2723,-2.2649,-2.3158,-2.3649,-2.3929,-2.3183,-2.2659,-2.3294,-2.2582,-2.2196,-2.2831,-2.2073,-2.1985,-2.3244,-2.2636,-2.2558,-2.3729,-2.3616,0.0,0.0,0.0,0.0,-2.2431,-2.4042,-2.5192,-2.566,-2.6632,-2.7541,-2.8422,-2.8969,-2.9825,-3.0947,-3.1342,-3.2287,-3.3717,-3.381,-3.4121,-3.4489,-3.417,-3.4134,-3.422,-3.4147,-3.4151,-3.4284,-3.4382,-3.4578,-3.4866,-3.4866,-3.4905,-3.5076,-2.2886,-2.3127,-2.3172,-2.354,-2.1948,-2.0733,-2.0991,-2.1055,-2.1449,-2.2475,-2.2174,-2.1772,-2.1807,-2.1807,0.0,-2.1807,-2.1807,-2.1807,-2.1807,-2.1807,-2.1807,-2.1807,-2.1807,-2.1828,-2.1783,-2.1456,-2.1292,-2.1138,-1.982,-1.9145,-1.9145,-1.9353,-2.0049,-2.0984,-2.0984,-2.1128,-2.1359,-2.1436,-2.1502,-2.1655,-2.1731,-2.1694,-2.1549,-2.1549,-2.1435,-2.1428,-2.1734,-2.1881,-2.2039,-2.2247,-2.2006,-2.155,-2.1118,-2.0844,-2.0722,-2.1041,-2.1496,-2.1731,-2.1488,-2.1645,-2.1857,-2.1481,-2.1481,-2.1671,-2.22,-2.3084,-2.3722,-2.3722,-2.4008,-2.4296,-2.48,-2.3874,-2.3282,-2.419,-2.3463,-2.3046,-2.3828,-2.3071,-2.2779,-2.3829,-2.333,-2.3228,-2.4124,-2.4066,-2.3941,0.0,0.0,0.0,-2.3183,-2.476,-2.5985,-2.6754,-2.7944,-2.9024,-2.9936,-3.0076,-3.0602,-3.1496,-3.1732,-3.2455,-3.362,-3.3477,-3.3741,-3.4386,-3.4041,-3.3949,-3.4101,-3.4151,-3.4349,-3.4546,-3.4643,-3.4818,-3.5102,-3.5102,-3.5119,-3.5222,-2.2925,-2.3071,-2.3474,-2.4156,-2.2312,-2.1004,-2.1719,-2.1818,-2.1814,-2.1814,-2.1762,-2.1807,-2.1807,-2.1807,-2.1807,-2.1807,0.0,0.0,-2.1807,-2.1807,-2.1807,-2.1807,-2.1807,-2.1807,-2.1807,-2.1578,-2.1502,-2.1405,-2.1272,-2.1205,-2.1215,-2.1098,-2.1098,-2.1205,-2.1205,-2.1359,-2.1502,-2.1471,-2.1614,-2.1756,-2.1756,-2.1476,-2.1073,-2.1104,-2.0969,-2.0705,-2.0949,-2.1171,-2.1312,-2.1522,-2.1265,-2.0928,-2.104,-2.0654,-2.0172,-2.0315,-2.1156,-2.1829,-2.1165,-2.1635,-2.2158,-2.1523,-2.1617,-2.2058,-2.3121,-2.4085,-2.4803,-2.4803,-2.4425,-2.4357,-2.5135,-2.4013,-2.3687,-2.5882,-2.4772,-2.414,-2.557,-2.4734,-2.3879,-2.3513,-2.3319,-2.3354,-2.3511,-2.3865,-2.4305,-2.4795,0.0,0.0,0.0,-2.5511,-2.6235,-2.7944,-2.8884,-2.9832,-3.0778,-3.094,-3.1317,-3.1956,-3.2336,-3.2755,-3.3064,-3.3548,-3.4005,-3.4349,-3.4382,-3.4463,-3.4625,-3.4673,-3.4911,-3.527,-3.5321,-3.5498,-3.5786,-3.5837,-3.56,-3.527,0.0,0.0,-2.3829,-2.2674,-2.2534,-2.2402,-2.1906,-2.1768,-2.1828,-2.1828,-2.1818,-2.1807,-2.1807,-2.1807,-2.1807,-2.1807,-2.1807,-2.1807,-2.1807,-2.1807,-2.1807,-2.1807,-2.1807,-2.1807,-2.1807,-2.1578,-2.1446,-2.1389,-2.1292,-2.1225,-2.1322,-2.1215,-2.1272,-2.1436,-2.1436,-2.1502,-2.1711,-2.136,-2.1205,-2.128,-2.128,-2.1,-2.0627,-2.1126,-2.1042,-2.0776,-2.109,-2.1242,-2.1312,-2.1522,-2.1265,-2.0928,-2.104,-2.0787,-2.0445,-2.0997,-2.1424,-2.1566,-2.1213,-2.1647,-2.2082,-2.1275,-2.198,-2.3161,-2.4255,-2.5298,-2.6008,-2.6146,-2.6536,-2.6747,-2.6401,-2.5653,-2.5052,-2.4972,-2.4556,-2.4179,-2.4147,-2.4126,-2.433,-2.4798,-2.4785,-2.5103,-2.5829,-2.5618,-2.5252,0.0,0.0,-2.5484,-2.5942,-2.7124,-2.8116,-2.8843,-3.0061,-3.1072,-3.1823,-3.1977,-3.218,-3.2439,-3.2123,-3.2254,-3.2788,-3.2579,-3.2575,-3.2859,-3.3205,-3.3627,-3.4038,-3.4432,-3.4655,-3.481,-3.5484,-3.5702,-3.567,-3.6324,-3.6767,-3.7094,-2.2347,-2.5131,-2.6504,-2.3578,-2.2741,-2.2667,-2.2992,-2.2305,-2.1782,-2.1787,-2.1807,-2.1807,-2.1807,-2.1807,-2.1807,-2.1807,-2.1807,-2.1807,-2.1807,-2.1807,-2.1807,-2.1807,-2.1807,-2.1807,-2.1807,-2.1818,-2.1828,-2.1783,-2.1599,-2.1522,-2.1609,-2.1522,-2.1502,-2.1655,-2.1655,-2.1731,-2.1776,-2.1311,-2.1114,-2.1114,-2.1114,-2.0721,-2.0242,-2.0843,-2.0734,-2.0349,-2.0576,-2.0863,-2.1116,-2.1254,-2.1136,-2.1051,-2.1185,-2.0864,-2.052,-2.1048,-2.143,-2.1556,-2.0841,-2.1465,-2.2248,-2.2035,-2.2868,-2.4072,-2.518,-2.6296,-2.7002,-2.7002,-2.7155,-2.7092,-2.6386,-2.5686,-2.5068,-2.4512,-2.3905,-2.3619,-2.4088,-2.3912,-2.4178,-2.5435,-2.5562,-2.5906,-2.6786,-2.6595,-2.6222,-2.5864,-2.6306,-2.6729,-2.7063,-2.8717,-2.9696,-2.9879,-3.0955,-3.1823,-3.2302,-3.2342,-3.2453,-3.2523,-3.2261,-3.2394,-3.2796,-3.2433,-3.2464,-3.2653,-3.2644,-3.2979,-3.36,-3.3996,-3.4533,-3.5076,-3.5408,-3.5861,-3.6262,-3.6332,-3.6646,-3.7041,-2.5349,-2.8479,-2.9745,-2.5902,-2.3694,-2.2947,-2.4164,-2.3065,-2.2093,-2.2081,-2.192,-2.1814,-2.1814,-2.1814,-2.2027,-2.2574,-2.2134,-2.1769,-2.1797,-2.1959,-2.2035,-2.1807,-2.209,-2.209,-2.1797,-2.2273,-2.2499,-2.2521,-2.2306,-2.222,-2.2113,-2.222,-2.2241,-2.2241,-2.2231,-2.2199,-2.2104,-2.1628,-2.1385,-2.125,-2.125,-2.0815,-2.0117,-2.0631,-2.0418,-1.9868,-1.9933,-2.027,-2.0762,-2.0839,-2.094,-2.1008,-2.1241,-2.0941,-2.0475,-2.0775,-2.1285,-2.1539,-2.0446,-2.1213,-2.2562,-2.3233,-2.4105,-2.5086,-2.614,-2.7162,-2.7789,-2.759,-2.721,-2.6686,-2.5983,-2.5224,-2.4561,-2.4134,-2.3255,-2.3,-2.4268,-2.3828,-2.4066,-2.5711,-2.5955,-2.6317,-2.696,-2.7146,-2.7201,-2.7201,-2.8038,-2.8566,-2.8566,-3.0182,-3.1057,-3.0896,-3.1652,-3.215,-3.2398,-3.2398,-3.2398,-3.2453,-3.2578,-3.2711,-3.287,-3.2793,-3.2789,-3.2834,-3.2384,-3.2607,-3.3236,-3.3671,-3.4421,-3.5287,-3.5399,-3.598,-3.672,-3.6167,-3.6058,-3.6321,-2.9539,-3.0522,-3.0456,-2.8861,-2.698,-2.5342,-2.4051,-2.3595,-2.3383,-2.344,-2.249,-2.1779,-2.1779,-2.1779,-2.3122,-2.6299,-2.3674,-2.1796,-2.1766,-2.2821,-2.2896,-2.1883,-2.3379,-2.3492,-2.1811,-2.3108,-2.3779,-2.3844,-2.4077,-2.3994,-2.3451,-2.3994,-2.423,-2.423,-2.4362,-2.4059,-2.3431,-2.32,-2.2657,-2.2131,-2.2131,-2.147,-2.0575,-2.1185,-2.0776,-1.9933,-2.0009,-2.0129,-2.0314,-2.0729,-2.0587,-2.0391,-2.0975,-2.0918,-2.0604,-2.054,-2.1061,-2.1441,-2.0554,-2.1486,-2.2994,-2.4454,-2.5425,-2.64,-2.7564,-2.7789,-2.7855,-2.8,-2.7789,-2.7341,-2.6492,-2.5806,-2.4841,-2.2917,-2.3334,-2.3599,-2.2799,-2.3999,-2.5256,-2.6089,-2.6414,-2.6765,-2.7217,-2.7881,-2.8182,-2.8025,-2.9462,-3.0346,-3.0346,-3.1377,-3.2007,-3.1951,-3.2231,-3.2342,-3.2398,-3.2398,-3.2453,-3.2578,-3.2773,-3.2835,-3.2732,-3.2951,-3.2541,-3.167,-3.2093,-3.2456,-3.2821,-3.4106,-3.4481,-3.4371,-3.5878,-3.5963,-3.5337,-3.5974,-3.6425,-3.6822,-2.9013,-2.9109,-2.8924,-2.8408,-2.817,-2.7498,-2.5963,-2.5712,-2.5786,-2.5743,-2.5218,-2.4862,-2.4862,-2.3014,-2.2992,-2.6029,-2.5409,-2.4504,-2.3717,-2.4926,-2.5022,-2.339,-2.3217,-2.3398,-2.3952,-2.48,-2.523,-2.5098,-2.4945,-2.4601,-2.4211,-2.4542,-2.4945,-2.5361,-2.5063,-2.4566,-2.4044,-2.3613,-2.3024,-2.2398,-2.2398,-2.1975,-2.1463,-2.2081,-2.19,-2.1353,-2.1428,-2.1789,-2.2355,-2.2589,-2.2573,-2.2486,-2.2775,-2.2379,-2.1803,-2.1741,-2.1654,-2.1666,-2.1804,-2.2262,-2.3143,-2.4701,-2.5266,-2.5859,-2.726,-2.7586,-2.7666,-2.8012,-2.8013,-2.7683,-2.683,-2.631,-2.5587,-2.4124,-2.4026,-2.4141,-2.4354,-2.476,-2.5511,-2.6777,-2.688,-2.7236,-2.8117,-2.857,-2.8925,-2.9261,-3.0392,-3.1072,-3.094,-3.1807,-3.2358,-3.2413,-3.2468,-3.2523,-3.2523,-3.2648,-3.2703,-3.2773,-3.2843,-3.2939,-3.2891,-3.2882,-3.2865,-3.2785,-3.2486,-3.2745,-3.3459,-3.4006,-3.4411,-3.4757,-3.5418,-3.5765,-3.5935,-3.5932,-3.601,-3.6273,-2.8003,-2.7601,-2.7487,-2.7507,-2.8284,-2.8578,-2.7666,-2.7477,-2.7498,-2.7475,-2.75,-2.75,-2.75,-2.5001,-2.3956,-2.5578,-2.6999,-2.724,-2.5886,-2.6999,-2.6814,-2.4815,-2.3381,-2.3781,-2.6277,-2.6609,-2.6671,-2.6534,-2.5931,-2.5578,-2.5451,-2.5451,-2.584,-2.6457,-2.5931,-2.5387,-2.4915,-2.4398,-2.3793,-2.3152,-2.3093,-2.2812,-2.2519,-2.296,-2.2923,-2.2592,-2.2592,-2.3132,-2.387,-2.4128,-2.4094,-2.405,-2.431,-2.3641,-2.2882,-2.2822,-2.2555,-2.2419,-2.2958,-2.3179,-2.3513,-2.4807,-2.5117,-2.5463,-2.6724,-2.722,-2.7434,-2.7851,-2.7986,-2.7802,-2.7143,-2.6687,-2.6155,-2.5154,-2.4722,-2.4824,-2.5575,-2.5483,-2.5906,-2.7232,-2.7403,-2.7842,-2.8876,-2.9366,-2.9785,-3.0451,-3.1246,-3.1607,-3.1549,-3.2089,-3.2523,-3.2703,-3.2648,-3.2594,-3.2594,-3.2773,-3.2897,-3.2951,-3.2951,-3.3005,-3.3134,-3.3067,-3.3371,-3.3822,-3.3211,-3.3375,-3.4023,-3.4084,-3.4442,-3.4942,-3.499,-3.5457,-3.6087,-3.5546,-3.528,-3.5429,-2.8565,-2.8004,-2.7522,-2.7496,-2.7589,-2.7615,-2.7509,-2.7496,-2.7509,-2.7468,-2.7468,-2.7468,-2.7468,-2.7562,-2.755,-2.7326,-2.8067,-2.8266,-2.7749,-2.7987,-2.7134,-2.4791,-2.4873,-2.5915,-2.7973,-2.8039,-2.8024,-2.8066,-2.7881,-2.7802,-2.7669,-2.7802,-2.7881,-2.7961,-2.8039,-2.7615,-2.698,-2.6644,-2.5995,-2.5123,-2.4758,-2.4157,-2.3518,-2.3556,-2.3185,-2.2592,-2.2592,-2.2641,-2.2874,-2.387,-2.3601,-2.3059,-2.3946,-2.3716,-2.3015,-2.2822,-2.3526,-2.4124,-2.3463,-2.3927,-2.4663,-2.5069,-2.5781,-2.6425,-2.6518,-2.6925,-2.7227,-2.7267,-2.7563,-2.7709,-2.7351,-2.6974,-2.6116,-2.4356,-2.5294,-2.5743,-2.4368,-2.5857,-2.7111,-2.7011,-2.7973,-2.8776,-2.9002,-3.0332,-3.1246,-3.1304,-3.2033,-3.2523,-3.2523,-3.2523,-3.2757,-3.3043,-3.2757,-3.2594,-3.2594,-3.2594,-3.2757,-3.3112,-3.3112,-3.315,-3.3293,-3.3853,-3.3876,-3.3568,-3.4286,-3.4328,-3.389,-3.4954,-3.4776,-3.3945,-3.5101,-3.4996,-3.4259,-3.4493,-3.4498,-3.4516,-2.8046,-2.7719,-2.7523,-2.7523,-2.7484,-2.7524,-2.7523,-2.7471,-2.7524,-2.7523,-2.7523,-2.7523,-2.7523,-2.7868,-2.8014,-2.7894,-2.8331,-2.8516,-2.8368,-2.8395,-2.7973,-2.6889,-2.7219,-2.7894,-2.8739,-2.8644,-2.8527,-2.8419,-2.8235,-2.8118,-2.8119,-2.8106,-2.825,-2.8395,-2.8471,-2.817,-2.7623,-2.7148,-2.6503,-2.5842,-2.5598,-2.5316,-2.505,-2.5435,-2.521,-2.4629,-2.4629,-2.4629,-2.4695,-2.514,-2.4996,-2.4754,-2.514,-2.4853,-2.4452,-2.4553,-2.4781,-2.4908,-2.4894,-2.5127,-2.5303,-2.5202,-2.5449,-2.5778,-2.6085,-2.6296,-2.6627,-2.7368,-2.7551,-2.7613,-2.7841,-2.7657,-2.7249,-2.631,-2.6647,-2.6908,-2.6414,-2.6788,-2.7268,-2.7789,-2.8274,-2.8989,-2.9954,-3.0925,-3.1777,-3.2287,-3.2594,-3.2718,-3.2594,-3.2812,-3.2935,-3.2951,-3.3043,-3.2973,-3.2935,-3.2935,-3.3156,-3.3681,-3.3748,-3.3986,-3.4431,-3.4655,-3.4898,-3.5081,-3.5101,-3.522,-3.5383,-3.5128,-3.4856,-3.4631,-3.4559,-3.4451,-3.4316,-3.4316,-3.4293,-3.4405,-2.7641,-2.7523,-2.7523,-2.7523,-2.7511,-2.7577,-2.7815,-2.7828,-2.7762,-2.755,-2.7603,-2.7629,-2.7523,-2.7828,-2.8053,-2.8106,-2.8448,-2.8606,-2.8603,-2.8655,-2.8587,-2.8387,-2.8678,-2.9004,-2.914,-2.8986,-2.878,-2.8587,-2.8481,-2.83,-2.8224,-2.8302,-2.8446,-2.8655,-2.8678,-2.8548,-2.8208,-2.7533,-2.6968,-2.6583,-2.6112,-2.5955,-2.6058,-2.6421,-2.6326,-2.5887,-2.5887,-2.5778,-2.5643,-2.5833,-2.5823,-2.57,-2.5891,-2.5652,-2.5397,-2.5578,-2.5564,-2.5508,-2.5784,-2.5839,-2.5729,-2.5453,-2.5286,-2.5269,-2.5636,-2.5972,-2.6416,-2.7182,-2.7579,-2.7826,-2.7913,-2.8101,-2.8038,-2.7354,-2.7538,-2.7657,-2.7473,-2.7196,-2.7315,-2.812,-2.8663,-2.945,-3.0778,-3.1634,-3.2367,-3.2843,-3.3005,-3.2935,-3.2757,-3.3027,-3.3203,-3.3096,-3.3203,-3.3256,-3.3203,-3.315,-3.3419,-3.3987,-3.4103,-3.4479,-3.5107,-3.5307,-3.5654,-3.6105,-3.5948,-3.6066,-3.6345,-3.5566,-3.5173,-3.5009,-3.451,-3.4469,-3.4647,-3.4428,-3.446,-3.4692,-2.7523,-2.7523,-2.7523,-2.7523,-2.7511,-2.7762,-2.8491,-2.8623,-2.8357,-2.7617,-2.7868,-2.7948,-2.7536,-2.7749,-2.796,-2.8185,-2.8419,-2.8587,-2.8587,-2.8716,-2.8858,-2.8899,-2.8899,-2.9041,-2.9323,-2.9204,-2.8908,-2.8587,-2.8716,-2.8638,-2.8287,-2.8509,-2.8651,-2.878,-2.878,-2.8908,-2.9016,-2.8075,-2.7617,-2.7388,-2.6329,-2.6092,-2.6293,-2.6191,-2.6017,-2.5887,-2.59,-2.552,-2.51,-2.5683,-2.5608,-2.5326,-2.5928,-2.5936,-2.5674,-2.555,-2.5812,-2.6056,-2.5784,-2.5893,-2.6056,-2.5784,-2.5453,-2.5174,-2.5188,-2.6,-2.6749,-2.6539,-2.7606,-2.8255,-2.7267,-2.8012,-2.8278,-2.683,-2.7523,-2.7891,-2.6765,-2.6931,-2.7337,-2.8043,-2.9113,-3.0247,-3.1302,-3.2547,-3.3203,-3.2897,-3.315,-3.3256,-3.3112,-3.3361,-3.3503,-3.3487,-3.3346,-3.3346,-3.3487,-3.3256,-3.3419,-3.3987,-3.4037,-3.4414,-3.5153,-3.5803,-3.6097,-3.6139,-3.6816,-3.6838,-3.6398,-3.6484,-3.5828,-3.4851,-3.5108,-3.5172,-3.5071,-3.4726,-3.4904,-3.5236,-2.7523,-2.7523,-2.7523,-2.7523,-2.7472,-2.7776,-2.8491,-2.8635,-2.8527,-2.8331,-2.8225,-2.8132,-2.7974,-2.8026,-2.813,-2.8222,-2.8444,-2.8651,-2.8716,-2.931,-2.9498,-2.924,-2.924,-2.9317,-2.9505,-2.9366,-2.9162,-2.8972,-2.8739,-2.8675,-2.8638,-2.8743,-2.8871,-2.9035,-2.9162,-2.9226,-2.9268,-2.8282,-2.7879,-2.7808,-2.6976,-2.6652,-2.6734,-2.729,-2.6905,-2.6058,-2.6389,-2.5887,-2.5032,-2.5208,-2.5268,-2.5257,-2.566,-2.5716,-2.5592,-2.5853,-2.5962,-2.6002,-2.6111,-2.6111,-2.6056,-2.5784,-2.5619,-2.5619,-2.5821,-2.5986,-2.6307,-2.6761,-2.7067,-2.7257,-2.7189,-2.7763,-2.8056,-2.7314,-2.8266,-2.8996,-2.865,-2.9058,-2.9608,-3.0132,-3.0674,-3.1309,-3.1972,-3.2492,-3.292,-3.315,-3.3256,-3.3309,-3.3256,-3.3503,-3.347,-3.3008,-3.3387,-3.3489,-3.334,-3.3492,-3.3969,-3.4736,-3.514,-3.5654,-3.6291,-3.6638,-3.6776,-3.6753,-3.7087,-3.7099,-3.6874,-3.6612,-3.6366,-3.6173,-3.5933,-3.5984,-3.6114,-3.5374,-3.536,-3.561,-2.7523,-2.7523,-2.751,-2.7484,-2.7499,-2.7723,-2.8463,-2.8606,-2.8787,-2.9316,-2.921,-2.9086,-2.9022,-2.9079,-2.9045,-2.8858,-2.9101,-2.9268,-2.933,-3.0076,-3.0346,-3.0043,-3.0208,-3.0222,-3.0054,-2.9651,-2.9526,-2.967,-2.917,-2.8931,-2.8908,-2.8935,-2.9049,-2.9226,-2.9352,-2.9289,-2.9058,-2.8361,-2.7968,-2.7684,-2.7029,-2.686,-2.7004,-2.746,-2.7045,-2.6233,-2.6499,-2.5949,-2.5061,-2.5061,-2.523,-2.5453,-2.5619,-2.5743,-2.5812,-2.6016,-2.6111,-2.615,-2.6272,-2.6403,-2.6477,-2.595,-2.5966,-2.6064,-2.6095,-2.6503,-2.6886,-2.6936,-2.7514,-2.7815,-2.745,-2.8121,-2.8691,-2.8443,-2.9094,-2.9785,-3.0093,-3.0294,-3.0656,-3.1308,-3.1616,-3.1974,-3.2461,-3.2888,-3.3335,-3.3847,-3.4026,-3.4058,-3.3879,-3.4074,-3.3893,-3.3287,-3.3841,-3.4039,-3.3824,-3.469,-3.5238,-3.534,-3.5725,-3.6274,-3.693,-3.7009,-3.7031,-3.7066,-3.7461,-3.7408,-3.7129,-3.7161,-3.7023,-3.6687,-3.639,-3.6575,-3.6887,-3.6054,-3.6085,-3.6385,-2.7536,-2.7523,-2.7484,-2.7551,-2.7552,-2.7827,-2.8471,-2.8678,-2.916,-3.0304,-3.0486,-3.0454,-3.0254,-3.0435,-3.0424,-2.9854,-3.0089,-3.0265,-3.0353,-3.0909,-3.1172,-3.0923,-3.1459,-3.1477,-3.0867,-3.0162,-3.0054,-3.0585,-2.9917,-2.9463,-2.9275,-2.9275,-2.9401,-2.9588,-2.947,-2.9195,-2.8813,-2.8353,-2.7839,-2.7267,-2.673,-2.6763,-2.7128,-2.7073,-2.6722,-2.6282,-2.6337,-2.585,-2.523,-2.523,-2.5453,-2.5729,-2.5729,-2.5893,-2.6111,-2.6111,-2.6312,-2.6472,-2.6451,-2.684,-2.714,-2.6463,-2.6526,-2.6705,-2.6263,-2.7335,-2.8102,-2.7193,-2.8419,-2.9308,-2.7945,-2.8856,-2.9799,-2.987,-3.0129,-3.0553,-3.1276,-3.1024,-3.1089,-3.2003,-3.2258,-3.2541,-3.3036,-3.365,-3.4182,-3.4675,-3.5117,-3.5181,-3.4729,-3.486,-3.4594,-3.3919,-3.4545,-3.4849,-3.4816,-3.6497,-3.6852,-3.595,-3.6165,-3.6585,-3.7108,-3.7189,-3.7224,-3.721,-3.7923,-3.7893,-3.7373,-3.8042,-3.7691,-3.6753,-3.6716,-3.7015,-3.7393,-3.6796,-3.699,-3.7396,-2.7749,-2.7617,-2.7564,-2.7894,-2.8197,-2.8454,-2.8614,-2.9164,-2.9845,-3.0433,-3.0491,-3.0551,-3.06,-3.1101,-3.1087,-3.0192,-3.0514,-3.0939,-3.1351,-3.1788,-3.1718,-3.0887,-3.1683,-3.216,-3.2175,-3.1702,-3.1362,-3.1202,-3.1042,-3.0881,-3.0719,-3.0719,-3.0911,-3.1145,-3.006,-2.9653,-2.9609,-2.8222,-2.7564,-2.7446,-2.7026,-2.6785,-2.6662,-2.7013,-2.6734,-2.616,-2.644,-2.6161,-2.5619,-2.5619,-2.5619,-2.5729,-2.5948,-2.6056,-2.6165,-2.6365,-2.6457,-2.6625,-2.7212,-2.7334,-2.7369,-2.757,-2.7993,-2.8104,-2.6917,-2.7586,-2.8223,-2.767,-2.8369,-2.8799,-2.7961,-2.8914,-2.9811,-2.9907,-3.1323,-3.2518,-3.2776,-3.3396,-3.3943,-3.4426,-3.439,-3.4418,-3.4526,-3.4526,-3.46,-3.4855,-3.4872,-3.4803,-3.4713,-3.443,-3.4235,-3.4051,-3.5177,-3.5946,-3.6409,-3.769,-3.7646,-3.6216,-3.7706,-3.7947,-3.7062,-3.8373,-3.8543,-3.794,-3.8853,-3.91,-3.8802,-3.8505,-3.8235,-3.7978,-3.7703,-3.7745,-3.7903,-3.7434,-3.7461,-3.7644,-2.8561,-2.8534,-2.8766,-2.9338,-2.9477,-2.9504,-2.9482,-3.0646,-3.1482,-3.1397,-3.1411,-3.1468,-3.1649,-3.1894,-3.1921,-3.1678,-3.1977,-3.2266,-3.2428,-3.2772,-3.2801,-3.24,-3.2776,-3.304,-3.3176,-3.3045,-3.2648,-3.2084,-3.1705,-3.1534,-3.1435,-3.1435,-3.1549,-3.1762,-3.1019,-3.0634,-3.0357,-2.9277,-2.8628,-2.8323,-2.7951,-2.753,-2.7086,-2.7334,-2.6891,-2.6193,-2.6369,-2.6174,-2.5784,-2.5893,-2.5893,-2.5948,-2.6111,-2.6218,-2.6312,-2.6457,-2.6578,-2.6717,-2.7186,-2.765,-2.7982,-2.7783,-2.8986,-2.9671,-2.7945,-2.8468,-2.9348,-2.9406,-3.0075,-3.0602,-3.0641,-3.1036,-3.1704,-3.2542,-3.3059,-3.3615,-3.4431,-3.4733,-3.5049,-3.534,-3.534,-3.5237,-3.5134,-3.5,-3.5062,-3.5387,-3.6101,-3.6443,-3.6352,-3.6422,-3.6198,-3.561,-3.6468,-3.7103,-3.7358,-3.8661,-3.8813,-3.7895,-3.8883,-3.8948,-3.8209,-3.91,-3.9241,-3.8871,-3.9682,-3.9847,-3.9534,-3.9458,-3.912,-3.8584,-3.8329,-3.842,-3.866,-3.8437,-3.8387,-3.8329,-2.9515,-2.9754,-3.0214,-3.0791,-3.0762,-3.0585,-3.0514,-3.1931,-3.2883,-3.2437,-3.2414,-3.2502,-3.2695,-3.2616,-3.2839,-3.3599,-3.3837,-3.3921,-3.3852,-3.393,-3.4002,-3.4069,-3.3912,-3.385,-3.385,-3.4034,-3.3713,-3.3018,-3.2407,-3.2074,-3.2018,-3.2018,-3.213,-3.221,-3.1992,-3.1625,-3.1083,-3.0458,-2.9847,-2.9261,-2.8855,-2.8336,-2.7834,-2.7685,-2.7282,-2.6692,-2.6534,-2.6461,-2.6386,-2.634,-2.6437,-2.6547,-2.65,-2.6563,-2.6654,-2.6811,-2.6966,-2.7179,-2.7504,-2.8432,-2.9117,-2.8536,-3.0045,-3.1232,-2.9643,-3.0098,-3.0984,-3.1392,-3.2118,-3.295,-3.3671,-3.3584,-3.397,-3.545,-3.4852,-3.4628,-3.5732,-3.5529,-3.5351,-3.556,-3.5594,-3.554,-3.5509,-3.5338,-3.5506,-3.6091,-3.7562,-3.8318,-3.8044,-3.8619,-3.8465,-3.7344,-3.7923,-3.8169,-3.8121,-3.9434,-4.0032,-3.9891,-3.9952,-3.9858,-3.9529,-3.9752,-3.9829,-3.9823,-4.0451,-4.05,-4.0179,-4.053,-4.001,-3.8948,-3.8712,-3.8866,-3.921,-3.928,-3.9273,-3.9101,-3.0303,-3.0642,-3.0909,-3.0925,-3.1087,-3.1117,-3.058,-3.1312,-3.2057,-3.2345,-3.2555,-3.2711,-3.2879,-3.3071,-3.3694,-3.5,-3.5369,-3.5626,-3.595,-3.5524,-3.4832,-3.3878,-3.3979,-3.4034,-3.4034,-3.4101,-3.4,-3.3729,-3.3626,-3.3523,-3.3419,-3.3419,-3.3523,-3.3594,-3.239,-3.1972,-3.2006,-3.0335,-2.9531,-2.9357,-2.8871,-2.8591,-2.8319,-2.7765,-2.7898,-2.8288,-2.7449,-2.7742,-2.8387,-2.7424,-2.7757,-2.8372,-2.7461,-2.7195,-2.7348,-2.8012,-2.8373,-2.8867,-3.0281,-3.0914,-3.1328,-3.2,-3.2287,-3.2435,-3.2695,-3.289,-3.2895,-3.2206,-3.29,-3.3717,-3.4044,-3.4312,-3.4793,-3.5552,-3.62,-3.6437,-3.5985,-3.5964,-3.5918,-3.566,-3.5493,-3.576,-3.669,-3.6313,-3.6172,-3.6517,-3.753,-3.8058,-3.7765,-3.8113,-3.8171,-3.7829,-3.8631,-3.9009,-3.8939,-4.0256,-4.0931,-4.101,-4.1458,-4.0961,-3.9628,-4.076,-4.1006,-4.0493,-4.1286,-4.1568,-4.1513,-4.1091,-4.0428,-3.9597,-3.8999,-3.8808,-3.8902,-3.9175,-3.9509,-3.97,-3.1622,-3.1883,-3.2099,-3.2145,-3.2237,-3.2262,-3.1919,-3.2011,-3.2244,-3.2625,-3.2879,-3.3002,-3.2908,-3.3245,-3.4064,-3.5498,-3.5476,-3.5969,-3.7416,-3.6145,-3.4952,-3.4014,-3.4046,-3.4101,-3.4101,-3.4101,-3.405,-3.4,-3.3998,-3.3931,-3.3764,-3.3781,-3.3899,-3.3984,-3.3393,-3.3265,-3.3351,-3.2176,-3.147,-3.1085,-3.0502,-2.979,-2.9088,-2.8795,-2.8701,-2.8638,-2.8209,-2.833,-2.866,-2.8091,-2.8232,-2.8529,-2.8137,-2.8256,-2.8645,-2.8956,-2.9435,-2.9981,-3.0701,-3.1327,-3.1835,-3.223,-3.2874,-3.3457,-3.3426,-3.4213,-3.4832,-3.439,-3.4288,-3.4594,-3.5696,-3.5898,-3.6113,-3.6638,-3.7014,-3.6954,-3.6265,-3.6328,-3.6241,-3.5777,-3.5955,-3.6127,-3.6129,-3.6173,-3.6458,-3.6983,-3.8316,-3.9261,-3.9819,-4.0078,-4.0147,-4.0039,-3.9815,-3.9988,-4.0546,-4.065,-4.1092,-4.1855,-4.2109,-4.1789,-4.1008,-4.1107,-4.1241,-4.1372,-4.1223,-4.146,-4.1959,-4.1598,-4.1079,-4.0495,-4.0174,-4.0032,-4.0131,-4.0455,-4.0469,-4.0229]}]]